[[{"header":{"parameterUnit":"m.s-1","parameterCategory":1,"la1":31.0,"la2":29.5877,"lo1":-88.7671,"lo2":-86.6584,"dy":0.0162,"dx":0.0185,"nx":115,"ny":88,"refTime":"2026-03-16T00:00:00:Z","depth":0,"parameterNumber":2,"parameterNumberName":"U-component_of_WINDS"},"data":[0.0,0.0,0.0,0.0,0.0,0.0,0.0,0.0,0.0,0.0,0.0,0.0,0.0,0.0,0.0,0.0,0.0,0.0,0.0,0.0,0.0,0.0,0.0,0.0,0.0,0.0,0.0,0.0,0.0,0.0,0.0,0.0,0.0,0.0,0.0,0.0,0.0,0.0,0.0,0.0,0.0,0.0,0.0,0.0,0.0,0.0,0.0,0.0,0.0,0.0,0.0,0.0,0.0,0.0,0.0,0.0,0.0,0.0,0.0,0.0,0.0,0.0,0.0,0.0,0.0,0.0,0.0,0.0,0.0,0.0,0.0,0.0,0.0,0.0,0.0,0.0,0.0,0.0,0.0,0.0,0.0,0.0,0.0,0.0,0.0,0.0,0.0,0.0,0.0,0.0,0.0,0.0,0.0,0.0,0.0,0.0,0.0,0.0,0.0,0.0,0.0,0.0,0.0,0.0,0.0,0.0,0.0,0.0,0.0,0.0,0.0,0.0,0.0,0.0,0.0,0.0,0.0,0.0,0.0,0.0,0.0,0.0,0.0,0.0,0.0,0.0,0.0,0.0,0.0,0.0,0.0,0.0,0.0,0.0,0.0,0.0,0.0,0.0,0.0,0.0,0.0,0.0,0.0,0.0,0.0,0.0,0.0,0.0,0.0,0.0,0.0,0.0,0.0,0.0,0.0,0.0,0.0,0.0,0.0,0.0,0.0,0.0,0.0,0.0,0.0,0.0,0.0,0.0,0.0,0.0,0.0,0.0,0.0,0.0,0.0,0.0,0.0,0.0,0.0,0.0,0.0,0.0,0.0,0.0,0.0,0.0,0.0,0.0,0.0,0.0,0.0,0.0,0.0,0.0,0.0,0.0,0.0,0.0,0.0,0.0,0.0,0.0,0.0,0.0,0.0,0.0,0.0,0.0,0.0,0.0,0.0,0.0,0.0,0.0,0.0,0.0,0.0,0.0,0.0,0.0,0.0,0.0,0.0,0.0,0.0,0.0,0.0,0.0,0.0,0.0,0.0,0.0,0.0,0.0,0.0,0.0,0.0,0.0,0.0,0.0,0.0,0.0,0.0,0.0,0.0,0.0,0.0,0.0,0.0,0.0,0.0,0.0,0.0,0.0,0.0,0.0,0.0,0.0,0.0,0.0,0.0,0.0,0.0,0.0,0.0,0.0,0.0,0.0,0.0,0.0,0.0,0.0,0.0,0.0,0.0,0.0,0.0,0.0,0.0,0.0,0.0,0.0,0.0,0.0,0.0,0.0,0.0,0.0,0.0,0.0,0.0,0.0,0.0,0.0,0.0,0.0,0.0,0.0,0.0,0.0,0.0,0.0,0.0,0.0,0.0,0.0,0.0,0.0,0.0,0.0,0.0,0.0,0.0,0.0,0.0,0.0,0.0,0.0,0.0,0.0,0.0,0.0,0.0,0.0,0.0,0.0,0.0,0.0,0.0,0.0,0.0,0.0,0.0,0.0,0.0,0.0,0.0,0.0,0.0,0.0,0.0,0.0,0.0,0.0,0.0,0.0,0.0,0.0,0.0,0.0,0.0,0.0,0.0,0.0,0.0,0.0,0.0,0.0,0.0,0.0,0.0,0.0,0.0,0.0,0.0,0.0,0.0,0.0,0.0,0.0,0.0,0.0,0.0,0.0,0.0,0.0,0.0,0.0,0.0,0.0,0.0,0.0,0.0,0.0,0.0,0.0,0.0,0.0,0.0,0.0,0.0,0.0,0.0,0.0,0.0,0.0,0.0,0.0,0.0,0.0,0.0,0.0,0.0,0.0,0.0,0.0,0.0,0.0,0.0,0.0,0.0,0.0,0.0,0.0,0.0,0.0,0.0,0.0,0.0,0.0,0.0,0.0,0.0,0.0,0.0,0.0,0.0,0.0,0.0,0.0,0.0,0.0,0.0,0.0,0.0,0.0,0.0,0.0,0.0,0.0,0.0,0.0,0.0,0.0,0.0,0.0,0.0,0.0,0.0,0.0,0.0,0.0,0.0,0.0,0.0,0.0,0.0,0.0,0.0,0.0,0.0,0.0,0.0,0.0,0.0,0.0,0.0,0.0,0.0,0.0,0.0,0.0,0.0,0.0,0.0,0.0,0.0,0.0,0.0,0.0,0.0,0.0,0.0,0.0,0.0,0.0,0.0,0.0,0.0,0.0,0.0,0.0,0.0,0.0,0.0,0.0,0.0,0.0,0.0,0.0,0.0,0.0,0.0,0.0,0.0,0.0,0.0,0.0,0.0,0.0,0.0,0.0,0.0,0.0,0.0,0.0,0.0,0.0,0.0,0.0,0.0,0.0,0.0,0.0,0.0,0.0,0.0,0.0,0.0,0.0,0.0,0.0,0.0,0.0,0.0,0.0,0.0,0.0,0.0,0.0,0.0,0.0,0.0,0.0,0.0,0.0,0.0,0.0,0.0,0.0,0.0,0.0,0.0,0.0,0.0,0.0,0.0,0.0,0.0,0.0,0.0,0.0,0.0,0.0,0.0,0.0,0.0,0.0,0.0,0.0,0.0,0.0,0.0,0.0,0.0,0.0,0.0,0.0,0.0,0.0,0.0,0.0,0.0,0.0,0.0,0.0,0.0,0.0,0.0,0.0,0.0,0.0,0.0,0.0,0.0,0.0,0.0,0.0,0.0,0.0,0.0,0.0,0.0,0.0,0.0,0.0,0.0,0.0,0.0,0.0,0.0,0.0,0.0,0.0,0.0,0.0,0.0,0.0,0.0,0.0,0.0,0.0,0.0,0.0,0.0,0.0,0.0,0.0,0.0,0.0,0.0,0.0,0.0,0.0,0.0,0.0,0.0,0.0,0.0,0.0,0.0,0.0,0.0,0.0,0.0,0.0,0.0,0.0,0.0,0.0,0.0,0.0,0.0,0.0,0.0,0.0,0.0,0.0,0.0,0.0,0.0,0.0,0.0,0.0,0.0,0.0,0.0,0.0,0.0,0.0,0.0,0.0,0.0,0.0,0.0,0.0,0.0,0.0,0.0,0.0,0.0,0.0,0.0,0.0,0.0,0.0,0.0,0.0,0.0,0.0,0.0,0.0,0.0,0.0,0.0,0.0,0.0,0.0,0.0,0.0,0.0,0.0,0.0,0.0,0.0,0.0,0.0,0.0,0.0,0.0,0.0,0.0,0.0,0.0,0.0,0.0,0.0,0.0,0.0,0.0,0.0,0.0,0.0,0.0,0.0,0.0,0.0,0.0,0.0,0.0,0.0,0.0,0.0,0.0,0.0,0.0,0.0,0.0,0.0,0.0,0.0,0.0,0.0,0.0,0.0,0.0,0.0,0.0,0.0,0.0,0.0,0.0,0.0,0.0,0.0,0.0,0.0,0.0,0.0,0.0,0.0,0.0,0.0,0.0,0.0,0.0,0.0,0.0,0.0,0.0,0.0,0.0,0.0,0.0,0.0,0.0,0.0,0.0,0.0,0.0,0.0,0.0,0.0,0.0,0.0,0.0,0.0,0.0,0.0,0.0,0.0,0.0,0.0,0.0,0.0,0.0,0.0,0.0,0.0,0.0,0.0,0.0,0.0,0.0,0.0,0.0,0.0,0.0,0.0,0.0,0.0,0.0,0.0,0.0,0.0,0.0,0.0,0.0,0.0,0.0,0.0,0.0,0.0,0.0,0.0,0.0,0.0,0.0,0.0,0.0,0.0,0.0,0.0,0.0,0.0,0.0,0.0,0.0,0.0,0.0,0.0,0.0,0.0,0.0,0.0,0.0,0.0,0.0,0.0,0.0,0.0,0.0,0.0,0.0,0.0,0.0,0.0,0.0,0.0,0.0,0.0,0.0,0.0,0.0,0.0,0.0,0.0,0.0,0.0,0.0,0.0,0.0,0.0,0.0,0.0,0.0,0.0,0.0,0.0,0.0,0.0,0.0,0.0,0.0,0.0,0.0,0.0,0.0,0.0,0.0,0.0,0.0,0.0,0.0,0.0,0.0,0.0,0.0,0.0,0.0,0.0,0.0,0.0,0.0,0.0,0.0,0.0,0.0,0.0,0.0,0.0,0.0,0.0,0.0,0.0,0.0,0.0,0.0,0.0,0.0,0.0,0.0,0.0,0.0,0.0,0.0,0.0,0.0,0.0,0.0,0.0,0.0,0.0,0.0,0.0,0.0,0.0,0.0,0.0,0.0,0.0,0.0,0.0,0.0,0.0,0.0,0.0,0.0,0.0,0.0,0.0,0.0,0.0,0.0,0.0,0.0,0.0,0.0,0.0,0.0,0.0,0.0,0.0,0.0,0.0,0.0,4.5239,0.0,0.0,0.0,0.0,0.0,0.0,0.0,0.0,0.0,0.0,0.0,0.0,0.0,0.0,0.0,0.0,0.0,0.0,0.0,0.0,0.0,0.0,0.0,0.0,0.0,0.0,0.0,0.0,0.0,0.0,0.0,0.0,0.0,0.0,0.0,0.0,0.0,0.0,0.0,0.0,0.0,0.0,0.0,0.0,0.0,0.0,0.0,0.0,0.0,0.0,0.0,0.0,0.0,0.0,0.0,0.0,0.0,0.0,0.0,0.0,0.0,0.0,0.0,0.0,0.0,0.0,0.0,0.0,0.0,0.0,0.0,0.0,0.0,0.0,0.0,0.0,0.0,0.0,0.0,0.0,0.0,0.0,0.0,0.0,0.0,0.0,0.0,0.0,0.0,0.0,0.0,0.0,0.0,0.0,0.0,0.0,0.0,0.0,0.0,0.0,0.0,0.0,0.0,0.0,0.0,0.0,0.0,0.0,0.0,0.0,4.4819,4.5277,4.5277,4.5048,4.459,0.0,0.0,0.0,0.0,0.0,0.0,0.0,0.0,0.0,0.0,0.0,0.0,0.0,0.0,0.0,0.0,0.0,0.0,0.0,0.0,0.0,0.0,0.0,0.0,0.0,0.0,0.0,0.0,0.0,0.0,0.0,0.0,0.0,0.0,0.0,0.0,0.0,0.0,0.0,0.0,0.0,0.0,0.0,0.0,0.0,0.0,0.0,0.0,0.0,0.0,0.0,0.0,0.0,0.0,0.0,0.0,0.0,0.0,0.0,0.0,0.0,0.0,0.0,0.0,0.0,0.0,0.0,0.0,0.0,0.0,0.0,0.0,0.0,0.0,0.0,0.0,0.0,0.0,0.0,0.0,0.0,0.0,0.0,0.0,0.0,0.0,0.0,0.0,0.0,0.0,0.0,0.0,0.0,0.0,0.0,0.0,0.0,0.0,0.0,0.0,0.0,0.0,0.0,0.0,0.0,0.0,0.0,0.0,0.0,0.0,0.0,0.0,4.5337,4.484,4.3729,0.0,0.0,0.0,0.0,0.0,0.0,0.0,0.0,0.0,0.0,0.0,0.0,0.0,0.0,0.0,0.0,0.0,0.0,0.0,0.0,0.0,0.0,0.0,0.0,0.0,0.0,0.0,0.0,0.0,0.0,0.0,0.0,0.0,0.0,0.0,0.0,0.0,0.0,0.0,0.0,0.0,0.0,0.0,0.0,0.0,0.0,0.0,0.0,0.0,0.0,0.0,0.0,0.0,0.0,0.0,0.0,0.0,0.0,0.0,0.0,0.0,0.0,0.0,0.0,0.0,0.0,0.0,0.0,0.0,0.0,0.0,0.0,0.0,0.0,0.0,0.0,0.0,0.0,0.0,0.0,0.0,0.0,0.0,0.0,0.0,0.0,0.0,0.0,0.0,0.0,0.0,0.0,0.0,0.0,0.0,0.0,0.0,0.0,0.0,0.0,0.0,0.0,0.0,0.0,0.0,0.0,0.0,0.0,0.0,0.0,4.5301,4.5277,4.5339,0.0,4.3023,0.0,0.0,0.0,0.0,0.0,0.0,0.0,0.0,0.0,0.0,0.0,0.0,0.0,0.0,0.0,0.0,0.0,0.0,0.0,0.0,0.0,0.0,0.0,0.0,0.0,0.0,0.0,0.0,0.0,0.0,0.0,0.0,0.0,0.0,0.0,0.0,0.0,0.0,0.0,0.0,0.0,0.0,0.0,0.0,0.0,0.0,0.0,0.0,0.0,0.0,0.0,0.0,0.0,0.0,0.0,0.0,0.0,0.0,0.0,0.0,0.0,0.0,0.0,0.0,0.0,0.0,0.0,0.0,0.0,0.0,0.0,0.0,0.0,0.0,0.0,0.0,0.0,0.0,0.0,0.0,0.0,0.0,0.0,0.0,0.0,0.0,0.0,0.0,0.0,0.0,0.0,0.0,0.0,0.0,0.0,0.0,0.0,0.0,0.0,0.0,0.0,0.0,0.0,0.0,0.0,0.0,0.0,0.0,0.0,0.0,0.0,4.5339,4.4363,4.354,0.0,0.0,0.0,0.0,0.0,0.0,0.0,0.0,0.0,0.0,0.0,0.0,0.0,0.0,0.0,0.0,0.0,0.0,0.0,0.0,0.0,0.0,0.0,0.0,0.0,0.0,0.0,0.0,0.0,0.0,0.0,0.0,0.0,0.0,0.0,0.0,0.0,0.0,0.0,0.0,0.0,0.0,0.0,0.0,0.0,0.0,0.0,0.0,0.0,0.0,0.0,0.0,0.0,0.0,0.0,0.0,0.0,0.0,0.0,0.0,0.0,0.0,0.0,0.0,0.0,0.0,0.0,0.0,0.0,0.0,0.0,0.0,0.0,0.0,0.0,0.0,0.0,0.0,0.0,0.0,0.0,0.0,0.0,0.0,0.0,0.0,0.0,0.0,0.0,0.0,0.0,0.0,0.0,0.0,0.0,0.0,0.0,0.0,0.0,0.0,0.0,0.0,0.0,0.0,0.0,0.0,0.0,0.0,0.0,0.0,4.471,0.0,4.4997,4.4057,4.3176,4.245,0.0,0.0,0.0,0.0,0.0,0.0,0.0,0.0,0.0,0.0,0.0,0.0,0.0,0.0,0.0,0.0,0.0,0.0,0.0,0.0,0.0,0.0,0.0,0.0,0.0,0.0,0.0,0.0,0.0,0.0,0.0,0.0,0.0,0.0,0.0,0.0,0.0,0.0,0.0,0.0,0.0,0.0,0.0,0.0,0.0,0.0,0.0,0.0,0.0,0.0,0.0,0.0,0.0,0.0,0.0,0.0,0.0,0.0,0.0,0.0,0.0,0.0,0.0,0.0,0.0,0.0,0.0,0.0,0.0,0.0,0.0,0.0,0.0,0.0,0.0,0.0,0.0,0.0,0.0,0.0,0.0,0.0,0.0,0.0,0.0,0.0,0.0,0.0,0.0,0.0,0.0,0.0,0.0,0.0,0.0,0.0,0.0,0.0,0.0,0.0,0.0,0.0,0.0,0.0,0.0,0.0,0.0,0.0,0.0,4.5016,4.5054,4.4365,4.4842,4.4055,0.0,0.0,0.0,0.0,0.0,0.0,0.0,0.0,0.0,0.0,0.0,0.0,0.0,0.0,0.0,0.0,0.0,0.0,0.0,0.0,0.0,0.0,0.0,0.0,0.0,0.0,0.0,0.0,0.0,0.0,0.0,0.0,0.0,0.0,0.0,0.0,0.0,0.0,0.0,0.0,0.0,0.0,0.0,0.0,0.0,0.0,0.0,0.0,0.0,0.0,0.0,0.0,0.0,0.0,0.0,0.0,0.0,0.0,0.0,0.0,0.0,0.0,0.0,0.0,0.0,0.0,0.0,0.0,0.0,0.0,0.0,0.0,0.0,0.0,0.0,0.0,0.0,0.0,0.0,0.0,0.0,0.0,0.0,0.0,0.0,0.0,0.0,0.0,0.0,0.0,0.0,0.0,0.0,0.0,0.0,0.0,0.0,0.0,0.0,0.0,0.0,0.0,0.0,0.0,0.0,0.0,0.0,0.0,0.0,4.421,4.5016,4.5304,4.4978,4.4133,4.3252,0.0,0.0,0.0,0.0,0.0,0.0,0.0,0.0,0.0,0.0,0.0,0.0,0.0,0.0,0.0,0.0,0.0,0.0,0.0,0.0,0.0,0.0,0.0,0.0,0.0,0.0,0.0,0.0,0.0,0.0,0.0,0.0,0.0,0.0,0.0,0.0,0.0,0.0,0.0,0.0,0.0,0.0,0.0,0.0,0.0,0.0,0.0,0.0,0.0,0.0,0.0,0.0,0.0,0.0,0.0,0.0,0.0,0.0,0.0,0.0,0.0,0.0,0.0,0.0,0.0,0.0,0.0,0.0,0.0,0.0,0.0,0.0,0.0,0.0,0.0,0.0,0.0,0.0,0.0,0.0,0.0,0.0,0.0,0.0,0.0,0.0,0.0,0.0,0.0,0.0,0.0,0.0,0.0,0.0,0.0,0.0,0.0,0.0,0.0,0.0,0.0,0.0,0.0,0.0,0.0,0.0,0.0,0.0,0.0,4.4246,0.0,4.5131,0.0,4.3655,4.2832,0.0,0.0,0.0,0.0,0.0,0.0,0.0,0.0,0.0,0.0,0.0,0.0,0.0,0.0,0.0,0.0,0.0,0.0,0.0,0.0,0.0,0.0,0.0,0.0,0.0,0.0,0.0,0.0,0.0,0.0,0.0,0.0,0.0,0.0,0.0,0.0,0.0,0.0,0.0,0.0,0.0,0.0,0.0,0.0,0.0,0.0,0.0,0.0,0.0,0.0,0.0,0.0,0.0,0.0,0.0,0.0,0.0,0.0,0.0,0.0,0.0,0.0,0.0,0.0,0.0,0.0,0.0,0.0,0.0,0.0,0.0,0.0,0.0,0.0,0.0,0.0,0.0,0.0,0.0,0.0,0.0,0.0,0.0,0.0,0.0,0.0,0.0,0.0,0.0,0.0,0.0,0.0,0.0,0.0,0.0,0.0,0.0,0.0,0.0,0.0,0.0,0.0,0.0,0.0,0.0,0.0,0.0,0.0,0.0,4.4208,4.4998,4.4671,4.2948,4.3578,4.2832,0.0,0.0,0.0,0.0,0.0,0.0,0.0,0.0,0.0,0.0,0.0,0.0,0.0,0.0,0.0,0.0,0.0,0.0,0.0,0.0,0.0,0.0,0.0,0.0,0.0,0.0,0.0,0.0,0.0,0.0,0.0,0.0,0.0,0.0,0.0,0.0,0.0,0.0,0.0,0.0,0.0,0.0,0.0,0.0,0.0,0.0,0.0,0.0,0.0,0.0,0.0,0.0,0.0,0.0,0.0,0.0,0.0,0.0,0.0,0.0,0.0,0.0,0.0,0.0,0.0,0.0,0.0,0.0,0.0,0.0,0.0,0.0,0.0,0.0,0.0,0.0,0.0,0.0,0.0,0.0,0.0,0.0,0.0,0.0,0.0,0.0,0.0,0.0,0.0,0.0,0.0,0.0,0.0,0.0,0.0,0.0,0.0,0.0,0.0,0.0,0.0,0.0,0.0,0.0,0.0,0.0,0.0,0.0,0.0,4.3273,4.4652,4.5378,4.5298,4.3902,4.3061,0.0,0.0,0.0,0.0,0.0,0.0,0.0,0.0,0.0,0.0,0.0,0.0,0.0,0.0,0.0,0.0,0.0,0.0,0.0,0.0,0.0,0.0,0.0,0.0,0.0,0.0,0.0,0.0,0.0,0.0,0.0,0.0,0.0,0.0,0.0,0.0,0.0,0.0,0.0,0.0,0.0,0.0,0.0,0.0,0.0,0.0,0.0,0.0,0.0,0.0,0.0,0.0,0.0,0.0,0.0,0.0,0.0,0.0,0.0,0.0,0.0,0.0,0.0,0.0,0.0,0.0,0.0,0.0,0.0,0.0,0.0,0.0,0.0,0.0,0.0,0.0,0.0,0.0,0.0,0.0,0.0,0.0,0.0,0.0,0.0,0.0,0.0,0.0,0.0,0.0,0.0,0.0,0.0,0.0,0.0,0.0,0.0,0.0,0.0,0.0,0.0,0.0,0.0,0.0,0.0,0.0,0.0,0.0,0.0,4.3829,4.517,4.5801,4.5646,4.4095,4.3216,4.3043,0.0,0.0,0.0,0.0,0.0,0.0,0.0,0.0,0.0,0.0,0.0,0.0,0.0,0.0,0.0,0.0,0.0,0.0,0.0,0.0,0.0,0.0,0.0,0.0,0.0,0.0,0.0,0.0,0.0,0.0,0.0,0.0,0.0,0.0,0.0,0.0,0.0,0.0,0.0,0.0,0.0,0.0,0.0,0.0,0.0,0.0,0.0,0.0,0.0,0.0,0.0,0.0,0.0,0.0,0.0,0.0,0.0,0.0,0.0,0.0,0.0,0.0,0.0,0.0,0.0,0.0,0.0,0.0,0.0,0.0,0.0,0.0,0.0,0.0,0.0,0.0,0.0,0.0,0.0,0.0,0.0,0.0,0.0,0.0,0.0,0.0,0.0,0.0,0.0,0.0,0.0,0.0,0.0,0.0,0.0,0.0,0.0,0.0,0.0,0.0,0.0,0.0,0.0,0.0,0.0,0.0,0.0,0.0,4.5534,4.6359,4.6052,4.4499,4.425,4.335,0.0,0.0,0.0,0.0,0.0,0.0,0.0,0.0,0.0,0.0,0.0,0.0,0.0,0.0,0.0,0.0,0.0,0.0,0.0,0.0,0.0,0.0,0.0,0.0,0.0,0.0,0.0,0.0,0.0,0.0,0.0,0.0,0.0,0.0,0.0,0.0,0.0,0.0,0.0,0.0,0.0,0.0,0.0,0.0,0.0,0.0,0.0,0.0,0.0,0.0,0.0,0.0,0.0,0.0,0.0,0.0,0.0,0.0,0.0,0.0,0.0,0.0,0.0,0.0,0.0,0.0,0.0,0.0,0.0,0.0,0.0,0.0,0.0,0.0,0.0,0.0,0.0,0.0,0.0,0.0,0.0,0.0,0.0,0.0,0.0,0.0,0.0,0.0,0.0,0.0,0.0,0.0,0.0,0.0,0.0,0.0,0.0,0.0,0.0,0.0,0.0,0.0,0.0,0.0,0.0,0.0,0.0,0.0,0.0,4.6378,4.7261,4.7414,4.6873,4.5112,4.3905,0.0,0.0,0.0,0.0,0.0,0.0,0.0,0.0,0.0,0.0,0.0,0.0,0.0,0.0,0.0,0.0,0.0,0.0,0.0,0.0,0.0,0.0,0.0,0.0,0.0,0.0,0.0,0.0,0.0,0.0,0.0,0.0,0.0,0.0,0.0,0.0,0.0,0.0,0.0,0.0,0.0,0.0,0.0,0.0,0.0,0.0,0.0,0.0,0.0,0.0,0.0,0.0,0.0,0.0,0.0,0.0,0.0,0.0,0.0,0.0,0.0,0.0,0.0,0.0,0.0,0.0,0.0,0.0,0.0,0.0,0.0,0.0,0.0,0.0,0.0,0.0,0.0,0.0,0.0,0.0,0.0,0.0,0.0,0.0,0.0,0.0,0.0,0.0,0.0,0.0,0.0,0.0,0.0,0.0,0.0,0.0,0.0,0.0,0.0,0.0,0.0,0.0,0.0,0.0,0.0,0.0,0.0,0.0,4.4799,4.728,4.7799,4.8125,4.8426,4.6538,4.4985,0.0,0.0,0.0,0.0,0.0,0.0,0.0,0.0,0.0,0.0,0.0,0.0,0.0,0.0,0.0,0.0,0.0,0.0,0.0,0.0,0.0,0.0,0.0,0.0,0.0,0.0,0.0,0.0,0.0,0.0,0.0,0.0,0.0,0.0,0.0,0.0,0.0,0.0,0.0,0.0,0.0,0.0,0.0,0.0,0.0,0.0,0.0,0.0,0.0,0.0,0.0,0.0,0.0,0.0,0.0,0.0,0.0,0.0,0.0,0.0,0.0,0.0,0.0,0.0,0.0,0.0,0.0,0.0,0.0,0.0,0.0,0.0,0.0,0.0,0.0,0.0,0.0,0.0,0.0,0.0,0.0,0.0,0.0,0.0,0.0,0.0,0.0,0.0,0.0,0.0,0.0,0.0,0.0,0.0,0.0,0.0,0.0,0.0,0.0,0.0,0.0,0.0,0.0,0.0,0.0,0.0,0.0,0.0,4.5603,4.8028,4.8126,4.8528,4.9235,4.8014,4.6174,0.0,0.0,0.0,0.0,0.0,0.0,0.0,0.0,0.0,0.0,0.0,0.0,0.0,0.0,0.0,0.0,0.0,0.0,0.0,0.0,0.0,0.0,0.0,0.0,0.0,0.0,0.0,0.0,0.0,0.0,0.0,0.0,0.0,0.0,0.0,0.0,0.0,0.0,0.0,0.0,0.0,0.0,0.0,0.0,0.0,0.0,0.0,0.0,0.0,0.0,0.0,0.0,0.0,0.0,0.0,0.0,0.0,0.0,0.0,0.0,0.0,0.0,0.0,0.0,0.0,0.0,0.0,0.0,0.0,0.0,0.0,0.0,0.0,0.0,0.0,0.0,0.0,0.0,0.0,0.0,0.0,0.0,0.0,0.0,0.0,0.0,0.0,0.0,0.0,0.0,0.0,0.0,0.0,0.0,0.0,0.0,0.0,0.0,0.0,0.0,0.0,0.0,0.0,0.0,0.0,0.0,0.0,0.0,4.624,4.8048,4.8683,4.9391,5.0193,4.7979,4.5802,0.0,0.0,0.0,0.0,0.0,0.0,0.0,0.0,0.0,0.0,0.0,0.0,0.0,0.0,0.0,0.0,0.0,0.0,0.0,0.0,0.0,0.0,0.0,0.0,0.0,0.0,0.0,0.0,0.0,0.0,0.0,0.0,0.0,0.0,0.0,0.0,0.0,0.0,0.0,0.0,0.0,0.0,0.0,0.0,0.0,0.0,0.0,0.0,4.5187,0.0,0.0,0.0,0.0,0.0,0.0,0.0,0.0,0.0,0.0,0.0,0.0,0.0,0.0,0.0,0.0,0.0,0.0,0.0,0.0,0.0,0.0,0.0,0.0,0.0,0.0,0.0,0.0,0.0,0.0,0.0,0.0,0.0,0.0,0.0,0.0,0.0,0.0,0.0,0.0,0.0,0.0,0.0,0.0,0.0,0.0,0.0,0.0,0.0,0.0,0.0,0.0,0.0,0.0,0.0,0.0,0.0,0.0,0.0,4.6855,4.8068,4.8875,4.9719,5.0466,4.8624,4.6449,0.0,0.0,0.0,0.0,0.0,0.0,0.0,0.0,0.0,0.0,0.0,0.0,0.0,0.0,0.0,0.0,0.0,0.0,0.0,0.0,0.0,0.0,0.0,0.0,0.0,0.0,0.0,0.0,0.0,0.0,0.0,0.0,0.0,0.0,0.0,0.0,0.0,0.0,0.0,0.0,0.0,0.0,0.0,0.0,0.0,0.0,0.0,0.0,0.0,0.0,0.0,0.0,0.0,0.0,0.0,0.0,0.0,0.0,0.0,0.0,0.0,0.0,0.0,0.0,0.0,0.0,0.0,0.0,0.0,0.0,0.0,0.0,0.0,0.0,0.0,0.0,0.0,0.0,0.0,0.0,0.0,0.0,0.0,0.0,0.0,0.0,0.0,0.0,0.0,0.0,0.0,0.0,0.0,0.0,0.0,0.0,0.0,0.0,0.0,0.0,0.0,0.0,0.0,0.0,0.0,0.0,0.0,4.574,4.7337,4.826,4.9106,4.9854,5.0545,4.921,4.7212,4.4605,0.0,0.0,0.0,0.0,0.0,0.0,0.0,0.0,0.0,0.0,0.0,0.0,0.0,0.0,0.0,0.0,0.0,0.0,0.0,0.0,0.0,0.0,0.0,0.0,0.0,0.0,0.0,0.0,0.0,0.0,0.0,0.0,0.0,0.0,0.0,0.0,0.0,0.0,4.1956,4.4268,0.0,0.0,0.0,0.0,0.0,0.0,0.0,0.0,4.4783,0.0,0.0,0.0,0.0,0.0,0.0,0.0,0.0,0.0,0.0,0.0,0.0,0.0,0.0,0.0,0.0,0.0,0.0,0.0,0.0,0.0,0.0,0.0,0.0,0.0,0.0,0.0,0.0,0.0,0.0,0.0,0.0,0.0,0.0,0.0,0.0,0.0,0.0,0.0,0.0,0.0,0.0,0.0,0.0,0.0,0.0,0.0,0.0,0.0,0.0,0.0,0.0,0.0,0.0,0.0,0.0,4.5163,4.6317,4.7663,4.9163,5.001,5.0509,5.0525,4.8504,4.649,4.4648,0.0,0.0,0.0,0.0,0.0,0.0,0.0,0.0,0.0,0.0,0.0,0.0,0.0,0.0,0.0,0.0,0.0,0.0,0.0,0.0,0.0,0.0,0.0,0.0,0.0,0.0,0.0,0.0,0.0,0.0,0.0,0.0,0.0,0.0,0.0,0.0,0.0,0.0,0.0,4.5993,4.625,0.0,0.0,0.0,0.0,0.0,0.0,0.0,0.0,4.5002,0.0,0.0,0.0,0.0,0.0,0.0,0.0,0.0,0.0,0.0,0.0,0.0,0.0,0.0,0.0,0.0,0.0,0.0,0.0,0.0,0.0,0.0,0.0,0.0,0.0,0.0,0.0,0.0,0.0,0.0,0.0,0.0,0.0,0.0,0.0,0.0,0.0,0.0,0.0,0.0,0.0,0.0,0.0,0.0,0.0,0.0,0.0,0.0,0.0,0.0,0.0,0.0,0.0,0.0,0.0,4.4932,4.6624,4.8125,4.9356,5.024,5.0702,5.0624,4.8351,4.6312,0.0,0.0,0.0,0.0,0.0,0.0,0.0,0.0,0.0,0.0,0.0,0.0,0.0,0.0,0.0,0.0,0.0,0.0,0.0,0.0,0.0,0.0,0.0,0.0,0.0,0.0,0.0,0.0,0.0,0.0,0.0,0.0,0.0,0.0,0.0,0.0,0.0,0.0,0.0,0.0,4.6801,4.6985,4.8233,0.0,0.0,0.0,0.0,0.0,0.0,4.4966,4.4856,0.0,0.0,0.0,0.0,0.0,0.0,0.0,0.0,0.0,0.0,0.0,0.0,0.0,0.0,0.0,0.0,0.0,0.0,0.0,0.0,0.0,0.0,0.0,0.0,0.0,0.0,0.0,0.0,0.0,0.0,0.0,0.0,0.0,0.0,0.0,0.0,0.0,0.0,0.0,0.0,0.0,0.0,0.0,0.0,0.0,0.0,0.0,0.0,0.0,0.0,0.0,0.0,0.0,0.0,0.0,4.4586,4.674,4.8471,4.9625,5.0317,5.0702,5.0664,4.8424,4.6391,0.0,0.0,0.0,0.0,0.0,0.0,0.0,0.0,0.0,0.0,0.0,0.0,0.0,0.0,0.0,0.0,0.0,0.0,0.0,0.0,0.0,0.0,0.0,0.0,0.0,0.0,0.0,0.0,0.0,0.0,0.0,0.0,0.0,0.0,0.0,0.0,0.0,0.0,0.0,0.0,0.0,4.7939,4.871,4.7865,0.0,0.0,0.0,0.0,4.5186,4.548,0.0,0.0,0.0,0.0,0.0,0.0,0.0,0.0,0.0,0.0,0.0,0.0,0.0,0.0,0.0,0.0,0.0,0.0,0.0,0.0,0.0,0.0,0.0,0.0,0.0,0.0,0.0,0.0,0.0,0.0,0.0,0.0,0.0,0.0,0.0,0.0,0.0,0.0,0.0,0.0,0.0,0.0,0.0,0.0,0.0,0.0,0.0,0.0,0.0,0.0,0.0,0.0,0.0,0.0,0.0,0.0,4.5393,4.6509,4.8202,5.0394,5.0625,5.0702,5.0664,4.8586,4.6567,0.0,0.0,0.0,0.0,0.0,0.0,0.0,0.0,0.0,0.0,0.0,0.0,0.0,0.0,0.0,0.0,0.0,0.0,0.0,0.0,0.0,0.0,0.0,0.0,0.0,0.0,0.0,0.0,0.0,0.0,0.0,0.0,0.0,0.0,0.0,0.0,0.0,0.0,0.0,0.0,0.0,4.8563,4.6581,4.6764,4.6838,0.0,0.0,4.6838,4.6838,4.8086,0.0,0.0,0.0,0.0,0.0,0.0,0.0,0.0,0.0,0.0,0.0,0.0,0.0,0.0,0.0,0.0,0.0,0.0,0.0,0.0,0.0,0.0,0.0,0.0,0.0,0.0,0.0,0.0,0.0,0.0,0.0,0.0,0.0,0.0,0.0,0.0,0.0,0.0,0.0,0.0,0.0,0.0,0.0,0.0,0.0,0.0,0.0,0.0,0.0,0.0,0.0,0.0,0.0,0.0,0.0,4.3278,4.4855,4.6663,4.8586,5.0587,5.0702,5.0702,5.0664,4.8231,4.5978,0.0,0.0,0.0,0.0,0.0,0.0,0.0,0.0,0.0,0.0,0.0,0.0,0.0,0.0,0.0,0.0,0.0,0.0,0.0,0.0,0.0,0.0,0.0,0.0,0.0,0.0,0.0,0.0,0.0,0.0,0.0,0.0,0.0,0.0,0.0,0.0,0.0,0.0,0.0,0.0,0.0,0.0,4.7976,4.7865,0.0,0.0,0.0,4.7094,4.7094,0.0,0.0,0.0,0.0,0.0,0.0,0.0,0.0,0.0,0.0,0.0,0.0,0.0,0.0,0.0,0.0,0.0,0.0,0.0,0.0,0.0,0.0,0.0,0.0,0.0,0.0,0.0,0.0,0.0,0.0,0.0,0.0,0.0,0.0,0.0,0.0,0.0,0.0,0.0,0.0,0.0,0.0,0.0,0.0,0.0,0.0,0.0,0.0,0.0,0.0,0.0,0.0,0.0,0.0,0.0,0.0,0.0,4.4316,4.6817,4.8971,5.0625,5.0702,5.0702,5.0625,4.8179,0.0,0.0,0.0,0.0,0.0,0.0,0.0,0.0,0.0,0.0,0.0,0.0,0.0,0.0,0.0,0.0,0.0,0.0,0.0,0.0,0.0,0.0,0.0,0.0,0.0,0.0,0.0,0.0,0.0,0.0,0.0,0.0,0.0,0.0,0.0,0.0,0.0,0.0,0.0,0.0,0.0,0.0,4.7719,4.8526,4.8636,4.871,0.0,0.0,4.7792,4.8012,4.8893,4.8783,0.0,0.0,0.0,0.0,0.0,0.0,0.0,0.0,0.0,0.0,0.0,0.0,0.0,0.0,0.0,0.0,0.0,0.0,0.0,0.0,0.0,0.0,0.0,0.0,0.0,0.0,0.0,0.0,0.0,0.0,0.0,0.0,0.0,0.0,0.0,0.0,0.0,0.0,0.0,0.0,0.0,0.0,0.0,0.0,0.0,0.0,0.0,0.0,0.0,0.0,0.0,0.0,0.0,0.0,0.0,4.4355,4.6817,4.8933,5.0625,5.0702,5.0702,5.0664,4.8952,4.6925,0.0,0.0,0.0,0.0,0.0,0.0,0.0,0.0,0.0,0.0,0.0,0.0,0.0,0.0,0.0,0.0,0.0,0.0,0.0,0.0,0.0,0.0,0.0,0.0,0.0,0.0,0.0,0.0,0.0,0.0,0.0,0.0,0.0,0.0,0.0,0.0,0.0,0.0,0.0,0.0,0.0,4.7719,4.6361,4.8049,4.9738,0.0,0.0,4.9701,5.0435,5.183,5.1573,4.7682,0.0,0.0,0.0,0.0,0.0,0.0,0.0,0.0,0.0,0.0,0.0,0.0,0.0,0.0,0.0,0.0,0.0,0.0,0.0,0.0,0.0,0.0,0.0,0.0,0.0,0.0,0.0,0.0,0.0,0.0,0.0,0.0,0.0,0.0,0.0,0.0,0.0,0.0,0.0,0.0,0.0,0.0,0.0,0.0,0.0,0.0,0.0,0.0,0.0,0.0,0.0,0.0,0.0,4.3239,4.3585,4.6547,4.8933,5.0625,5.0702,5.0702,5.0702,4.899,4.6835,0.0,0.0,0.0,0.0,0.0,0.0,0.0,0.0,0.0,0.0,0.0,0.0,0.0,0.0,0.0,0.0,0.0,0.0,0.0,0.0,0.0,0.0,0.0,0.0,0.0,0.0,0.0,0.0,3.716,3.8016,3.8962,0.0,0.0,0.0,0.0,0.0,0.0,0.0,0.0,0.0,0.0,4.7794,4.8162,4.9446,0.0,0.0,5.0545,5.0618,5.1426,5.1646,5.0839,4.8269,4.7021,0.0,0.0,0.0,0.0,0.0,0.0,0.0,0.0,0.0,0.0,0.0,0.0,0.0,0.0,0.0,0.0,0.0,0.0,0.0,0.0,0.0,0.0,0.0,0.0,0.0,0.0,0.0,0.0,0.0,0.0,0.0,0.0,0.0,0.0,0.0,0.0,0.0,0.0,0.0,0.0,0.0,0.0,0.0,0.0,0.0,0.0,0.0,0.0,0.0,0.0,0.0,0.0,4.3085,4.3124,4.6394,4.8817,5.0279,5.0548,5.0702,5.0664,4.9182,4.7099,0.0,0.0,0.0,0.0,0.0,0.0,0.0,0.0,0.0,0.0,0.0,0.0,0.0,0.0,0.0,0.0,0.0,0.0,0.0,0.0,0.0,0.0,0.0,0.0,0.0,0.0,0.0,0.0,3.8173,3.9061,3.9692,0.0,0.0,0.0,0.0,0.0,0.0,0.0,0.0,0.0,0.0,4.809,4.927,5.0225,5.0802,5.0802,5.0582,5.0618,5.1169,5.1022,5.0178,4.8269,0.0,0.0,0.0,0.0,0.0,0.0,0.0,0.0,0.0,0.0,0.0,0.0,0.0,0.0,0.0,0.0,0.0,0.0,0.0,0.0,0.0,0.0,0.0,0.0,0.0,0.0,0.0,0.0,0.0,0.0,4.0485,0.0,0.0,0.0,0.0,0.0,0.0,0.0,0.0,0.0,0.0,0.0,0.0,0.0,0.0,0.0,0.0,0.0,0.0,0.0,0.0,0.0,0.0,0.0,4.3162,4.6394,4.8509,4.9433,5.024,5.0664,5.0664,4.9614,4.8029,4.5912,0.0,0.0,0.0,0.0,0.0,0.0,0.0,0.0,0.0,0.0,0.0,0.0,0.0,0.0,0.0,0.0,0.0,0.0,0.0,0.0,0.0,0.0,0.0,0.0,0.0,0.0,3.7263,3.7659,3.8024,0.0,0.0,0.0,0.0,0.0,0.0,0.0,0.0,0.0,0.0,4.6866,4.8569,4.8885,5.0009,5.0802,5.0839,5.0178,4.9703,4.9738,5.0288,4.9958,0.0,0.0,0.0,0.0,0.0,0.0,0.0,0.0,0.0,0.0,0.0,0.0,0.0,0.0,0.0,0.0,0.0,0.0,0.0,0.0,0.0,0.0,0.0,0.0,0.0,0.0,0.0,4.02,3.97,0.0,0.0,0.0,0.0,0.0,0.0,0.0,0.0,0.0,0.0,0.0,4.1354,4.1354,0.0,0.0,0.0,0.0,0.0,0.0,0.0,0.0,0.0,0.0,0.0,0.0,4.3085,4.3239,4.5855,4.7971,4.9356,4.9663,5.0087,5.0664,4.9592,4.7148,4.3348,0.0,0.0,0.0,0.0,0.0,0.0,0.0,0.0,0.0,0.0,0.0,0.0,0.0,0.0,0.0,0.0,0.0,0.0,0.0,0.0,0.0,0.0,0.0,0.0,0.0,3.8693,0.0,0.0,0.0,0.0,0.0,0.0,0.0,0.0,0.0,0.0,0.0,4.3276,4.4829,4.6667,4.812,4.8841,5.0047,5.1029,0.0,0.0,0.0,0.0,0.0,0.0,0.0,0.0,0.0,0.0,0.0,0.0,0.0,0.0,4.6728,4.3975,4.3722,4.3724,4.3169,0.0,0.0,0.0,0.0,0.0,0.0,0.0,0.0,0.0,0.0,0.0,0.0,0.0,0.0,4.0392,0.0,4.0162,0.0,0.0,0.0,0.0,0.0,0.0,0.0,0.0,4.2547,4.2547,4.2277,4.2239,4.2277,0.0,4.2547,4.197,0.0,0.0,0.0,0.0,0.0,0.0,0.0,0.0,4.3085,4.3201,4.5586,4.7586,4.8894,4.924,4.9817,5.0625,4.9526,4.691,4.2782,4.1059,3.887,0.0,0.0,0.0,0.0,0.0,0.0,0.0,0.0,0.0,0.0,0.0,0.0,0.0,0.0,0.0,0.0,0.0,0.0,0.0,0.0,0.0,0.0,0.0,3.9233,0.0,0.0,0.0,0.0,0.0,0.0,0.0,0.0,0.0,4.2112,4.3398,4.4887,4.6487,4.7975,4.899,4.9209,0.0,0.0,0.0,0.0,0.0,0.0,0.0,4.9082,4.8822,4.8783,4.871,4.8453,4.86,4.8673,4.8343,0.0,0.0,4.6104,4.603,4.6249,4.5736,4.581,4.5957,4.5957,4.5736,4.5553,0.0,0.0,0.0,0.0,0.0,0.0,0.0,0.0,4.0585,4.1046,0.0,4.17,0.0,0.0,0.0,0.0,0.0,0.0,0.0,0.0,4.3893,4.3893,4.3239,4.3201,4.3201,4.3201,4.397,4.3893,4.3085,4.2277,0.0,0.0,0.0,0.0,0.0,0.0,4.3085,4.3162,4.5547,4.724,4.8048,4.8894,4.9779,5.0606,4.9349,4.7246,4.4458,4.3212,4.1083,3.7801,3.7627,0.0,0.0,0.0,0.0,0.0,0.0,0.0,0.0,0.0,0.0,0.0,0.0,0.0,0.0,0.0,0.0,0.0,0.0,0.0,0.0,3.8654,0.0,0.0,0.0,0.0,0.0,0.0,0.0,0.0,0.0,0.0,4.4115,4.5392,4.7138,4.901,0.0,0.0,0.0,0.0,5.0593,4.9894,4.9709,4.9671,4.9667,5.0254,5.0478,4.9738,0.0,0.0,5.0986,5.0178,4.937,4.8563,4.9077,4.9591,4.9481,4.9334,4.9407,4.9297,4.8636,4.8306,4.8269,4.7572,4.7095,4.3816,0.0,0.0,0.0,0.0,4.2354,4.2354,4.2354,4.2354,4.2124,4.1777,4.1123,0.0,0.0,0.0,0.0,0.0,0.0,4.3393,4.397,4.4201,4.4509,4.4855,4.4893,4.4893,4.4893,4.5124,4.4778,4.397,4.3701,4.2739,4.1085,0.0,0.0,0.0,0.0,4.3085,4.3201,4.5009,4.6394,4.724,4.8048,4.9086,5.032,4.9213,4.7813,4.6098,4.4952,4.3033,4.0283,4.0111,0.0,0.0,0.0,0.0,0.0,0.0,0.0,0.0,0.0,0.0,0.0,0.0,0.0,0.0,0.0,0.0,0.0,0.0,0.0,3.8835,3.8702,3.8747,0.0,0.0,0.0,0.0,0.0,0.0,0.0,0.0,0.0,4.5898,4.6299,4.6967,0.0,0.0,4.8995,4.8768,4.9542,5.0228,5.052,0.0,0.0,0.0,5.0529,5.0085,5.0395,5.1316,5.2087,5.2454,5.1389,5.0362,5.0105,4.9811,4.9591,4.9591,4.9591,4.937,4.882,4.8453,4.8526,4.904,4.8563,4.8159,4.5509,4.4509,4.3547,4.3085,4.3085,4.3085,4.3085,4.3085,4.3085,4.3008,4.2777,4.2239,4.1816,4.147,4.0662,0.0,0.0,0.0,4.4008,4.4816,4.4816,4.5086,4.5586,4.5586,4.5586,4.5586,4.5586,4.5316,4.4816,4.447,4.3778,4.2777,0.0,0.0,4.1046,4.2393,4.3278,4.3624,4.4893,4.6009,4.6894,4.8009,4.9182,5.0303,4.9518,4.8548,4.7466,4.6504,4.4952,4.2783,4.1977,4.0993,0.0,0.0,0.0,0.0,0.0,0.0,0.0,0.0,0.0,0.0,0.0,3.6523,0.0,0.0,0.0,0.0,3.6997,3.8298,3.9682,3.9399,0.0,0.0,0.0,0.0,0.0,0.0,0.0,4.4537,4.5071,4.5991,4.7663,4.7453,4.7606,4.8952,4.9213,4.9202,4.9002,0.0,5.0488,5.089,5.1143,5.154,5.2344,5.1627,5.1219,5.1678,5.1867,5.2123,5.2564,5.1389,5.0362,5.0215,4.9627,4.9077,4.9077,4.9077,4.9224,4.926,4.904,4.9003,4.9481,4.8893,4.8489,4.6971,4.6701,4.4316,4.3316,4.3316,4.3316,4.3316,4.3278,4.3316,4.3701,4.4393,4.4316,4.3855,4.3047,4.2354,0.0,0.0,4.4393,4.4816,4.5586,4.5586,4.5586,4.5586,4.5586,4.5586,4.5586,4.5586,4.5586,4.5547,4.4778,4.4355,4.4278,4.2777,4.197,4.197,4.2777,4.3547,4.4278,4.5163,4.6047,4.7009,4.8509,4.974,5.0664,5.0111,4.9359,4.8548,4.7863,4.676,4.5144,4.3426,4.2114,4.1302,0.0,0.0,0.0,0.0,0.0,0.0,0.0,0.0,0.0,0.0,0.0,0.0,0.0,0.0,0.0,3.7034,0.0,4.0234,4.0383,0.0,0.0,0.0,4.1418,4.1217,4.3369,4.5006,4.526,0.0,0.0,0.0,0.0,4.8721,5.0413,5.0822,5.0647,4.989,5.043,5.1006,5.108,5.1627,5.2279,5.2968,5.3036,5.2962,5.2894,5.2491,5.2013,5.183,5.0692,4.9701,4.9627,4.8893,4.8343,4.8343,4.8379,4.8783,5.0178,4.9921,4.9444,4.937,4.882,4.8343,4.7471,4.6778,4.5509,4.5009,4.5009,4.5009,4.5009,4.5009,4.5009,4.5124,4.524,4.4586,4.3855,4.3124,4.3508,4.3932,4.4316,4.497,4.5393,4.5586,4.5586,4.5586,4.5586,4.5586,4.5586,4.5586,4.5586,4.5586,4.5586,4.5393,4.497,4.4278,4.3893,4.3393,4.2854,4.3585,4.4085,4.4278,4.5163,4.6317,4.7778,4.8202,4.9163,5.0625,5.0149,4.969,4.9473,4.8824,4.7938,4.6834,4.5187,4.3835,4.2913,3.9669,0.0,0.0,0.0,0.0,0.0,0.0,0.0,0.0,0.0,3.5569,3.3917,0.0,3.4475,0.0,3.8312,3.9814,4.0222,4.0259,0.0,0.0,4.1282,4.1716,4.4168,4.4749,4.5213,4.602,4.6424,4.7044,4.8298,4.8066,4.8422,5.0046,5.0165,4.9948,4.9566,4.9918,5.049,5.1043,5.1695,5.2375,5.3041,5.3225,5.3004,5.238,5.2123,5.1793,5.1169,5.0251,4.9591,4.9517,4.8893,4.8379,4.8306,4.8306,4.8416,4.882,4.8746,4.86,4.86,4.8453,4.8306,4.7511,4.6799,4.5841,4.5475,4.5586,4.5586,4.5586,4.5586,4.5586,4.5586,4.5547,4.5086,4.4624,4.4239,4.4662,4.4855,4.4932,4.5393,4.5586,4.5586,4.5586,4.5586,4.5586,4.5586,4.5586,4.5586,4.5586,4.5586,4.5586,4.5586,4.5355,4.4893,4.4855,4.4662,4.4239,4.4278,4.447,4.4893,4.574,4.6817,4.8048,4.8471,4.9087,4.9869,4.9504,4.9029,4.8513,4.7975,4.7455,4.687,4.5589,4.4453,4.3504,4.1042,3.9301,0.0,0.0,0.0,0.0,0.0,0.0,0.0,0.0,0.0,0.0,0.0,3.5634,0.0,0.0,0.0,4.129,4.1364,4.2032,4.3664,4.3101,4.3543,4.5931,4.5946,4.6049,4.671,4.6534,4.6815,4.8113,4.7838,4.8085,4.9629,4.9693,4.9588,4.9452,4.9735,5.0269,5.1007,5.1728,5.2401,5.3109,5.3225,5.2931,5.216,5.1683,5.1206,5.0398,4.9591,4.9003,4.8967,4.8636,4.8306,4.8306,4.8306,4.8306,4.8306,4.8306,4.8306,4.8306,4.8306,4.8306,4.7291,4.6686,4.5625,4.5283,4.555,4.555,4.5568,4.5586,4.5586,4.5586,4.5586,4.5586,4.5586,4.5586,4.5586,4.5586,4.5586,4.5586,4.5586,4.5586,4.5586,4.5586,4.5586,4.5586,4.5586,4.5586,4.5586,4.5586,4.5586,4.5586,4.5586,4.5586,4.5586,4.5586,4.5547,4.4855,4.4855,4.5586,4.6432,4.7317,4.8086,4.8933,4.9278,4.9051,4.877,4.8094,4.7024,4.6531,4.6271,4.6168,4.5334,4.449,4.3725,4.2702,4.1522,0.0,3.9197,0.0,0.0,0.0,0.0,0.0,0.0,0.0,0.0,3.6657,3.7405,3.8899,4.0044,4.1245,4.2656,4.2983,4.3658,4.5101,4.5398,4.5823,4.6705,4.6869,4.6958,4.7074,4.6455,4.6656,4.8126,4.7727,4.7786,4.9168,4.9446,4.9377,4.9396,4.9589,5.012,5.1046,5.1919,5.2669,5.3188,5.3261,5.2931,5.2123,5.1499,5.0655,4.9774,4.904,4.8526,4.8526,4.8563,4.8524,4.8522,4.8595,4.8561,4.8446,4.8449,4.8489,4.8343,4.8306,4.8306,4.6934,4.6183,4.5238,4.5011,4.5301,4.5263,4.54,4.5586,4.5586,4.5586,4.5586,4.5586,4.5586,4.5586,4.5586,4.5586,4.5586,4.5586,4.5586,4.5586,4.5586,4.5586,4.5586,4.5586,4.5586,4.5586,4.5586,4.5586,4.5586,4.5586,4.5586,4.5586,4.5586,4.5586,0.0,0.0,0.0,0.0,4.6471,4.7317,4.8086,4.8971,4.9375,4.9298,4.8867,0.0,4.7273,4.6719,4.6409,4.6271,4.5436,0.0,0.0,0.0,0.0,0.0,0.0,0.0,0.0,0.0,0.0,0.0,3.9412,3.8743,3.747,3.8486,3.946,3.9875,4.1243,4.2279,4.2674,4.3929,4.4781,4.5115,4.5811,4.6359,4.6573,4.6749,4.6656,4.6005,4.58,4.6214,4.7325,4.7194,4.7596,4.9114,4.9415,4.9289,4.9064,4.9148,4.9674,5.0935,5.2257,5.3125,5.3261,5.3261,5.2931,5.2197,5.1903,5.1206,4.9921,4.9517,4.9334,4.9334,4.9334,4.9435,4.9653,5.0003,4.9874,4.8847,4.9021,4.9114,4.8453,4.8343,4.8306,4.61,0.0,4.4839,4.4751,0.0,4.5026,4.5094,4.5222,4.5475,4.5586,4.5586,4.5586,4.5586,4.5586,4.5586,4.5586,4.5586,4.5586,4.5586,4.5586,4.5586,4.5586,4.5586,4.5586,4.5586,4.5586,4.5586,4.5586,4.5586,4.5586,4.5586,4.5586,4.5586,4.5586,4.5586,4.5586,4.5586,4.5586,4.6855,4.7702,4.8125,4.9394,4.9548,4.8583,0.0,0.0,0.0,0.0,0.0,0.0,0.0,0.0,0.0,0.0,0.0,4.226,4.1119,4.0487,4.0451,4.012,4.0047,4.0451,4.0914,4.0657,3.9454,4.011,4.0793,4.1298,4.2137,4.2791,4.3299,4.448,4.5185,4.5222,4.596,4.6513,4.6508,4.6265,4.5947,4.5574,4.5462,4.5859,4.678,4.7168,4.7778,4.8936,4.916,4.9243,4.9445,4.9485,5.0043,5.164,5.2786,5.3437,5.3377,5.3304,5.2973,5.2238,5.1977,5.1499,5.0398,5.0178,5.0178,5.0178,5.0178,5.0244,5.0373,5.0602,5.0574,5.0008,4.998,5.0068,4.9554,4.8893,4.8306,4.5255,4.4624,4.4411,4.4493,4.4726,4.4726,4.4751,4.4825,0.0,0.0,0.0,4.5586,4.5586,4.5586,4.5586,4.5586,4.5586,4.5586,4.5586,4.5586,4.5586,4.5586,4.5586,4.5586,4.5586,4.5586,4.5586,4.5586,4.5586,4.5586,4.5586,4.5586,4.5586,4.5586,4.5586,4.5586,4.5586,4.5663,4.724,4.8086,4.8163,4.9817,4.9816,4.8056,4.7691,4.6694,4.502,4.461,4.4438,4.4374,4.4289,4.4193,4.4076,4.4007,4.3903,4.3761,4.3175,4.2807,4.2807,4.2187,4.1889,4.1956,4.2643,4.2643,4.1699,4.165,4.2009,4.2783,4.2876,4.3225,4.3949,4.4766,4.5287,4.5287,4.5992,4.6438,4.629,4.5881,4.5547,4.5333,4.5472,4.5807,4.6661,4.7326,4.7999,4.8704,4.8925,4.9299,5.0116,5.0488,5.1045,5.2307,5.3161,5.3632,5.3543,5.3387,5.3019,5.2422,5.2275,5.1903,5.1279,5.1022,5.1022,5.1022,5.1022,5.1055,5.1083,5.1234,5.1128,5.09,5.0982,5.0986,5.0729,4.9591,4.8636,4.4861,4.4109,4.4079,4.4192,4.4438,4.4438,4.4599,4.4825,4.5099,4.54,4.5586,4.5586,4.5586,4.5586,4.5586,4.5586,4.5586,4.5586,4.5586,0.0,4.5586,4.5586,4.5586,4.5586,4.5586,4.5586,4.5586,4.5586,4.5586,4.5586,4.5586,4.5586,4.5586,4.5586,4.5586,4.5586,4.5586,4.5624,4.724,4.8086,4.8125,4.9817,5.024,4.9221,4.8677,4.7946,4.6947,4.6375,4.6141,4.6141,4.6025,4.5918,4.5819,4.5729,4.5515,4.5018,4.4863,4.4805,4.4769,4.4696,4.4816,4.5331,4.5512,4.4961,4.3569,4.3446,4.3513,4.373,4.3684,4.3781,4.4061,4.4804,4.5287,4.5324,4.5992,4.6215,4.5621,4.5992,4.6062,4.5462,4.5913,4.6591,4.7336,4.763,4.8036,4.8704,4.9076,4.9522,5.0896,5.1825,5.2271,5.2642,5.3236,5.3641,5.3639,5.3481,5.3244,5.313,5.301,5.2711,5.1977,5.183,5.183,5.183,5.1789,5.1883,5.2053,5.2565,5.2242,5.1522,5.1548,5.1573,5.0986,5.0031,4.937,4.4358,4.4023,4.4023,4.4079,4.4162,4.4162,4.4336,4.4572,4.4726,4.4919,4.518,4.5303,4.54,4.54,4.555,4.5586,4.5586,4.5586,4.5586,4.5586,4.5586,4.5586,4.5586,4.5586,4.5586,4.5586,4.5586,4.5586,4.5586,4.5586,4.5586,4.5586,4.5586,4.5586,4.5586,4.5586,4.5586,4.5642,4.724,4.8086,4.8106,4.9817,5.0279,4.9394,4.8891,4.82,4.734,4.6787,4.6513,4.6513,4.6401,4.6257,4.6257,4.5883,4.5562,4.5276,4.4986,4.4827,4.4827,4.5034,4.5251,4.5403,4.5436,4.5029,4.3925,4.4214,4.4461,4.4517,4.4188,4.3929,4.4023,4.4766,4.5101,4.4618,4.5695,4.6141,4.5547,4.5992,4.6359,4.6099,4.6657,4.7296,4.7636,4.8076,4.8444,4.8927,4.9559,5.0711,5.1862,5.2717,5.3237,5.3274,5.3533,5.3719,5.3682,5.3524,5.34,5.3318,5.3272,5.3041,5.2674,5.2637,5.2637,5.2595,5.2432,5.2404,5.2725,5.2761,5.2579,5.2535,5.2029,5.183,5.1426,5.0512,4.9559,4.4098,4.4283,4.4061,4.4098,4.4321,4.4501,4.4617,4.4636,4.4627,4.4654,4.4714,4.4966,4.5159,4.5222,4.5419,4.555,4.5586,4.5586,4.5586,4.5586,4.5586,4.5586,4.5586,4.5586,4.5586,4.5586,4.5586,4.5586,4.5586,4.5586,4.5586,4.5586,4.5586,4.5586,4.5586,4.5586,4.5719,4.5988,4.7355,4.8106,4.8145,4.9779,5.0356,4.9721,4.9158,4.8579,4.7882,4.7311,4.7033,4.7033,4.6928,4.6891,4.6851,4.6285,4.5845,4.5669,4.523,4.4929,4.4974,4.5408,4.5645,4.5553,4.5659,4.5542,4.5057,4.5349,4.5342,4.491,4.4438,4.4294,4.4432,4.5101,4.5287,4.4729,4.5695,4.6252,4.5732,4.629,4.6735,4.6843,4.7478,4.7964,4.8078,4.8521,4.8964,4.9373,5.0636,5.1862,5.2531,5.3274,5.3757,5.3794,5.3794,5.3794,5.3719,5.3639,5.3481,5.3359,5.3277,5.3193,5.3151,5.3188,5.3188,5.3109,5.2857,5.2688,5.2893,5.2717,5.2481,5.2485,5.2096,5.1705,5.1279,5.0478,4.9524,4.4469,4.4989,4.4321,4.4469,4.5244,4.5978,4.5898,4.5363,4.5387,4.4969,4.4486,4.4688,4.5004,4.518,4.5222,4.5381,4.5586,4.5586,4.5586,4.5624,4.5586,4.5586,4.5624,4.5624,4.5586,4.5586,4.5586,4.5586,4.5586,4.5586,4.5586,4.5586,4.5586,4.5586,4.5586,4.5586,4.5988,4.6775,4.7681,4.8086,4.8183,4.9817,5.0664,5.0587,4.9997,4.9652,4.9462,4.8958,4.8667,4.8667,4.863,4.863,4.8486,4.8088,4.7522,4.6879,4.6414,4.6247,4.6318,4.6802,4.7175,4.7664,4.7716,4.7832,4.7898,4.7593,4.6438,4.4878,4.4804,4.5138,4.5212,4.5881,4.6252,4.6104,4.6364,4.6475,4.6513,4.7107,4.7586,4.7616,4.8255,4.8779,4.8707,4.889,4.9299,5.0116,5.1379,5.2457,5.2754,5.3311,5.3794,5.3794,5.3794,5.3794,5.3756,5.3716,5.3598,5.3481,5.3359,5.3314,5.323,5.3188,5.3225,5.3188,5.3103,5.2893,5.2599,5.2371,5.2118,5.1574,5.1266,5.0962,5.0131,4.9745,4.9489,4.4661,4.5333,4.4512,4.4661,4.5482,4.6296,4.6545,4.6314,4.6307,4.5881,4.5302,4.581,4.5696,4.4995,4.5159,4.5323,4.5475,4.5568,4.5893,4.6278,4.5855,4.5855,4.6278,4.5817,4.5586,4.5586,4.5438,4.5438,4.5568,4.5586,4.5586,4.5586,4.5586,4.5586,4.5642,4.6124,4.6547,4.6912,4.8202,4.8894,4.899,5.0048,5.0702,5.0624,5.0111,4.9803,4.9749,4.922,4.889,4.889,4.889,4.889,4.8853,4.8383,4.7832,4.7237,4.6475,4.6154,4.6411,4.6788,4.7024,4.7296,4.7494,4.75,4.7272,4.7073,4.6475,4.5782,4.5774,4.5988,4.603,4.6327,4.6513,4.655,4.6921,4.7218,4.7218,4.7924,4.8407,4.8441,4.8667,4.889,4.8964,4.9373,5.019,5.1305,5.2308,5.2717,5.3237,5.3608,5.3757,5.3794,5.3794,5.3794,5.3831,5.3716,5.3714,5.3635,5.3518,5.34,5.3396,5.3396,5.3355,5.3277,5.3066,5.2718,5.2266,5.1535,5.1036,5.0533,4.9947,4.961,4.904,4.9048,4.9086,4.4811,4.5447,4.511,4.5335,4.6008,4.7049,4.741,4.7282,4.7312,4.6853,4.6205,4.6798,4.6355,4.5294,4.5437,4.5513,4.5477,4.5547,4.5928,4.6467,4.589,4.6082,4.6758,4.6026,4.5873,4.6145,4.5918,4.5918,4.624,4.6278,4.6278,4.6278,4.6278,4.6278,4.6355,4.6971,4.7355,4.7702,4.8817,4.951,4.9798,5.0394,5.0644,5.0525,5.0062,4.9776,4.9665,4.9188,4.889,4.889,4.889,4.889,4.8855,4.8421,4.7886,4.724,4.6385,4.6005,4.6363,4.6554,4.6722,4.6907,4.7156,4.7205,4.6945,4.704,4.7181,4.7157,4.7148,4.7103,4.6847,4.7033,4.7144,4.7181,4.7701,4.8036,4.8073,4.8593,4.8853,4.889,4.8853,4.9039,4.9336,5.019,5.1342,5.2308,5.2754,5.3088,5.3645,5.3794,5.3794,5.3794,5.3794,5.3794,5.3794,5.3754,5.3753,5.3714,5.3598,5.3558,5.3481,5.3481,5.3481,5.3318,5.295,5.2623,5.228,5.1416,5.0295,4.9651,4.9108,4.8743,4.8524,4.8569,4.8679,4.4956,4.5781,4.6494,4.6832,4.7087,4.8716,4.8972,4.8257,4.8315,4.7881,4.7202,4.724,4.6803,4.6114,4.6306,4.6007,4.5552,4.5731,4.5935,4.605,4.5857,4.615,4.681,4.6116,4.6523,4.7625,4.7088,4.7126,4.7798,4.7932,4.8009,4.7932,4.7855,4.7932,4.7894,4.7971,4.8471,4.9067,4.9394,4.9779,5.051,5.0664,5.0602,5.0306,4.9962,4.9703,4.9446,4.9131,4.8927,4.8927,4.9002,4.8964,4.893,4.8606,4.7943,4.6952,4.6337,4.6154,4.635,4.6411,4.666,4.7212,4.7643,4.8007,4.8052,4.834,4.8556,4.8707,4.8593,4.8333,4.785,4.8147,4.8556,4.863,4.8742,4.8779,4.8779,4.8816,4.889,4.8964,4.9076,4.9485,5.0079,5.1491,5.2234,5.2754,5.3274,5.3757,5.3757,5.3794,5.3794,5.3794,5.3794,5.3794,5.3794,5.3793,5.3754,5.3716,5.3714,5.3674,5.3558,5.3481,5.3481,5.3481,5.34,5.3078,5.2535,5.1656,5.0435,4.9595,4.888,4.8425,4.8748,4.8716,4.8788,4.5913,4.6779,4.8135,4.8399,4.8022,4.9144,4.9504,4.9268,4.9297,4.8861,4.8321,4.8662,4.8275,4.7134,4.7876,4.7384,4.6178,4.695,4.7576,4.7892,4.7576,4.7802,4.8441,4.7747,4.7615,4.8007,4.7703,4.7586,4.7834,4.801,4.8086,4.8086,4.8086,4.8086,4.8202,4.8663,4.9086,4.9394,4.9933,5.0394,5.0702,5.1202,5.1267,5.0722,5.0123,4.993,5.0166,4.9843,4.993,5.045,5.0488,5.0486,5.0445,5.0083,4.9297,4.8179,4.7686,4.7181,4.6565,4.659,4.6824,4.724,4.7747,4.8119,4.8346,4.8672,4.889,4.889,4.889,4.8704,4.863,4.8742,4.889,4.889,4.889,4.8927,4.889,4.889,4.9076,4.9594,5.0114,5.0822,5.1454,5.2234,5.2791,5.3274,5.3645,5.3757,5.3794,5.3794,5.3794,5.3794,5.3794,5.3794,5.3794,5.3794,5.3756,5.3793,5.3754,5.3754,5.3678,5.3678,5.3678,5.36,5.3637,5.3259,5.259,5.1595,5.0446,5.0053,4.93,4.9135,4.9416,4.9455,4.9305,4.6755,4.7435,4.8796,4.906,4.8644,4.94,4.9807,4.9835,4.9835,4.9559,4.9273,4.9652,4.92,4.8324,4.9083,4.87,4.7289,4.7971,4.8574,4.8949,4.8536,4.8762,4.9302,4.8684,4.8574,4.8947,4.8856,4.8698,4.8677,4.8875,4.8933,4.8971,4.8933,4.8933,4.9048,4.9548,4.9817,4.9933,5.0433,5.0818,5.1087,5.1625,5.1775,5.1402,5.0903,5.0665,5.0867,5.0666,5.0785,5.1305,5.1379,5.1378,5.1374,5.1009,5.0376,4.9482,4.9009,4.8386,4.7631,4.756,4.7747,4.8083,4.8254,4.8483,4.879,4.8859,4.889,4.889,4.889,4.889,4.8964,4.915,4.9187,4.9039,4.915,4.9299,4.9299,4.9559,4.993,5.0486,5.1231,5.1937,5.2494,5.2828,5.3237,5.3757,5.3794,5.3794,5.3794,5.3794,5.3794,5.3794,5.3794,5.3794,5.3794,5.3794,5.3794,5.3794,5.3756,5.3794,5.3794,5.3794,5.3756,5.3754,5.3528,5.3156,5.2449,5.1486,5.0998,5.068,5.0268,4.9948,5.019,5.038,5.023,4.7453,4.7681,4.8363,4.8818,4.8894,4.9576,4.9879,4.9879,4.9879,4.9841,4.9765,4.9879,4.9451,4.9048,4.9706,4.9639,4.8952,4.8698,4.8655,4.8732,4.8647,4.898,4.9644,4.8948,4.928,5.0503,5.0604,5.0587,5.0433,5.0394,5.0452,5.0548,5.0433,5.0356,5.0587,5.0548,5.0625,5.0702,5.0818,5.1164,5.1818,5.2049,5.2196,5.2313,5.2267,5.2046,5.1526,5.1416,5.1454,5.1528,5.1565,5.1454,5.1565,5.1306,5.0929,5.0652,5.0105,4.9712,4.9539,4.9269,4.9256,4.9505,4.9392,4.9318,4.9593,4.9381,4.915,4.9224,4.915,4.9076,4.9224,4.9745,4.9819,4.915,4.967,5.0116,5.0265,5.0859,5.1379,5.1491,5.2122,5.2567,5.2753,5.3237,5.3683,5.3757,5.3794,5.3794,5.3794,5.3794,5.3794,5.3794,5.3794,5.3794,5.3794,5.3794,5.3794,5.3794,5.3794,5.3794,5.3794,5.3794,5.3794,5.3793,5.3793,5.3419,5.3084,5.2194,5.1858,5.1514,5.114,5.0952,5.1078,5.1232,5.1195,4.859,4.9121,4.9386,4.9538,4.9538,4.9803,4.9879,4.9879,4.9879,4.9879,4.9879,4.9879,4.9808,4.9822,5.0087,5.0176,5.0105,5.0026,5.0002,4.998,5.0046,5.0194,5.0387,5.0194,5.0356,5.0786,5.0812,5.0738,5.0721,5.0682,5.0702,5.0683,5.0702,5.0702,5.0741,5.0702,5.0894,5.1471,5.151,5.1933,5.2779,5.3395,5.3498,5.3196,5.3707,5.3742,5.3089,5.2531,5.2531,5.2977,5.3051,5.3051,5.3014,5.2976,5.2488,5.1772,5.1499,5.083,4.9956,4.9965,5.0001,5.0017,5.0149,5.0362,5.0554,5.0565,5.0559,5.0563,5.06,5.0636,5.0673,5.0822,5.0636,4.9819,5.0488,5.1008,5.1082,5.1713,5.2159,5.2308,5.2939,5.3347,5.3423,5.372,5.372,5.3757,5.3757,5.3794,5.3794,5.3794,5.3794,5.3794,5.3794,5.3794,5.3794,5.3794,5.3794,5.3794,5.3794,5.3794,5.3794,5.3794,5.3794,5.3794,5.3794,5.3683,5.3347,5.3087,5.2675,5.275,5.2673,5.249,5.2158,5.2085,5.2048,4.9424,4.9879,4.9879,4.9879,4.9879,4.9879,4.9879,4.9879,4.9879,4.9879,4.9879,4.9879,5.0012,5.0163,5.0188,5.0396,5.0682,5.0701,5.072,5.0773,5.0858,5.089,5.0906,5.0906,5.0913,5.088,5.0846,5.0812,5.0738,5.072,5.0701,5.0702,5.0702,5.0875,5.1087,5.1183,5.1588,5.2319,5.2435,5.2858,5.3628,5.4205,5.435,5.4097,5.4503,5.4425,5.3833,5.3311,5.3274,5.372,5.3794,5.3794,5.3794,5.3757,5.3458,5.2895,5.2552,5.2123,5.1267,5.1304,5.1274,5.1237,5.1275,5.1406,5.1486,5.1565,5.1414,5.1417,5.1343,5.138,5.1416,5.1714,5.1454,5.0673,5.1342,5.1788,5.1936,5.2568,5.2568,5.2494,5.2791,5.3126,5.3014,5.3237,5.3348,5.3385,5.3608,5.3794,5.3794,5.3794,5.3794,5.3794,5.3794,5.3794,5.3794,5.3794,5.3794,5.3794,5.3794,5.3794,5.3794,5.3794,5.3794,5.3794,5.3794,5.3794,5.3533,5.357,5.342,5.3794,5.3794,5.3459,5.3013,5.3013,5.2977,4.9879,4.9879,4.9879,4.9879,4.9879,4.9879,4.9879,4.9879,4.9879,4.9879,4.9879,4.9879,5.0012,5.0163,5.0188,5.0396,5.0664,5.0701,5.0773,5.0858,5.0906,5.0906,5.0906,5.0906,5.0929,5.0897,5.088,5.0863,5.0829,5.0928,5.0871,5.0894,5.1048,5.126,5.1896,5.2069,5.2473,5.3244,5.3417,5.3841,5.4535,5.4631,5.4641,5.4752,5.4769,5.4495,5.387,5.3831,5.3831,5.3831,5.3794,5.3794,5.3794,5.3794,5.3757,5.3644,5.3444,5.3249,5.3162,5.2815,5.2767,5.2863,5.2397,5.222,5.2306,5.1899,5.1639,5.1603,5.1676,5.1639,5.1714,5.2085,5.2085,5.1714,5.1899,5.2271,5.2531,5.3125,5.2902,5.2085,5.2158,5.2456,5.2085,5.2568,5.2791,5.2977,5.346,5.372,5.3794,5.3794,5.3794,5.3794,5.3794,5.3794,5.3794,5.3794,5.3868,5.424,5.4166,5.4054,5.3905,5.3868,5.3794,5.3794,5.3943,5.3905,5.3831,5.3831,5.3831,5.3794,5.3794,5.3794,5.372,5.3608,5.3497,4.9879,4.9879,4.9879,4.9879,4.9879,4.9879,4.9879,4.9879,4.9879,4.9906,4.9906,4.9879,5.0012,5.0188,5.0212,5.0396,5.0645,5.0701,5.0773,5.089,5.0906,5.0906,5.0906,5.0906,5.0929,5.0929,5.099,5.0897,5.0902,5.1481,5.1734,5.1758,5.226,5.2723,5.3012,5.3031,5.3494,5.413,5.4265,5.4689,5.5345,5.5441,5.524,5.4876,5.4836,5.4463,5.3944,5.4388,5.4388,5.3831,5.3794,5.3794,5.3905,5.3868,5.3905,5.3904,5.3754,5.3561,5.34,5.344,5.3481,5.3285,5.2856,5.2529,5.2568,5.2419,5.227,5.2419,5.2791,5.2865,5.2457,5.2457,5.2457,5.2308,5.2011,5.1825,5.1936,5.2382,5.2716,5.2456,5.2939,5.3088,5.3014,5.3125,5.3348,5.3385,5.3571,5.3794,5.3794,5.3794,5.3794,5.3794,5.3794,5.3794,5.3794,5.3794,5.4054,5.4611,5.4686,5.45,5.4277,5.4017,5.3905,5.3794,5.424,5.4314,5.4017,5.3868,5.3831,5.4091,5.3943,5.4017,5.3868,5.372,5.372,5.0051,5.0012,5.0012,4.9959,4.9906,4.9879,4.9879,4.9879,4.9879,4.9959,5.0012,5.0012,5.0149,5.0418,5.0418,5.0566,5.0773,5.0791,5.0825,5.089,5.0906,5.0906,5.0906,5.0906,5.1099,5.1447,5.1447,5.1702,5.2034,5.2498,5.2657,5.27,5.3163,5.3569,5.3898,5.3974,5.436,5.5036,5.5209,5.5477,5.5921,5.5885,5.5762,5.5396,5.518,5.4822,5.4611,5.4837,5.476,5.4463,5.4613,5.4874,5.4797,5.4501,5.4501,5.4723,5.424,5.379,5.397,5.394,5.3717,5.3526,5.3235,5.2939,5.2717,5.2605,5.2531,5.2159,5.2605,5.2679,5.2679,5.2605,5.2605,5.2494,5.1862,5.1565,5.1862,5.2716,5.2679,5.2531,5.2754,5.3126,5.294,5.3125,5.3274,5.3348,5.3534,5.372,5.3794,5.3794,5.3868,5.3905,5.4203,5.4388,5.4611,5.4686,5.4909,5.5391,5.5652,5.5391,5.5131,5.476,5.476,5.4797,5.4797,5.4799,5.4648,5.4574,5.4723,5.4797,5.4463,5.4203,5.4091,5.4166,5.4128,5.0336,5.0236,5.0236,5.01,4.9974,4.9959,4.9974,4.9959,4.9948,5.0051,5.0188,5.0236,5.0396,5.0701,5.0645,5.0773,5.089,5.0874,5.1006,5.1138,5.1293,5.1409,5.1447,5.1254,5.1641,5.2221,5.2337,5.2685,5.3149,5.3459,5.3597,5.364,5.37,5.4069,5.4648,5.4821,5.5246,5.5748,5.5861,5.5879,5.6033,5.6134,5.6181,5.6088,5.5798,5.5595,5.557,5.551,5.5354,5.5317,5.588,5.5879,5.5874,5.5245,5.5133,5.5354,5.45,5.4053,5.4535,5.4053,5.3794,5.3719,5.3644,5.3423,5.2754,5.2605,5.2381,5.1862,5.1639,5.2233,5.2457,5.2531,5.2494,5.2457,5.1936,5.1974,5.2605,5.3274,5.3088,5.1862,5.227,5.227,5.2122,5.2234,5.2791,5.3385,5.3571,5.372,5.3943,5.4091,5.4128,5.4166,5.4574,5.5131,5.5429,5.5726,5.6023,5.6357,5.6692,5.6692,5.6543,5.6283,5.6172,5.606,5.5652,5.5652,5.58,5.58,5.5723,5.5501,5.5206,5.4797,5.4463,5.4723,5.4797,5.0389,5.0333,5.0363,5.0325,5.027,5.0281,5.0275,5.0291,5.0313,5.0313,5.0358,5.0358,5.0486,5.0701,5.072,5.0773,5.0929,5.0983,5.1254,5.1989,5.2685,5.2917,5.2763,5.2298,5.2453,5.3033,5.3227,5.3343,5.3652,5.4233,5.4503,5.4564,5.4989,5.5492,5.559,5.559,5.5763,5.5995,5.5995,5.6051,5.6227,5.6616,5.6809,5.6702,5.6616,5.6555,5.6622,5.6816,5.6952,5.6729,5.5983,5.5652,5.5463,5.4756,5.4496,5.4535,5.424,5.3905,5.4017,5.398,5.3794,5.3757,5.3348,5.2791,5.2679,5.2603,5.2528,5.2456,5.2902,5.2791,5.2605,5.2011,5.2197,5.2494,5.2531,5.2642,5.3237,5.3163,5.2791,5.268,5.3014,5.3459,5.3274,5.3237,5.3497,5.3571,5.3683,5.3794,5.4128,5.45,5.4611,5.476,5.5391,5.6025,5.6172,5.6506,5.6915,5.7175,5.7509,5.7695,5.7583,5.7323,5.6989,5.6655,5.6243,5.6392,5.6803,5.654,5.6392,5.6169,5.5986,5.5689,5.5503,5.5577,5.5429,5.0605,5.0529,5.0567,5.0489,5.0392,5.0368,5.0385,5.0385,5.0385,5.0466,5.0527,5.0547,5.0625,5.0791,5.0808,5.0841,5.1006,5.137,5.1989,5.2724,5.3304,5.3691,5.4039,5.373,5.3691,5.4078,5.4116,5.4271,5.4735,5.5045,5.5354,5.5354,5.5818,5.5896,5.6012,5.6012,5.5973,5.6012,5.6012,5.6167,5.6652,5.6982,5.7486,5.7527,5.7587,5.7544,5.7687,5.7529,5.7702,5.7658,5.6871,5.6388,5.6432,5.5652,5.5206,5.5391,5.424,5.4128,5.4203,5.4017,5.3794,5.3831,5.3385,5.3014,5.2754,5.2641,5.2344,5.2233,5.2345,5.2531,5.2605,5.2791,5.2791,5.2977,5.3162,5.3348,5.3608,5.3423,5.3163,5.32,5.3497,5.372,5.3794,5.3905,5.4203,5.424,5.4388,5.4574,5.5206,5.554,5.554,5.58,5.6397,5.6843,5.6952,5.7286,5.7769,5.7992,5.8215,5.8326,5.8289,5.7955,5.7583,5.736,5.7171,5.7431,5.7732,5.7394,5.7097,5.6952,5.6803,5.6655,5.6432,5.6172,5.6023,5.0841,5.0738,5.0738,5.0625,5.0469,5.0507,5.0489,5.0469,5.0486,5.0606,5.072,5.0738,5.0791,5.0874,5.089,5.0929,5.1331,5.2028,5.2879,5.3652,5.4039,5.4465,5.4851,5.489,5.489,5.4967,5.4967,5.5316,5.5702,5.6012,5.5857,5.5973,5.5973,5.6012,5.6012,5.6012,5.6128,5.6283,5.636,5.6708,5.7443,5.7753,5.8258,5.8796,5.8781,5.8736,5.8672,5.8384,5.8196,5.8665,5.8058,5.8132,5.8103,5.733,5.6513,5.7138,5.5317,5.4834,5.502,5.4686,5.4277,5.4054,5.398,5.3608,5.3088,5.2865,5.2642,5.2271,5.2196,5.2418,5.2753,5.32,5.3683,5.3943,5.398,5.4054,5.4166,5.4166,5.4167,5.372,5.3757,5.3831,5.4054,5.4203,5.4611,5.4983,5.5131,5.5429,5.606,5.6469,5.6469,5.6692,5.7252,5.7624,5.7732,5.7769,5.8289,5.8438,5.8661,5.8698,5.8735,5.8438,5.8141,5.8364,5.8401,5.8475,5.8438,5.8215,5.7955,5.7769,5.7658,5.7546,5.7175,5.6729,5.6729,5.089,5.0874,5.0874,5.0858,5.0841,5.0803,5.0825,5.0841,5.0769,5.0841,5.0858,5.0858,5.0874,5.089,5.0945,5.1293,5.2144,5.2956,5.373,5.4581,5.5084,5.5586,5.5586,5.5664,5.5702,5.578,5.5741,5.5818,5.5935,5.6012,5.6012,5.6012,5.6012,5.6012,5.6012,5.6051,5.6437,5.6863,5.7056,5.7521,5.8294,5.9029,5.963,6.0229,6.0046,5.9863,5.9688,5.9375,5.9065,5.8902,5.8739,5.8698,5.8438,5.7283,5.6648,5.6506,5.6134,5.5726,5.5837,5.5874,5.5429,5.502,5.4834,5.4463,5.3905,5.3683,5.3571,5.346,5.3273,5.3422,5.3571,5.3943,5.4203,5.4574,5.4871,5.5057,5.554,5.5618,5.5173,5.4351,5.4128,5.4128,5.4537,5.4909,5.5317,5.5763,5.6023,5.6246,5.6655,5.71,5.7286,5.7583,5.7992,5.8289,5.8512,5.8475,5.8586,5.8624,5.8735,5.8772,5.8772,5.8735,5.8698,5.8698,5.8698,5.8624,5.8661,5.8698,5.8586,5.8252,5.8326,5.8401,5.8029,5.7658,5.7881,5.0906,5.0906,5.0906,5.0906,5.0906,5.0906,5.0906,5.0906,5.0906,5.0906,5.0906,5.0906,5.0906,5.1022,5.1409,5.226,5.3382,5.3923,5.4658,5.5432,5.5818,5.6012,5.6012,5.6012,5.6012,5.6012,5.6012,5.6012,5.6012,5.6012,5.6012,5.6012,5.6012,5.6012,5.6128,5.6515,5.6863,5.7366,5.7791,5.8372,5.9261,6.0074,6.0712,6.0848,6.0795,6.0482,6.0261,5.9985,5.9601,5.9328,5.9204,5.9082,5.8706,5.8178,5.739,5.7026,5.6617,5.6357,5.632,5.632,5.606,5.5763,5.5689,5.554,5.5245,5.5135,5.4837,5.4538,5.4426,5.4426,5.4426,5.476,5.5243,5.554,5.5689,5.5874,5.6172,5.6325,5.584,5.5206,5.5317,5.5466,5.5503,5.5837,5.6134,5.6506,5.6878,5.71,5.736,5.7621,5.7955,5.8178,5.8475,5.8698,5.8958,5.9069,5.9107,5.9107,5.9144,5.9181,5.9144,5.9218,5.8958,5.8735,5.8735,5.8846,5.8698,5.8698,5.8698,5.8698,5.8624,5.8549,5.8624,5.8661,5.8698,5.0906,5.0906,5.0906,5.0906,5.0906,5.0906,5.0906,5.0906,5.0906,5.1022,5.1177,5.1215,5.1331,5.1563,5.226,5.3304,5.4735,5.4774,5.52,5.578,5.5973,5.6012,5.6012,5.6012,5.6012,5.6012,5.6012,5.6012,5.6012,5.6012,5.6012,5.6089,5.6089,5.6283,5.6476,5.7172,5.7482,5.8023,5.8449,5.93,6.0112,6.0731,6.1118,6.1157,6.1074,6.102,6.0852,6.0966,6.0692,6.043,6.0154,5.9993,5.9584,5.9309,5.8814,5.807,5.7212,5.6878,5.684,5.6878,5.6915,5.658,5.6543,5.6469,5.6209,5.599,5.588,5.5395,5.5282,5.528,5.5354,5.5874,5.6283,5.6506,5.6543,5.6655,5.6915,5.7063,5.71,5.6803,5.6803,5.6655,5.658,5.6617,5.6878,5.7398,5.7769,5.7843,5.8066,5.8215,5.8475,5.8624,5.8846,5.899,5.925,5.9589,5.9701,5.985,5.9961,6.0072,5.9961,5.9887,5.9552,5.9255,5.9144,5.9181,5.8958,5.8698,5.8698,5.8698,5.8698,5.8698,5.8698,5.8698,5.8698,5.0906,5.0906,5.0906,5.0906,5.0906,5.0906,5.0945,5.0945,5.0983,5.137,5.2066,5.2066,5.2453,5.3033,5.3188,5.3923,5.4619,5.4967,5.5316,5.5935,5.6012,5.6012,5.6012,5.6012,5.6012,5.6051,5.6089,5.6012,5.6128,5.6128,5.6089,5.6205,5.6824,5.7134,5.725,5.8023,5.8836,5.9455,5.9648,6.0151,6.0847,6.1118,6.1195,6.1408,6.1814,6.206,6.1944,6.2233,6.2387,6.2094,6.1981,6.1805,6.1504,6.0636,6.017,5.9599,5.9037,5.8401,5.8289,5.8141,5.7918,5.7472,5.736,5.6989,5.6729,5.6469,5.636,5.6209,5.6134,5.6134,5.6134,5.632,5.6692,5.71,5.736,5.7732,5.8029,5.7769,5.7843,5.7918,5.7769,5.7583,5.7472,5.7509,5.7621,5.8178,5.8586,5.8624,5.8735,5.8846,5.8921,5.9074,5.9552,5.9733,5.9881,6.0141,6.0295,6.0518,6.0778,6.0927,6.0704,6.0518,6.0333,6.0072,5.9812,5.9329,5.8884,5.8698,5.8698,5.8698,5.8698,5.8698,5.8698,5.8698,5.8698,5.0906,5.0906,5.0906,5.0906,5.0906,5.0906,5.1177,5.1563,5.1641,5.2105,5.2801,5.2917,5.342,5.4116,5.4233,5.4697,5.5354,5.547,5.5625,5.5935,5.6012,5.6012,5.6012,5.6012,5.6012,5.6167,5.6476,5.6824,5.6747,5.6747,5.6747,5.6902,5.7559,5.8023,5.8101,5.8874,5.9416,5.988,6.0344,6.1002,6.1621,6.1853,6.2046,6.2549,6.2936,6.2993,6.3085,6.3218,6.3299,6.3002,6.2738,6.2506,6.2095,6.1542,6.1114,6.0957,6.0501,5.9711,5.8846,5.8772,5.8586,5.8364,5.8178,5.8029,5.7621,5.7212,5.6948,5.6945,5.6986,5.6989,5.71,5.7435,5.7769,5.8066,5.8066,5.8252,5.8549,5.8624,5.8549,5.8661,5.8735,5.8549,5.8401,5.8475,5.8364,5.8364,5.8661,5.8698,5.8958,5.9218,5.9371,5.9525,6.0035,6.0624,6.0692,6.084,6.0809,6.1076,6.1596,6.1633,6.1336,6.1113,6.0815,6.0407,5.9924,5.9404,5.8846,5.8698,5.8698,5.8698,5.8698,5.8698,5.8698,5.8698,5.8698,5.1579,5.154,5.1331,5.1215,5.1254,5.1447,5.1912,5.2492,5.2531,5.2995,5.373,5.4039,5.4542,5.4967,5.5122,5.5393,5.5935,5.6012,5.6012,5.6012,5.6012,5.6012,5.6089,5.6128,5.6399,5.636,5.7288,5.7598,5.7714,5.783,5.7946,5.7714,5.8488,5.8874,5.9145,5.9687,6.0267,6.0344,6.1079,6.1737,6.2278,6.2627,6.3052,6.3516,6.3864,6.4019,6.4019,6.4329,6.4226,6.4084,6.3913,6.3707,6.3302,6.2746,6.2257,6.1988,6.1528,6.077,6.0017,5.9636,5.9367,5.9255,5.8995,5.8846,5.8512,5.8103,5.7765,5.7761,5.7802,5.7806,5.7918,5.8326,5.8438,5.8512,5.8586,5.8661,5.8735,5.8846,5.9032,5.9218,5.9329,5.9441,5.9367,5.9404,5.9218,5.8772,5.8735,5.8846,5.9255,5.9738,6.0035,6.0264,6.0896,6.1478,6.1545,6.1582,6.1552,6.1596,6.2116,6.2041,6.1596,6.1336,6.1076,6.0593,6.0147,5.9441,5.8884,5.8772,5.8698,5.8698,5.8698,5.8698,5.8698,5.8698,5.8698,5.3406,5.3329,5.2469,5.2144,5.2144,5.2995,5.3304,5.342,5.342,5.3884,5.4735,5.5393,5.5664,5.5818,5.578,5.5857,5.6012,5.6012,5.6089,5.6089,5.6012,5.6205,5.6476,5.6902,5.7211,5.7366,5.8062,5.8488,5.8681,5.9223,5.9029,5.8758,5.9455,5.9725,6.0035,6.0576,6.1002,6.1195,6.1892,6.2394,6.282,6.3207,6.371,6.3942,6.4483,6.4909,6.4948,6.5412,6.5682,6.5582,6.5353,6.5153,6.4632,6.393,6.3426,6.3088,6.248,6.1874,6.1456,6.0953,6.0933,6.0741,6.0295,5.9594,5.8995,5.8772,5.8624,5.8512,5.8401,5.8549,5.8586,5.8698,5.8921,5.9218,5.9367,5.9329,5.9329,5.9223,5.9404,5.9701,5.9924,6.0072,6.0221,6.0258,6.0035,5.9627,5.9478,5.9552,6.0035,6.0518,6.089,6.1224,6.1856,6.2257,6.2398,6.2398,6.2406,6.2301,6.245,6.2116,6.1558,6.141,6.1707,6.1001,6.0555,5.9701,5.9144,5.9329,5.9329,5.8884,5.8735,5.8884,5.8809,5.8698,5.8698,5.3546,5.36,5.3746,5.3498,5.3033,5.3343,5.3807,5.4233,5.431,5.4774,5.5548,5.5857,5.6012,5.6012,5.6012,5.6012,5.6012,5.6012,5.6321,5.667,5.6824,5.7095,5.7521,5.7791,5.8101,5.8294,5.8952,5.9377,5.9493,6.0151,6.0383,6.0344,6.046,6.0576,6.0925,6.135,6.1776,6.2124,6.2781,6.3362,6.4019,6.4251,6.4715,6.5296,6.5412,6.5721,6.576,6.5992,6.6147,6.6147,6.6031,6.5848,6.5664,6.4894,6.4506,6.4215,6.354,6.3236,6.2932,6.2164,6.1316,6.1241,6.0948,6.0501,5.9715,5.9644,5.9268,5.9004,5.8892,5.9115,5.9404,5.9478,5.9664,6.0035,6.0147,6.0072,6.0041,5.9934,6.0157,6.0641,6.0752,6.0864,6.097,6.1032,6.0778,6.0444,6.037,6.037,6.0815,6.1298,6.1707,6.2004,6.2562,6.2896,6.3,6.3148,6.3305,6.3007,6.271,6.2227,6.1819,6.2636,6.271,6.1893,6.115,6.0704,6.0407,6.0295,5.9961,5.9404,5.9218,5.9255,5.9069,5.8735,5.8698,5.4336,5.4429,5.4962,5.4675,5.3962,5.4155,5.4581,5.5084,5.5161,5.5432,5.6012,5.6012,5.6012,5.6012,5.6012,5.6012,5.6128,5.6321,5.6786,5.7172,5.7598,5.8023,5.8488,5.8836,5.899,5.9184,5.9764,6.0267,6.0267,6.0847,6.0925,6.1041,6.135,6.135,6.1234,6.193,6.2511,6.2936,6.3632,6.429,6.4909,6.5257,6.5489,6.6031,6.6108,6.6108,6.6108,6.6185,6.6185,6.6185,6.6069,6.5992,6.5797,6.5613,6.5366,6.5061,6.4699,6.4369,6.4068,6.3266,6.2043,6.1931,6.1898,6.1409,6.0845,6.0665,6.0326,5.9838,5.9763,5.9868,6.0343,6.046,6.0534,6.0874,6.0948,6.0911,6.0948,6.0916,6.1246,6.1619,6.1693,6.1805,6.2209,6.2278,6.1602,6.1379,6.1298,6.1298,6.1596,6.2079,6.2599,6.2859,6.3119,6.3379,6.3565,6.349,6.3342,6.2784,6.2524,6.2376,6.2339,6.3007,6.297,6.1819,6.1373,6.1596,6.1484,6.115,6.0518,5.985,5.9738,5.9664,5.9032,5.8698,5.8698,5.6054,5.6141,5.6056,5.5559,5.489,5.5625,5.5896,5.5857,5.5857,5.5935,5.6012,5.6012,5.6012,5.6012,5.6012,5.6089,5.636,5.6863,5.7366,5.7753,5.8333,5.8604,5.9029,5.9455,5.9841,6.0074,6.0499,6.0847,6.0963,6.1041,6.1079,6.1505,6.193,6.2085,6.1311,6.2008,6.2859,6.369,6.4522,6.4948,6.5218,6.5721,6.6031,6.6147,6.6185,6.6185,6.6185,6.6185,6.6185,6.6185,6.634,6.6301,6.6162,6.6165,6.6008,6.5685,6.4749,6.459,6.4904,6.4369,6.3606,6.3,6.2888,6.251,6.1905,6.1646,6.1464,6.09,6.1085,6.1266,6.145,6.1487,6.1562,6.1823,6.1936,6.1973,6.2048,6.2089,6.2463,6.2603,6.2715,6.2902,6.3419,6.3525,6.2656,6.2278,6.219,6.2264,6.245,6.271,6.3193,6.3305,6.3453,6.349,6.3602,6.3602,6.3379,6.2784,6.2487,6.2487,6.2264,6.2413,6.2116,6.1521,6.1781,6.2227,6.2079,6.1856,6.1373,6.0927,6.0258,5.9924,5.9218,5.8921,5.9218,5.6226,5.6251,5.617,5.6009,5.5714,5.5896,5.6012,5.6012,5.6012,5.6012,5.6012,5.6012,5.6012,5.6012,5.6128,5.6321,5.6863,5.7056,5.7598,5.899,5.9339,5.9841,6.019,6.0383,6.0654,6.077,6.1041,6.1118,6.1079,6.1195,6.1543,6.2008,6.2781,6.3052,6.3129,6.3632,6.4329,6.4677,6.5296,6.5799,6.5799,6.6069,6.6224,6.6263,6.6301,6.6379,6.6379,6.6417,6.6417,6.6495,6.6727,6.6998,6.7054,6.7147,6.7166,6.6935,6.6254,6.646,6.6109,6.5365,6.452,6.4105,6.3839,6.3501,6.286,6.2824,6.241,6.1996,6.1995,6.2142,6.2366,6.2478,6.2703,6.3263,6.345,6.345,6.3491,6.3531,6.3721,6.3709,6.3817,6.3668,6.3967,6.4083,6.348,6.3206,6.3126,6.3022,6.3082,6.3193,6.349,6.349,6.3565,6.3565,6.3602,6.3698,6.3475,6.2954,6.2829,6.297,6.2673,6.2376,6.2524,6.2636,6.2747,6.2822,6.271,6.2636,6.2524,6.2116,6.141,6.0778,6.0258,6.0221,6.0518,5.6278,5.6304,5.6253,5.6199,5.6126,5.6062,5.6029,5.6012,5.6012,5.6012,5.6012,5.6012,5.6012,5.6089,5.6399,5.6631,5.7366,5.8062,5.8449,5.9919,6.0228,6.0538,6.0886,6.1118,6.1002,6.1118,6.1157,6.1195,6.1621,6.1582,6.2278,6.3245,6.3864,6.429,6.4522,6.487,6.5064,6.5373,6.5915,6.6108,6.6224,6.6456,6.6688,6.6804,6.6959,6.7191,6.7114,6.7075,6.7075,6.723,6.7539,6.7926,6.8116,6.8188,6.812,6.7718,6.7446,6.7187,6.6251,6.6162,6.5389,6.4739,6.4745,6.4332,6.3879,6.3803,6.3501,6.3125,6.2824,6.305,6.3426,6.3501,6.3689,6.4291,6.433,6.4292,6.4331,6.4332,6.4293,6.4402,6.4359,6.4322,6.4287,6.4328,6.4179,6.4099,6.4053,6.392,6.3773,6.3766,6.384,6.3922,6.3904,6.392,6.392,6.3883,6.3621,6.3083,6.3184,6.3356,6.3267,6.3007,6.3379,6.3602,6.3379,6.3267,6.3453,6.3416,6.3119,6.2896,6.2562,6.193,6.1373,6.1298,6.1447,5.6375,5.6314,5.6302,5.6265,5.6199,5.6126,5.6062,5.6012,5.6012,5.6051,5.6089,5.6167,5.6321,5.6399,5.6979,5.7443,5.783,5.9106,5.9687,6.0151,6.0615,6.0963,6.1079,6.1118,6.1118,6.1118,6.1195,6.1466,6.2278,6.2704,6.3555,6.4483,6.487,6.5257,6.5528,6.5528,6.5566,6.5915,6.6069,6.6301,6.6533,6.6998,6.7346,6.7578,6.8003,6.8274,6.8352,6.839,6.8468,6.8584,6.8738,6.8816,6.8854,6.8854,6.833,6.7939,6.7711,6.6948,6.6473,6.6726,6.6059,6.5359,6.4951,6.4772,6.4552,6.4365,6.414,6.4102,6.3952,6.4181,6.4483,6.4483,6.4445,6.4596,6.4633,6.467,6.4707,6.4707,6.4708,6.4709,6.4672,6.4634,6.4596,6.4595,6.4704,6.463,6.4558,6.4595,6.4434,6.4209,6.4283,6.4513,6.4458,6.4367,6.4292,6.433,6.4101,6.3761,6.3579,6.3631,6.358,6.3572,6.3565,6.3602,6.3602,6.3602,6.3602,6.3602,6.3565,6.3342,6.3156,6.2822,6.2153,6.1893,6.1893,5.6427,5.6368,5.6368,5.6336,5.6265,5.6199,5.6126,5.6062,5.6029,5.6283,5.694,5.694,5.7211,5.7869,5.8139,5.8565,5.9106,5.9687,6.0228,6.0654,6.0925,6.1041,6.1118,6.1118,6.1118,6.1118,6.1273,6.1737,6.2627,6.34,6.4251,6.4909,6.5528,6.5953,6.6031,6.5953,6.6069,6.6185,6.6301,6.6611,6.6998,6.7501,6.7926,6.8429,6.8777,6.9009,6.8932,6.8893,6.8893,6.8893,6.9357,6.9589,6.9649,7.017,7.0324,7.0131,6.9253,6.8165,6.785,6.7383,6.6641,6.5843,6.5456,6.4737,6.4423,6.4434,6.4585,6.4582,6.4696,6.485,6.4888,6.4886,6.492,6.4989,6.5023,6.5057,6.5123,6.5155,6.5128,6.511,6.5075,6.4996,6.492,6.4985,6.5047,6.5009,6.5014,6.5141,6.5008,6.4781,6.4837,6.5066,6.4932,6.4819,6.4926,6.4964,6.4741,6.4482,6.4251,6.4042,6.407,6.3985,6.3729,6.3788,6.4085,6.3899,6.3602,6.375,6.4159,6.375,6.3527,6.3305,6.3044,6.2747,6.2599,5.6457,5.6441,5.6455,5.6378,5.6414,5.6628,5.6717,5.6675,5.6582,5.688,5.7345,5.7675,5.8101,5.8526,5.8913,5.9377,5.9803,6.0267,6.0692,6.0886,6.1118,6.1118,6.1118,6.1157,6.135,6.1427,6.1814,6.2394,6.34,6.4561,6.5489,6.5528,6.6069,6.6147,6.6185,6.6185,6.6417,6.6611,6.6804,6.7075,6.7501,6.8119,6.8816,6.9125,6.9435,6.9512,6.9241,6.9203,6.9241,6.928,6.986,7.017,7.0247,7.075,7.1059,7.0672,6.9628,6.8833,6.8403,6.7741,6.69,6.615,6.5782,6.5053,6.4741,6.4698,6.4775,6.4845,6.5009,6.5166,6.5194,6.5188,6.5283,6.5337,6.5367,6.5427,6.5523,6.558,6.558,6.555,6.5449,6.5328,6.5314,6.5367,6.5456,6.5465,6.5646,6.5848,6.5619,6.5259,6.5427,6.5726,6.5537,6.5285,6.5454,6.555,6.527,6.4985,6.463,6.4445,6.4514,6.4608,6.4662,6.4711,6.4753,6.465,6.4584,6.4642,6.4865,6.4493,6.4308,6.4308,6.401,6.349,6.3416,5.6475,5.6509,5.6503,5.6519,5.6641,5.7263,5.7581,5.7714,5.7712,5.766,5.7876,5.8407,5.8815,5.9279,5.9744,5.9957,6.0306,6.0692,6.0886,6.1118,6.1118,6.1118,6.1118,6.1157,6.1505,6.2085,6.2588,6.2936,6.4638,6.5605,6.5992,6.6185,6.6185,6.6185,6.6185,6.6456,6.6766,6.7191,6.7617,6.8042,6.8236,6.9048,6.9938,7.0015,7.0324,7.0518,6.9976,6.9821,6.9899,6.986,7.0054,7.0363,7.0711,7.075,7.0866,7.0556,6.9705,6.897,6.8468,6.7806,6.699,6.6322,6.5905,6.5461,6.5229,6.5129,6.5176,6.5312,6.5503,6.6039,6.6192,6.5962,6.5877,6.5848,6.5855,6.5793,6.5756,6.582,6.5781,6.5751,6.5674,6.5586,6.5608,6.5624,6.5705,6.5856,6.6005,6.629,6.641,6.5962,6.614,6.6476,6.6155,6.5948,6.5953,6.5981,6.5762,6.5459,6.5275,6.5414,6.5841,6.5839,6.5703,6.5769,6.5839,6.5874,6.5903,6.5858,6.5691,6.5617,6.5468,6.5506,6.5134,6.451,6.3862,5.6507,5.6507,5.6501,5.6848,5.7434,5.7616,5.8091,5.871,5.9319,5.9451,5.9405,5.9559,5.9934,6.0399,6.0556,6.0731,6.0847,6.0886,6.1079,6.1118,6.1118,6.1195,6.1157,6.1311,6.1737,6.2162,6.2665,6.3516,6.4909,6.5799,6.6185,6.6185,6.6185,6.6224,6.6379,6.6727,6.7307,6.7849,6.8506,6.9009,6.9319,6.9048,6.928,6.9589,6.9899,6.9551,6.9164,6.9125,6.9087,6.9125,6.9744,7.0402,7.1175,7.1021,7.075,7.0324,6.986,6.9009,6.8119,6.7578,6.6917,6.6453,6.6063,6.5986,6.5836,6.5705,6.569,6.5856,6.6174,6.6744,6.6973,6.6677,6.6419,6.6333,6.6217,6.6136,6.6036,6.6013,6.5967,6.5913,6.5836,6.5827,6.5856,6.5958,6.5951,6.6058,6.6123,6.6394,6.7067,6.7036,6.7138,6.7323,6.6812,6.6633,6.6679,6.6728,6.6653,6.6803,6.6748,6.6949,6.7174,6.7125,6.7088,6.6974,6.6934,6.7146,6.7036,6.6611,6.6491,6.671,6.668,6.6737,6.6425,6.5908,6.483,5.6483,5.6561,5.6909,5.7337,5.7882,5.8582,5.9198,5.9724,6.0444,6.0793,6.0711,6.0628,6.0793,6.1242,6.1173,6.1155,6.1155,6.1079,6.1079,6.1118,6.1195,6.1427,6.1505,6.1698,6.2743,6.3245,6.3942,6.4793,6.545,6.5837,6.6185,6.6185,6.6224,6.6417,6.6688,6.7307,6.7965,6.8661,6.9357,6.9667,7.0015,6.986,6.9435,6.9628,6.9319,6.8893,6.8468,6.8506,6.8777,6.9203,6.9976,7.0286,7.0866,7.0982,7.0789,7.017,6.9551,6.8893,6.7849,6.7114,6.6766,6.6379,6.6185,6.6067,6.6067,6.5943,6.5943,6.614,6.6714,6.7278,6.6954,6.6661,6.653,6.6422,6.6267,6.6157,6.6123,6.6102,6.6102,6.6102,6.6024,6.6024,6.6212,6.6637,6.6741,6.6973,6.692,6.723,6.7771,6.8042,6.8197,6.8256,6.7859,6.7667,6.7764,6.7826,6.7817,6.7975,6.8129,6.8196,6.8265,6.8426,6.8484,6.837,6.8373,6.8451,6.8286,6.7898,6.8053,6.8369,6.8218,6.7952,6.7608,6.7263,6.6548,5.6597,5.6795,5.7617,5.8045,5.8318,5.9685,6.0426,6.0657,6.1277,6.1584,6.1486,6.1323,6.133,6.1313,6.1268,6.122,6.1203,6.1164,6.1169,6.1175,6.1311,6.1737,6.2162,6.2588,6.3516,6.4522,6.5373,6.5682,6.6031,6.6185,6.6185,6.6224,6.6456,6.6727,6.7307,6.7926,6.8545,6.9241,6.9667,6.9551,7.0015,7.044,6.9589,6.9241,6.9009,6.8661,6.8042,6.7887,6.839,6.8854,6.9473,7.0015,7.0363,7.0634,7.0324,6.9821,6.9241,6.839,6.7423,6.665,6.6379,6.6185,6.6185,6.6185,6.6185,6.6185,6.6165,6.6513,6.7111,6.7574,6.7265,6.7016,6.69,6.659,6.6436,6.6242,6.6263,6.6263,6.6263,6.6281,6.6358,6.6379,6.6727,6.7191,6.7578,6.781,6.8119,6.8506,6.8777,6.8854,6.8983,6.917,6.9162,6.9054,6.879,6.8845,6.8799,6.8945,6.9065,6.9232,6.9393,6.9566,6.9757,6.989,6.9904,6.9722,6.9649,6.9427,6.9687,6.9652,6.9321,6.8943,6.8903,6.8599,6.8405,5.6965,5.7633,5.8495,5.9237,5.9865,6.0295,6.0772,6.1406,6.1601,6.1639,6.159,6.1573,6.153,6.1463,6.14,6.1344,6.1279,6.1278,6.1252,6.1286,6.1806,6.2257,6.2819,6.3532,6.4116,6.4986,6.5799,6.6108,6.6185,6.6185,6.6224,6.6301,6.7036,6.7384,6.7694,6.8468,6.9512,6.9976,6.9938,6.9821,6.9396,6.9241,6.8197,6.7655,6.7152,6.6843,6.6572,6.6611,6.6688,6.6998,6.7926,6.9069,6.9628,7.0054,6.9783,6.9396,6.8816,6.7887,6.6998,6.6456,6.6185,6.6185,6.6185,6.6185,6.6185,6.6185,6.6301,6.6611,6.7325,6.8408,6.8352,6.8098,6.7926,6.723,6.6843,6.6611,6.6495,6.6533,6.6533,6.6766,6.7016,6.7114,6.7346,6.7887,6.8468,6.87,6.8777,6.9164,6.9319,6.9512,6.9744,6.9976,7.0187,6.9667,6.9104,6.9645,6.9778,6.9888,7.0058,7.0155,7.0375,7.0684,7.0848,7.07,7.07,7.0584,7.0594,7.0431,7.0294,7.0164,7.0014,6.987,6.9895,6.984,6.959]},{"header":{"parameterUnit":"m.s-1","parameterCategory":1,"la1":31.0,"la2":29.5877,"lo1":-88.7671,"lo2":-86.6584,"dy":0.0162,"dx":0.0185,"nx":115,"ny":88,"refTime":"2026-03-16T00:00:00:Z","depth":0,"parameterNumber":3,"parameterNumberName":"V-component_of_WINDS"},"data":[0.0,0.0,0.0,0.0,0.0,0.0,0.0,0.0,0.0,0.0,0.0,0.0,0.0,0.0,0.0,0.0,0.0,0.0,0.0,0.0,0.0,0.0,0.0,0.0,0.0,0.0,0.0,0.0,0.0,0.0,0.0,0.0,0.0,0.0,0.0,0.0,0.0,0.0,0.0,0.0,0.0,0.0,0.0,0.0,0.0,0.0,0.0,0.0,0.0,0.0,0.0,0.0,0.0,0.0,0.0,0.0,0.0,0.0,0.0,0.0,0.0,0.0,0.0,0.0,0.0,0.0,0.0,0.0,0.0,0.0,0.0,0.0,0.0,0.0,0.0,0.0,0.0,0.0,0.0,0.0,0.0,0.0,0.0,0.0,0.0,0.0,0.0,0.0,0.0,0.0,0.0,0.0,0.0,0.0,0.0,0.0,0.0,0.0,0.0,0.0,0.0,0.0,0.0,0.0,0.0,0.0,0.0,0.0,0.0,0.0,0.0,0.0,0.0,0.0,0.0,0.0,0.0,0.0,0.0,0.0,0.0,0.0,0.0,0.0,0.0,0.0,0.0,0.0,0.0,0.0,0.0,0.0,0.0,0.0,0.0,0.0,0.0,0.0,0.0,0.0,0.0,0.0,0.0,0.0,0.0,0.0,0.0,0.0,0.0,0.0,0.0,0.0,0.0,0.0,0.0,0.0,0.0,0.0,0.0,0.0,0.0,0.0,0.0,0.0,0.0,0.0,0.0,0.0,0.0,0.0,0.0,0.0,0.0,0.0,0.0,0.0,0.0,0.0,0.0,0.0,0.0,0.0,0.0,0.0,0.0,0.0,0.0,0.0,0.0,0.0,0.0,0.0,0.0,0.0,0.0,0.0,0.0,0.0,0.0,0.0,0.0,0.0,0.0,0.0,0.0,0.0,0.0,0.0,0.0,0.0,0.0,0.0,0.0,0.0,0.0,0.0,0.0,0.0,0.0,0.0,0.0,0.0,0.0,0.0,0.0,0.0,0.0,0.0,0.0,0.0,0.0,0.0,0.0,0.0,0.0,0.0,0.0,0.0,0.0,0.0,0.0,0.0,0.0,0.0,0.0,0.0,0.0,0.0,0.0,0.0,0.0,0.0,0.0,0.0,0.0,0.0,0.0,0.0,0.0,0.0,0.0,0.0,0.0,0.0,0.0,0.0,0.0,0.0,0.0,0.0,0.0,0.0,0.0,0.0,0.0,0.0,0.0,0.0,0.0,0.0,0.0,0.0,0.0,0.0,0.0,0.0,0.0,0.0,0.0,0.0,0.0,0.0,0.0,0.0,0.0,0.0,0.0,0.0,0.0,0.0,0.0,0.0,0.0,0.0,0.0,0.0,0.0,0.0,0.0,0.0,0.0,0.0,0.0,0.0,0.0,0.0,0.0,0.0,0.0,0.0,0.0,0.0,0.0,0.0,0.0,0.0,0.0,0.0,0.0,0.0,0.0,0.0,0.0,0.0,0.0,0.0,0.0,0.0,0.0,0.0,0.0,0.0,0.0,0.0,0.0,0.0,0.0,0.0,0.0,0.0,0.0,0.0,0.0,0.0,0.0,0.0,0.0,0.0,0.0,0.0,0.0,0.0,0.0,0.0,0.0,0.0,0.0,0.0,0.0,0.0,0.0,0.0,0.0,0.0,0.0,0.0,0.0,0.0,0.0,0.0,0.0,0.0,0.0,0.0,0.0,0.0,0.0,0.0,0.0,0.0,0.0,0.0,0.0,0.0,0.0,0.0,0.0,0.0,0.0,0.0,0.0,0.0,0.0,0.0,0.0,0.0,0.0,0.0,0.0,0.0,0.0,0.0,0.0,0.0,0.0,0.0,0.0,0.0,0.0,0.0,0.0,0.0,0.0,0.0,0.0,0.0,0.0,0.0,0.0,0.0,0.0,0.0,0.0,0.0,0.0,0.0,0.0,0.0,0.0,0.0,0.0,0.0,0.0,0.0,0.0,0.0,0.0,0.0,0.0,0.0,0.0,0.0,0.0,0.0,0.0,0.0,0.0,0.0,0.0,0.0,0.0,0.0,0.0,0.0,0.0,0.0,0.0,0.0,0.0,0.0,0.0,0.0,0.0,0.0,0.0,0.0,0.0,0.0,0.0,0.0,0.0,0.0,0.0,0.0,0.0,0.0,0.0,0.0,0.0,0.0,0.0,0.0,0.0,0.0,0.0,0.0,0.0,0.0,0.0,0.0,0.0,0.0,0.0,0.0,0.0,0.0,0.0,0.0,0.0,0.0,0.0,0.0,0.0,0.0,0.0,0.0,0.0,0.0,0.0,0.0,0.0,0.0,0.0,0.0,0.0,0.0,0.0,0.0,0.0,0.0,0.0,0.0,0.0,0.0,0.0,0.0,0.0,0.0,0.0,0.0,0.0,0.0,0.0,0.0,0.0,0.0,0.0,0.0,0.0,0.0,0.0,0.0,0.0,0.0,0.0,0.0,0.0,0.0,0.0,0.0,0.0,0.0,0.0,0.0,0.0,0.0,0.0,0.0,0.0,0.0,0.0,0.0,0.0,0.0,0.0,0.0,0.0,0.0,0.0,0.0,0.0,0.0,0.0,0.0,0.0,0.0,0.0,0.0,0.0,0.0,0.0,0.0,0.0,0.0,0.0,0.0,0.0,0.0,0.0,0.0,0.0,0.0,0.0,0.0,0.0,0.0,0.0,0.0,0.0,0.0,0.0,0.0,0.0,0.0,0.0,0.0,0.0,0.0,0.0,0.0,0.0,0.0,0.0,0.0,0.0,0.0,0.0,0.0,0.0,0.0,0.0,0.0,0.0,0.0,0.0,0.0,0.0,0.0,0.0,0.0,0.0,0.0,0.0,0.0,0.0,0.0,0.0,0.0,0.0,0.0,0.0,0.0,0.0,0.0,0.0,0.0,0.0,0.0,0.0,0.0,0.0,0.0,0.0,0.0,0.0,0.0,0.0,0.0,0.0,0.0,0.0,0.0,0.0,0.0,0.0,0.0,0.0,0.0,0.0,0.0,0.0,0.0,0.0,0.0,0.0,0.0,0.0,0.0,0.0,0.0,0.0,0.0,0.0,0.0,0.0,0.0,0.0,0.0,0.0,0.0,0.0,0.0,0.0,0.0,0.0,0.0,0.0,0.0,0.0,0.0,0.0,0.0,0.0,0.0,0.0,0.0,0.0,0.0,0.0,0.0,0.0,0.0,0.0,0.0,0.0,0.0,0.0,0.0,0.0,0.0,0.0,0.0,0.0,0.0,0.0,0.0,0.0,0.0,0.0,0.0,0.0,0.0,0.0,0.0,0.0,0.0,0.0,0.0,0.0,0.0,0.0,0.0,0.0,0.0,0.0,0.0,0.0,0.0,0.0,0.0,0.0,0.0,0.0,0.0,0.0,0.0,0.0,0.0,0.0,0.0,0.0,0.0,0.0,0.0,0.0,0.0,0.0,0.0,0.0,0.0,0.0,0.0,0.0,0.0,0.0,0.0,0.0,0.0,0.0,0.0,0.0,0.0,0.0,0.0,0.0,0.0,0.0,0.0,0.0,0.0,0.0,0.0,0.0,0.0,0.0,0.0,0.0,0.0,0.0,0.0,0.0,0.0,0.0,0.0,0.0,0.0,0.0,0.0,0.0,0.0,0.0,0.0,0.0,0.0,0.0,0.0,0.0,0.0,0.0,0.0,0.0,0.0,0.0,0.0,0.0,0.0,0.0,0.0,0.0,0.0,0.0,0.0,0.0,0.0,0.0,0.0,0.0,0.0,0.0,0.0,0.0,0.0,0.0,0.0,0.0,0.0,0.0,0.0,0.0,0.0,0.0,0.0,0.0,0.0,0.0,0.0,0.0,0.0,0.0,0.0,0.0,0.0,0.0,0.0,0.0,0.0,0.0,0.0,0.0,0.0,0.0,0.0,0.0,0.0,0.0,0.0,0.0,0.0,0.0,0.0,0.0,0.0,0.0,0.0,0.0,0.0,0.0,0.0,0.0,0.0,0.0,0.0,0.0,0.0,0.0,0.0,0.0,0.0,0.0,0.0,0.0,0.0,0.0,0.0,0.0,0.0,0.0,0.0,0.0,0.0,0.0,0.0,0.0,0.0,0.0,0.0,0.0,0.0,0.0,0.0,0.0,0.0,0.0,0.0,0.0,0.0,0.0,0.0,0.0,0.0,0.0,0.0,0.0,0.0,0.0,0.0,0.0,0.0,0.0,0.0,0.0,0.0,0.0,0.0,0.0,0.0,0.0,0.0,0.0,0.0,0.0,0.0,0.0,0.0,0.0,0.0,-0.9616,0.0,0.0,0.0,0.0,0.0,0.0,0.0,0.0,0.0,0.0,0.0,0.0,0.0,0.0,0.0,0.0,0.0,0.0,0.0,0.0,0.0,0.0,0.0,0.0,0.0,0.0,0.0,0.0,0.0,0.0,0.0,0.0,0.0,0.0,0.0,0.0,0.0,0.0,0.0,0.0,0.0,0.0,0.0,0.0,0.0,0.0,0.0,0.0,0.0,0.0,0.0,0.0,0.0,0.0,0.0,0.0,0.0,0.0,0.0,0.0,0.0,0.0,0.0,0.0,0.0,0.0,0.0,0.0,0.0,0.0,0.0,0.0,0.0,0.0,0.0,0.0,0.0,0.0,0.0,0.0,0.0,0.0,0.0,0.0,0.0,0.0,0.0,0.0,0.0,0.0,0.0,0.0,0.0,0.0,0.0,0.0,0.0,0.0,0.0,0.0,0.0,0.0,0.0,0.0,0.0,0.0,0.0,0.0,0.0,0.0,-0.9527,-0.9624,-0.9624,-0.9575,-0.9478,0.0,0.0,0.0,0.0,0.0,0.0,0.0,0.0,0.0,0.0,0.0,0.0,0.0,0.0,0.0,0.0,0.0,0.0,0.0,0.0,0.0,0.0,0.0,0.0,0.0,0.0,0.0,0.0,0.0,0.0,0.0,0.0,0.0,0.0,0.0,0.0,0.0,0.0,0.0,0.0,0.0,0.0,0.0,0.0,0.0,0.0,0.0,0.0,0.0,0.0,0.0,0.0,0.0,0.0,0.0,0.0,0.0,0.0,0.0,0.0,0.0,0.0,0.0,0.0,0.0,0.0,0.0,0.0,0.0,0.0,0.0,0.0,0.0,0.0,0.0,0.0,0.0,0.0,0.0,0.0,0.0,0.0,0.0,0.0,0.0,0.0,0.0,0.0,0.0,0.0,0.0,0.0,0.0,0.0,0.0,0.0,0.0,0.0,0.0,0.0,0.0,0.0,0.0,0.0,0.0,0.0,0.0,0.0,0.0,0.0,0.0,0.0,-0.9533,-0.9429,-0.9395,0.0,0.0,0.0,0.0,0.0,0.0,0.0,0.0,0.0,0.0,0.0,0.0,0.0,0.0,0.0,0.0,0.0,0.0,0.0,0.0,0.0,0.0,0.0,0.0,0.0,0.0,0.0,0.0,0.0,0.0,0.0,0.0,0.0,0.0,0.0,0.0,0.0,0.0,0.0,0.0,0.0,0.0,0.0,0.0,0.0,0.0,0.0,0.0,0.0,0.0,0.0,0.0,0.0,0.0,0.0,0.0,0.0,0.0,0.0,0.0,0.0,0.0,0.0,0.0,0.0,0.0,0.0,0.0,0.0,0.0,0.0,0.0,0.0,0.0,0.0,0.0,0.0,0.0,0.0,0.0,0.0,0.0,0.0,0.0,0.0,0.0,0.0,0.0,0.0,0.0,0.0,0.0,0.0,0.0,0.0,0.0,0.0,0.0,0.0,0.0,0.0,0.0,0.0,0.0,0.0,0.0,0.0,0.0,0.0,0.0,-0.932,-0.9624,-0.9327,0.0,-0.9145,0.0,0.0,0.0,0.0,0.0,0.0,0.0,0.0,0.0,0.0,0.0,0.0,0.0,0.0,0.0,0.0,0.0,0.0,0.0,0.0,0.0,0.0,0.0,0.0,0.0,0.0,0.0,0.0,0.0,0.0,0.0,0.0,0.0,0.0,0.0,0.0,0.0,0.0,0.0,0.0,0.0,0.0,0.0,0.0,0.0,0.0,0.0,0.0,0.0,0.0,0.0,0.0,0.0,0.0,0.0,0.0,0.0,0.0,0.0,0.0,0.0,0.0,0.0,0.0,0.0,0.0,0.0,0.0,0.0,0.0,0.0,0.0,0.0,0.0,0.0,0.0,0.0,0.0,0.0,0.0,0.0,0.0,0.0,0.0,0.0,0.0,0.0,0.0,0.0,0.0,0.0,0.0,0.0,0.0,0.0,0.0,0.0,0.0,0.0,0.0,0.0,0.0,0.0,0.0,0.0,0.0,0.0,0.0,0.0,0.0,0.0,-0.9327,-0.9227,-0.9155,0.0,0.0,0.0,0.0,0.0,0.0,0.0,0.0,0.0,0.0,0.0,0.0,0.0,0.0,0.0,0.0,0.0,0.0,0.0,0.0,0.0,0.0,0.0,0.0,0.0,0.0,0.0,0.0,0.0,0.0,0.0,0.0,0.0,0.0,0.0,0.0,0.0,0.0,0.0,0.0,0.0,0.0,0.0,0.0,0.0,0.0,0.0,0.0,0.0,0.0,0.0,0.0,0.0,0.0,0.0,0.0,0.0,0.0,0.0,0.0,0.0,0.0,0.0,0.0,0.0,0.0,0.0,0.0,0.0,0.0,0.0,0.0,0.0,0.0,0.0,0.0,0.0,0.0,0.0,0.0,0.0,0.0,0.0,0.0,0.0,0.0,0.0,0.0,0.0,0.0,0.0,0.0,0.0,0.0,0.0,0.0,0.0,0.0,0.0,0.0,0.0,0.0,0.0,0.0,0.0,0.0,0.0,0.0,0.0,0.0,-0.8893,0.0,-0.9053,-0.9164,-0.9177,-0.9023,0.0,0.0,0.0,0.0,0.0,0.0,0.0,0.0,0.0,0.0,0.0,0.0,0.0,0.0,0.0,0.0,0.0,0.0,0.0,0.0,0.0,0.0,0.0,0.0,0.0,0.0,0.0,0.0,0.0,0.0,0.0,0.0,0.0,0.0,0.0,0.0,0.0,0.0,0.0,0.0,0.0,0.0,0.0,0.0,0.0,0.0,0.0,0.0,0.0,0.0,0.0,0.0,0.0,0.0,0.0,0.0,0.0,0.0,0.0,0.0,0.0,0.0,0.0,0.0,0.0,0.0,0.0,0.0,0.0,0.0,0.0,0.0,0.0,0.0,0.0,0.0,0.0,0.0,0.0,0.0,0.0,0.0,0.0,0.0,0.0,0.0,0.0,0.0,0.0,0.0,0.0,0.0,0.0,0.0,0.0,0.0,0.0,0.0,0.0,0.0,0.0,0.0,0.0,0.0,0.0,0.0,0.0,0.0,0.0,-0.8547,-0.8554,-0.8624,-0.9225,-0.9364,0.0,0.0,0.0,0.0,0.0,0.0,0.0,0.0,0.0,0.0,0.0,0.0,0.0,0.0,0.0,0.0,0.0,0.0,0.0,0.0,0.0,0.0,0.0,0.0,0.0,0.0,0.0,0.0,0.0,0.0,0.0,0.0,0.0,0.0,0.0,0.0,0.0,0.0,0.0,0.0,0.0,0.0,0.0,0.0,0.0,0.0,0.0,0.0,0.0,0.0,0.0,0.0,0.0,0.0,0.0,0.0,0.0,0.0,0.0,0.0,0.0,0.0,0.0,0.0,0.0,0.0,0.0,0.0,0.0,0.0,0.0,0.0,0.0,0.0,0.0,0.0,0.0,0.0,0.0,0.0,0.0,0.0,0.0,0.0,0.0,0.0,0.0,0.0,0.0,0.0,0.0,0.0,0.0,0.0,0.0,0.0,0.0,0.0,0.0,0.0,0.0,0.0,0.0,0.0,0.0,0.0,0.0,0.0,0.0,-0.8394,-0.8547,-0.8704,-0.8947,-0.918,-0.9194,0.0,0.0,0.0,0.0,0.0,0.0,0.0,0.0,0.0,0.0,0.0,0.0,0.0,0.0,0.0,0.0,0.0,0.0,0.0,0.0,0.0,0.0,0.0,0.0,0.0,0.0,0.0,0.0,0.0,0.0,0.0,0.0,0.0,0.0,0.0,0.0,0.0,0.0,0.0,0.0,0.0,0.0,0.0,0.0,0.0,0.0,0.0,0.0,0.0,0.0,0.0,0.0,0.0,0.0,0.0,0.0,0.0,0.0,0.0,0.0,0.0,0.0,0.0,0.0,0.0,0.0,0.0,0.0,0.0,0.0,0.0,0.0,0.0,0.0,0.0,0.0,0.0,0.0,0.0,0.0,0.0,0.0,0.0,0.0,0.0,0.0,0.0,0.0,0.0,0.0,0.0,0.0,0.0,0.0,0.0,0.0,0.0,0.0,0.0,0.0,0.0,0.0,0.0,0.0,0.0,0.0,0.0,0.0,0.0,-0.8201,0.0,-0.8977,0.0,-0.918,-0.9104,0.0,0.0,0.0,0.0,0.0,0.0,0.0,0.0,0.0,0.0,0.0,0.0,0.0,0.0,0.0,0.0,0.0,0.0,0.0,0.0,0.0,0.0,0.0,0.0,0.0,0.0,0.0,0.0,0.0,0.0,0.0,0.0,0.0,0.0,0.0,0.0,0.0,0.0,0.0,0.0,0.0,0.0,0.0,0.0,0.0,0.0,0.0,0.0,0.0,0.0,0.0,0.0,0.0,0.0,0.0,0.0,0.0,0.0,0.0,0.0,0.0,0.0,0.0,0.0,0.0,0.0,0.0,0.0,0.0,0.0,0.0,0.0,0.0,0.0,0.0,0.0,0.0,0.0,0.0,0.0,0.0,0.0,0.0,0.0,0.0,0.0,0.0,0.0,0.0,0.0,0.0,0.0,0.0,0.0,0.0,0.0,0.0,0.0,0.0,0.0,0.0,0.0,0.0,0.0,0.0,0.0,0.0,0.0,0.0,-0.8193,-0.8849,-0.9088,-0.8738,-0.9163,-0.9104,0.0,0.0,0.0,0.0,0.0,0.0,0.0,0.0,0.0,0.0,0.0,0.0,0.0,0.0,0.0,0.0,0.0,0.0,0.0,0.0,0.0,0.0,0.0,0.0,0.0,0.0,0.0,0.0,0.0,0.0,0.0,0.0,0.0,0.0,0.0,0.0,0.0,0.0,0.0,0.0,0.0,0.0,0.0,0.0,0.0,0.0,0.0,0.0,0.0,0.0,0.0,0.0,0.0,0.0,0.0,0.0,0.0,0.0,0.0,0.0,0.0,0.0,0.0,0.0,0.0,0.0,0.0,0.0,0.0,0.0,0.0,0.0,0.0,0.0,0.0,0.0,0.0,0.0,0.0,0.0,0.0,0.0,0.0,0.0,0.0,0.0,0.0,0.0,0.0,0.0,0.0,0.0,0.0,0.0,0.0,0.0,0.0,0.0,0.0,0.0,0.0,0.0,0.0,0.0,0.0,0.0,0.0,0.0,0.0,-0.8509,-0.8983,-0.9335,-0.9525,-0.9332,-0.9153,0.0,0.0,0.0,0.0,0.0,0.0,0.0,0.0,0.0,0.0,0.0,0.0,0.0,0.0,0.0,0.0,0.0,0.0,0.0,0.0,0.0,0.0,0.0,0.0,0.0,0.0,0.0,0.0,0.0,0.0,0.0,0.0,0.0,0.0,0.0,0.0,0.0,0.0,0.0,0.0,0.0,0.0,0.0,0.0,0.0,0.0,0.0,0.0,0.0,0.0,0.0,0.0,0.0,0.0,0.0,0.0,0.0,0.0,0.0,0.0,0.0,0.0,0.0,0.0,0.0,0.0,0.0,0.0,0.0,0.0,0.0,0.0,0.0,0.0,0.0,0.0,0.0,0.0,0.0,0.0,0.0,0.0,0.0,0.0,0.0,0.0,0.0,0.0,0.0,0.0,0.0,0.0,0.0,0.0,0.0,0.0,0.0,0.0,0.0,0.0,0.0,0.0,0.0,0.0,0.0,0.0,0.0,0.0,0.0,-0.8718,-0.8985,-0.9214,-0.939,-0.9172,-0.8989,-0.9051,0.0,0.0,0.0,0.0,0.0,0.0,0.0,0.0,0.0,0.0,0.0,0.0,0.0,0.0,0.0,0.0,0.0,0.0,0.0,0.0,0.0,0.0,0.0,0.0,0.0,0.0,0.0,0.0,0.0,0.0,0.0,0.0,0.0,0.0,0.0,0.0,0.0,0.0,0.0,0.0,0.0,0.0,0.0,0.0,0.0,0.0,0.0,0.0,0.0,0.0,0.0,0.0,0.0,0.0,0.0,0.0,0.0,0.0,0.0,0.0,0.0,0.0,0.0,0.0,0.0,0.0,0.0,0.0,0.0,0.0,0.0,0.0,0.0,0.0,0.0,0.0,0.0,0.0,0.0,0.0,0.0,0.0,0.0,0.0,0.0,0.0,0.0,0.0,0.0,0.0,0.0,0.0,0.0,0.0,0.0,0.0,0.0,0.0,0.0,0.0,0.0,0.0,0.0,0.0,0.0,0.0,0.0,0.0,-0.8748,-0.9011,-0.8952,-0.8751,-0.8802,-0.8721,0.0,0.0,0.0,0.0,0.0,0.0,0.0,0.0,0.0,0.0,0.0,0.0,0.0,0.0,0.0,0.0,0.0,0.0,0.0,0.0,0.0,0.0,0.0,0.0,0.0,0.0,0.0,0.0,0.0,0.0,0.0,0.0,0.0,0.0,0.0,0.0,0.0,0.0,0.0,0.0,0.0,0.0,0.0,0.0,0.0,0.0,0.0,0.0,0.0,0.0,0.0,0.0,0.0,0.0,0.0,0.0,0.0,0.0,0.0,0.0,0.0,0.0,0.0,0.0,0.0,0.0,0.0,0.0,0.0,0.0,0.0,0.0,0.0,0.0,0.0,0.0,0.0,0.0,0.0,0.0,0.0,0.0,0.0,0.0,0.0,0.0,0.0,0.0,0.0,0.0,0.0,0.0,0.0,0.0,0.0,0.0,0.0,0.0,0.0,0.0,0.0,0.0,0.0,0.0,0.0,0.0,0.0,0.0,0.0,-0.87,-0.8866,-0.9109,-0.943,-0.9076,-0.8933,0.0,0.0,0.0,0.0,0.0,0.0,0.0,0.0,0.0,0.0,0.0,0.0,0.0,0.0,0.0,0.0,0.0,0.0,0.0,0.0,0.0,0.0,0.0,0.0,0.0,0.0,0.0,0.0,0.0,0.0,0.0,0.0,0.0,0.0,0.0,0.0,0.0,0.0,0.0,0.0,0.0,0.0,0.0,0.0,0.0,0.0,0.0,0.0,0.0,0.0,0.0,0.0,0.0,0.0,0.0,0.0,0.0,0.0,0.0,0.0,0.0,0.0,0.0,0.0,0.0,0.0,0.0,0.0,0.0,0.0,0.0,0.0,0.0,0.0,0.0,0.0,0.0,0.0,0.0,0.0,0.0,0.0,0.0,0.0,0.0,0.0,0.0,0.0,0.0,0.0,0.0,0.0,0.0,0.0,0.0,0.0,0.0,0.0,0.0,0.0,0.0,0.0,0.0,0.0,0.0,0.0,0.0,0.0,-0.8,-0.855,-0.8751,-0.9137,-0.9633,-0.9892,-0.987,0.0,0.0,0.0,0.0,0.0,0.0,0.0,0.0,0.0,0.0,0.0,0.0,0.0,0.0,0.0,0.0,0.0,0.0,0.0,0.0,0.0,0.0,0.0,0.0,0.0,0.0,0.0,0.0,0.0,0.0,0.0,0.0,0.0,0.0,0.0,0.0,0.0,0.0,0.0,0.0,0.0,0.0,0.0,0.0,0.0,0.0,0.0,0.0,0.0,0.0,0.0,0.0,0.0,0.0,0.0,0.0,0.0,0.0,0.0,0.0,0.0,0.0,0.0,0.0,0.0,0.0,0.0,0.0,0.0,0.0,0.0,0.0,0.0,0.0,0.0,0.0,0.0,0.0,0.0,0.0,0.0,0.0,0.0,0.0,0.0,0.0,0.0,0.0,0.0,0.0,0.0,0.0,0.0,0.0,0.0,0.0,0.0,0.0,0.0,0.0,0.0,0.0,0.0,0.0,0.0,0.0,0.0,0.0,-0.7939,-0.8361,-0.8703,-0.9104,-0.957,-1.0644,-1.0979,0.0,0.0,0.0,0.0,0.0,0.0,0.0,0.0,0.0,0.0,0.0,0.0,0.0,0.0,0.0,0.0,0.0,0.0,0.0,0.0,0.0,0.0,0.0,0.0,0.0,0.0,0.0,0.0,0.0,0.0,0.0,0.0,0.0,0.0,0.0,0.0,0.0,0.0,0.0,0.0,0.0,0.0,0.0,0.0,0.0,0.0,0.0,0.0,0.0,0.0,0.0,0.0,0.0,0.0,0.0,0.0,0.0,0.0,0.0,0.0,0.0,0.0,0.0,0.0,0.0,0.0,0.0,0.0,0.0,0.0,0.0,0.0,0.0,0.0,0.0,0.0,0.0,0.0,0.0,0.0,0.0,0.0,0.0,0.0,0.0,0.0,0.0,0.0,0.0,0.0,0.0,0.0,0.0,0.0,0.0,0.0,0.0,0.0,0.0,0.0,0.0,0.0,0.0,0.0,0.0,0.0,0.0,0.0,-0.8153,-0.8472,-0.8913,-0.9377,-0.9757,-0.9871,-1.0154,0.0,0.0,0.0,0.0,0.0,0.0,0.0,0.0,0.0,0.0,0.0,0.0,0.0,0.0,0.0,0.0,0.0,0.0,0.0,0.0,0.0,0.0,0.0,0.0,0.0,0.0,0.0,0.0,0.0,0.0,0.0,0.0,0.0,0.0,0.0,0.0,0.0,0.0,0.0,0.0,0.0,0.0,0.0,0.0,0.0,0.0,0.0,0.0,-1.667,0.0,0.0,0.0,0.0,0.0,0.0,0.0,0.0,0.0,0.0,0.0,0.0,0.0,0.0,0.0,0.0,0.0,0.0,0.0,0.0,0.0,0.0,0.0,0.0,0.0,0.0,0.0,0.0,0.0,0.0,0.0,0.0,0.0,0.0,0.0,0.0,0.0,0.0,0.0,0.0,0.0,0.0,0.0,0.0,0.0,0.0,0.0,0.0,0.0,0.0,0.0,0.0,0.0,0.0,0.0,0.0,0.0,0.0,0.0,-0.8262,-0.8584,-0.8948,-0.9327,-0.9581,-1.0225,-1.083,0.0,0.0,0.0,0.0,0.0,0.0,0.0,0.0,0.0,0.0,0.0,0.0,0.0,0.0,0.0,0.0,0.0,0.0,0.0,0.0,0.0,0.0,0.0,0.0,0.0,0.0,0.0,0.0,0.0,0.0,0.0,0.0,0.0,0.0,0.0,0.0,0.0,0.0,0.0,0.0,0.0,0.0,0.0,0.0,0.0,0.0,0.0,0.0,0.0,0.0,0.0,0.0,0.0,0.0,0.0,0.0,0.0,0.0,0.0,0.0,0.0,0.0,0.0,0.0,0.0,0.0,0.0,0.0,0.0,0.0,0.0,0.0,0.0,0.0,0.0,0.0,0.0,0.0,0.0,0.0,0.0,0.0,0.0,0.0,0.0,0.0,0.0,0.0,0.0,0.0,0.0,0.0,0.0,0.0,0.0,0.0,0.0,0.0,0.0,0.0,0.0,0.0,0.0,0.0,0.0,0.0,0.0,-0.8065,-0.8453,-0.8618,-0.899,-0.924,-0.9368,-1.1022,-1.199,-1.237,0.0,0.0,0.0,0.0,0.0,0.0,0.0,0.0,0.0,0.0,0.0,0.0,0.0,0.0,0.0,0.0,0.0,0.0,0.0,0.0,0.0,0.0,0.0,0.0,0.0,0.0,0.0,0.0,0.0,0.0,0.0,0.0,0.0,0.0,0.0,0.0,0.0,0.0,-1.5271,-1.6112,0.0,0.0,0.0,0.0,0.0,0.0,0.0,0.0,-1.641,0.0,0.0,0.0,0.0,0.0,0.0,0.0,0.0,0.0,0.0,0.0,0.0,0.0,0.0,0.0,0.0,0.0,0.0,0.0,0.0,0.0,0.0,0.0,0.0,0.0,0.0,0.0,0.0,0.0,0.0,0.0,0.0,0.0,0.0,0.0,0.0,0.0,0.0,0.0,0.0,0.0,0.0,0.0,0.0,0.0,0.0,0.0,0.0,0.0,0.0,0.0,0.0,0.0,0.0,0.0,0.0,-0.7963,-0.8167,-0.8404,-0.8669,-0.8818,-0.9133,-0.9478,-1.1309,-1.2131,-1.2068,0.0,0.0,0.0,0.0,0.0,0.0,0.0,0.0,0.0,0.0,0.0,0.0,0.0,0.0,0.0,0.0,0.0,0.0,0.0,0.0,0.0,0.0,0.0,0.0,0.0,0.0,0.0,0.0,0.0,0.0,0.0,0.0,0.0,0.0,0.0,0.0,0.0,0.0,0.0,-1.674,-1.6834,0.0,0.0,0.0,0.0,0.0,0.0,0.0,0.0,-1.638,0.0,0.0,0.0,0.0,0.0,0.0,0.0,0.0,0.0,0.0,0.0,0.0,0.0,0.0,0.0,0.0,0.0,0.0,0.0,0.0,0.0,0.0,0.0,0.0,0.0,0.0,0.0,0.0,0.0,0.0,0.0,0.0,0.0,0.0,0.0,0.0,0.0,0.0,0.0,0.0,0.0,0.0,0.0,0.0,0.0,0.0,0.0,0.0,0.0,0.0,0.0,0.0,0.0,0.0,0.0,-0.7923,-0.8221,-0.8486,-0.8703,-0.8859,-0.894,-0.9154,-1.1274,-1.2193,0.0,0.0,0.0,0.0,0.0,0.0,0.0,0.0,0.0,0.0,0.0,0.0,0.0,0.0,0.0,0.0,0.0,0.0,0.0,0.0,0.0,0.0,0.0,0.0,0.0,0.0,0.0,0.0,0.0,0.0,0.0,0.0,0.0,0.0,0.0,0.0,0.0,0.0,0.0,0.0,-1.7034,-1.7101,-1.7555,0.0,0.0,0.0,0.0,0.0,0.0,-1.6366,-1.6326,0.0,0.0,0.0,0.0,0.0,0.0,0.0,0.0,0.0,0.0,0.0,0.0,0.0,0.0,0.0,0.0,0.0,0.0,0.0,0.0,0.0,0.0,0.0,0.0,0.0,0.0,0.0,0.0,0.0,0.0,0.0,0.0,0.0,0.0,0.0,0.0,0.0,0.0,0.0,0.0,0.0,0.0,0.0,0.0,0.0,0.0,0.0,0.0,0.0,0.0,0.0,0.0,0.0,0.0,0.0,-0.7862,-0.8241,-0.8547,-0.875,-0.8872,-0.894,-0.8933,-1.0957,-1.189,0.0,0.0,0.0,0.0,0.0,0.0,0.0,0.0,0.0,0.0,0.0,0.0,0.0,0.0,0.0,0.0,0.0,0.0,0.0,0.0,0.0,0.0,0.0,0.0,0.0,0.0,0.0,0.0,0.0,0.0,0.0,0.0,0.0,0.0,0.0,0.0,0.0,0.0,0.0,0.0,0.0,-1.7448,-1.7729,-1.7422,0.0,0.0,0.0,0.0,-1.6446,-1.6553,0.0,0.0,0.0,0.0,0.0,0.0,0.0,0.0,0.0,0.0,0.0,0.0,0.0,0.0,0.0,0.0,0.0,0.0,0.0,0.0,0.0,0.0,0.0,0.0,0.0,0.0,0.0,0.0,0.0,0.0,0.0,0.0,0.0,0.0,0.0,0.0,0.0,0.0,0.0,0.0,0.0,0.0,0.0,0.0,0.0,0.0,0.0,0.0,0.0,0.0,0.0,0.0,0.0,0.0,0.0,0.0,-0.8004,-0.8201,-0.8499,-0.8886,-0.8927,-0.894,-0.8933,-1.0216,-1.118,0.0,0.0,0.0,0.0,0.0,0.0,0.0,0.0,0.0,0.0,0.0,0.0,0.0,0.0,0.0,0.0,0.0,0.0,0.0,0.0,0.0,0.0,0.0,0.0,0.0,0.0,0.0,0.0,0.0,0.0,0.0,0.0,0.0,0.0,0.0,0.0,0.0,0.0,0.0,0.0,0.0,-1.7675,-1.6954,-1.7021,-1.7048,0.0,0.0,-1.7048,-1.7048,-1.7502,0.0,0.0,0.0,0.0,0.0,0.0,0.0,0.0,0.0,0.0,0.0,0.0,0.0,0.0,0.0,0.0,0.0,0.0,0.0,0.0,0.0,0.0,0.0,0.0,0.0,0.0,0.0,0.0,0.0,0.0,0.0,0.0,0.0,0.0,0.0,0.0,0.0,0.0,0.0,0.0,0.0,0.0,0.0,0.0,0.0,0.0,0.0,0.0,0.0,0.0,0.0,0.0,0.0,0.0,0.0,-0.7631,-0.7909,-0.8228,-0.8567,-0.892,-0.894,-0.894,-0.8933,-0.9813,-1.0615,0.0,0.0,0.0,0.0,0.0,0.0,0.0,0.0,0.0,0.0,0.0,0.0,0.0,0.0,0.0,0.0,0.0,0.0,0.0,0.0,0.0,0.0,0.0,0.0,0.0,0.0,0.0,0.0,0.0,0.0,0.0,0.0,0.0,0.0,0.0,0.0,0.0,0.0,0.0,0.0,0.0,0.0,-1.7462,-1.7422,0.0,0.0,0.0,-1.7257,-1.7257,0.0,0.0,0.0,0.0,0.0,0.0,0.0,0.0,0.0,0.0,0.0,0.0,0.0,0.0,0.0,0.0,0.0,0.0,0.0,0.0,0.0,0.0,0.0,0.0,0.0,0.0,0.0,0.0,0.0,0.0,0.0,0.0,0.0,0.0,0.0,0.0,0.0,0.0,0.0,0.0,0.0,0.0,0.0,0.0,0.0,0.0,0.0,0.0,0.0,0.0,0.0,0.0,0.0,0.0,0.0,0.0,0.0,-0.7814,-0.8255,-0.8635,-0.8927,-0.894,-0.894,-0.8927,-0.9474,0.0,0.0,0.0,0.0,0.0,0.0,0.0,0.0,0.0,0.0,0.0,0.0,0.0,0.0,0.0,0.0,0.0,0.0,0.0,0.0,0.0,0.0,0.0,0.0,0.0,0.0,0.0,0.0,0.0,0.0,0.0,0.0,0.0,0.0,0.0,0.0,0.0,0.0,0.0,0.0,0.0,0.0,-1.7368,-1.7662,-1.7702,-1.7729,0.0,0.0,-1.7395,-1.7475,-1.7796,-1.7756,0.0,0.0,0.0,0.0,0.0,0.0,0.0,0.0,0.0,0.0,0.0,0.0,0.0,0.0,0.0,0.0,0.0,0.0,0.0,0.0,0.0,0.0,0.0,0.0,0.0,0.0,0.0,0.0,0.0,0.0,0.0,0.0,0.0,0.0,0.0,0.0,0.0,0.0,0.0,0.0,0.0,0.0,0.0,0.0,0.0,0.0,0.0,0.0,0.0,0.0,0.0,0.0,0.0,0.0,0.0,-0.7821,-0.8255,-0.8628,-0.8927,-0.894,-0.894,-0.8933,-0.8962,-0.976,0.0,0.0,0.0,0.0,0.0,0.0,0.0,0.0,0.0,0.0,0.0,0.0,0.0,0.0,0.0,0.0,0.0,0.0,0.0,0.0,0.0,0.0,0.0,0.0,0.0,0.0,0.0,0.0,0.0,0.0,0.0,0.0,0.0,0.0,0.0,0.0,0.0,0.0,0.0,0.0,0.0,-1.7368,-1.6874,-1.7488,-1.8103,0.0,0.0,-1.809,-1.8357,-1.8865,-1.8771,-1.7355,0.0,0.0,0.0,0.0,0.0,0.0,0.0,0.0,0.0,0.0,0.0,0.0,0.0,0.0,0.0,0.0,0.0,0.0,0.0,0.0,0.0,0.0,0.0,0.0,0.0,0.0,0.0,0.0,0.0,0.0,0.0,0.0,0.0,0.0,0.0,0.0,0.0,0.0,0.0,0.0,0.0,0.0,0.0,0.0,0.0,0.0,0.0,0.0,0.0,0.0,0.0,0.0,0.0,-0.7624,-0.7685,-0.8208,-0.8628,-0.8927,-0.894,-0.894,-0.894,-0.8749,-0.9422,0.0,0.0,0.0,0.0,0.0,0.0,0.0,0.0,0.0,0.0,0.0,0.0,0.0,0.0,0.0,0.0,0.0,0.0,0.0,0.0,0.0,0.0,0.0,0.0,0.0,0.0,0.0,0.0,-0.7983,-0.7303,-0.7133,0.0,0.0,0.0,0.0,0.0,0.0,0.0,0.0,0.0,0.0,-1.716,-1.7292,-1.7875,0.0,0.0,-1.8397,-1.8424,-1.8718,-1.8798,-1.8504,-1.7569,-1.7114,0.0,0.0,0.0,0.0,0.0,0.0,0.0,0.0,0.0,0.0,0.0,0.0,0.0,0.0,0.0,0.0,0.0,0.0,0.0,0.0,0.0,0.0,0.0,0.0,0.0,0.0,0.0,0.0,0.0,0.0,0.0,0.0,0.0,0.0,0.0,0.0,0.0,0.0,0.0,0.0,0.0,0.0,0.0,0.0,0.0,0.0,0.0,0.0,0.0,0.0,0.0,0.0,-0.7597,-0.7604,-0.818,-0.8608,-0.8866,-0.8913,-0.894,-0.8933,-0.9004,-0.969,0.0,0.0,0.0,0.0,0.0,0.0,0.0,0.0,0.0,0.0,0.0,0.0,0.0,0.0,0.0,0.0,0.0,0.0,0.0,0.0,0.0,0.0,0.0,0.0,0.0,0.0,0.0,0.0,-0.8288,-0.724,-0.7267,0.0,0.0,0.0,0.0,0.0,0.0,0.0,0.0,0.0,0.0,-1.6911,-1.6965,-1.7786,-1.849,-1.849,-1.841,-1.8424,-1.8624,-1.8571,-1.8263,-1.7569,0.0,0.0,0.0,0.0,0.0,0.0,0.0,0.0,0.0,0.0,0.0,0.0,0.0,0.0,0.0,0.0,0.0,0.0,0.0,0.0,0.0,0.0,0.0,0.0,0.0,0.0,0.0,0.0,0.0,0.0,-0.7048,0.0,0.0,0.0,0.0,0.0,0.0,0.0,0.0,0.0,0.0,0.0,0.0,0.0,0.0,0.0,0.0,0.0,0.0,0.0,0.0,0.0,0.0,0.0,-0.7611,-0.818,-0.8554,-0.8716,-0.8859,-0.8933,-0.8933,-0.9869,-1.0758,-1.1554,0.0,0.0,0.0,0.0,0.0,0.0,0.0,0.0,0.0,0.0,0.0,0.0,0.0,0.0,0.0,0.0,0.0,0.0,0.0,0.0,0.0,0.0,0.0,0.0,0.0,0.0,-0.9897,-0.8263,-0.7047,0.0,0.0,0.0,0.0,0.0,0.0,0.0,0.0,0.0,0.0,-1.4777,-1.6723,-1.5648,-1.7219,-1.849,-1.8504,-1.8263,-1.7968,-1.8103,-1.8303,-1.8183,0.0,0.0,0.0,0.0,0.0,0.0,0.0,0.0,0.0,0.0,0.0,0.0,0.0,0.0,0.0,0.0,0.0,0.0,0.0,0.0,0.0,0.0,0.0,0.0,0.0,0.0,0.0,-0.7088,-0.7,0.0,0.0,0.0,0.0,0.0,0.0,0.0,0.0,0.0,0.0,0.0,-0.7292,-0.7292,0.0,0.0,0.0,0.0,0.0,0.0,0.0,0.0,0.0,0.0,0.0,0.0,-0.7597,-0.7624,-0.8085,-0.8459,-0.8703,-0.8757,-0.8832,-0.8933,-0.9977,-1.1102,-1.2225,0.0,0.0,0.0,0.0,0.0,0.0,0.0,0.0,0.0,0.0,0.0,0.0,0.0,0.0,0.0,0.0,0.0,0.0,0.0,0.0,0.0,0.0,0.0,0.0,0.0,-0.9827,0.0,0.0,0.0,0.0,0.0,0.0,0.0,0.0,0.0,0.0,0.0,-1.19,-1.0556,-1.3824,-1.6101,-1.5399,-1.6989,-1.8321,0.0,0.0,0.0,0.0,0.0,0.0,0.0,0.0,0.0,0.0,0.0,0.0,0.0,0.0,-1.6777,-1.6005,-1.6239,-1.6457,-1.5819,0.0,0.0,0.0,0.0,0.0,0.0,0.0,0.0,0.0,0.0,0.0,0.0,0.0,0.0,-0.7122,0.0,-0.7082,0.0,0.0,0.0,0.0,0.0,0.0,0.0,0.0,-0.7502,-0.7502,-0.7455,-0.7448,-0.7455,0.0,-0.7502,-0.74,0.0,0.0,0.0,0.0,0.0,0.0,0.0,0.0,-0.7597,-0.7617,-0.8038,-0.8391,-0.8621,-0.8682,-0.8784,-0.8927,-1.0301,-1.1587,-1.2774,-1.344,-1.3574,0.0,0.0,0.0,0.0,0.0,0.0,0.0,0.0,0.0,0.0,0.0,0.0,0.0,0.0,0.0,0.0,0.0,0.0,0.0,0.0,0.0,0.0,0.0,-1.0238,0.0,0.0,0.0,0.0,0.0,0.0,0.0,0.0,0.0,-0.9819,-1.082,-1.0984,-0.9564,-1.308,-1.5446,-1.446,0.0,0.0,0.0,0.0,0.0,0.0,0.0,-1.7502,-1.7649,-1.7756,-1.7729,-1.7635,-1.7689,-1.7716,-1.7595,0.0,0.0,-1.678,-1.6981,-1.7177,-1.6647,-1.6673,-1.6727,-1.6727,-1.6647,-1.658,0.0,0.0,0.0,0.0,0.0,0.0,0.0,0.0,-0.7156,-0.7238,0.0,-0.7353,0.0,0.0,0.0,0.0,0.0,0.0,0.0,0.0,-0.774,-0.774,-0.7624,-0.7617,-0.7617,-0.7617,-0.7753,-0.774,-0.7597,-0.7455,0.0,0.0,0.0,0.0,0.0,0.0,-0.7597,-0.7611,-0.8031,-0.833,-0.8472,-0.8621,-0.8777,-0.9037,-1.094,-1.2329,-1.3169,-1.4145,-1.4347,-1.3665,-1.2864,0.0,0.0,0.0,0.0,0.0,0.0,0.0,0.0,0.0,0.0,0.0,0.0,0.0,0.0,0.0,0.0,0.0,0.0,0.0,0.0,-1.2373,0.0,0.0,0.0,0.0,0.0,0.0,0.0,0.0,0.0,0.0,-0.9076,-0.9648,-0.9697,-0.8862,0.0,0.0,0.0,0.0,-1.7916,-1.7668,-1.7603,-1.7711,-1.7955,-1.8167,-1.8123,-1.8103,0.0,0.0,-1.8557,-1.8263,-1.7969,-1.7675,-1.7862,-1.805,-1.8009,-1.7956,-1.7983,-1.7943,-1.7702,-1.7582,-1.7569,-1.7315,-1.7141,-0.7726,0.0,0.0,0.0,0.0,-0.7468,-0.7468,-0.7468,-0.7468,-0.7428,-0.7366,-0.7251,0.0,0.0,0.0,0.0,0.0,0.0,-0.7651,-0.7753,-0.7794,-0.7848,-0.7909,-0.7916,-0.7916,-0.7916,-0.7957,-0.7896,-0.7753,-0.7706,-0.7536,-0.7244,0.0,0.0,0.0,0.0,-0.7597,-0.7617,-0.7936,-0.818,-0.833,-0.8472,-0.9098,-1.0123,-1.1362,-1.2477,-1.3545,-1.4606,-1.4922,-1.4265,-1.3811,0.0,0.0,0.0,0.0,0.0,0.0,0.0,0.0,0.0,0.0,0.0,0.0,0.0,0.0,0.0,0.0,0.0,0.0,0.0,-1.2059,-1.1556,-1.0837,0.0,0.0,0.0,0.0,0.0,0.0,0.0,0.0,0.0,-0.8507,-0.9314,-0.9556,0.0,0.0,-1.3933,-1.2839,-1.5383,-1.7541,-1.789,0.0,0.0,0.0,-1.8892,-1.8851,-1.8467,-1.8677,-1.8958,-1.9092,-1.8704,-1.833,-1.8237,-1.813,-1.805,-1.805,-1.805,-1.7969,-1.7769,-1.7635,-1.7662,-1.7849,-1.7675,-1.7528,-0.8024,-0.7848,-0.7678,-0.7597,-0.7597,-0.7597,-0.7597,-0.7597,-0.7597,-0.7584,-0.7543,-0.7448,-0.7373,-0.7312,-0.717,0.0,0.0,0.0,-0.776,-0.7902,-0.7902,-0.795,-0.8038,-0.8038,-0.8038,-0.8038,-0.8038,-0.7991,-0.7902,-0.7841,-0.7719,-0.7543,0.0,0.0,-0.7238,-0.7475,-0.7631,-0.7692,-0.7916,-0.8113,-0.8269,-0.8465,-0.9004,-1.0006,-1.1432,-1.2442,-1.3164,-1.4886,-1.5588,-1.5045,-1.4865,-1.4718,0.0,0.0,0.0,0.0,0.0,0.0,0.0,0.0,0.0,0.0,0.0,-1.3293,0.0,0.0,0.0,0.0,-1.2289,-1.2075,-1.2227,-1.1952,0.0,0.0,0.0,0.0,0.0,0.0,0.0,-0.8556,-0.8252,-0.8213,-0.8404,-0.8902,-0.9146,-0.8742,-1.1362,-1.3184,-1.2559,0.0,-1.7508,-1.7896,-1.8236,-1.8632,-1.9052,-1.9302,-1.9277,-1.8937,-1.8878,-1.8971,-1.9132,-1.8704,-1.833,-1.8277,-1.8063,-1.7862,-1.7862,-1.7862,-1.7916,-1.7929,-1.7849,-1.7836,-1.8009,-1.7796,-1.7649,-0.8282,-0.8235,-0.7814,-0.7638,-0.7638,-0.7638,-0.7638,-0.7631,-0.7638,-0.7706,-0.7828,-0.7814,-0.7733,-0.759,-0.7468,0.0,0.0,-0.7828,-0.7902,-0.8038,-0.8038,-0.8038,-0.8038,-0.8038,-0.8038,-0.8038,-0.8038,-0.8038,-0.8031,-0.7896,-0.7821,-0.7807,-0.7543,-0.74,-0.74,-0.7543,-0.7678,-0.7807,-0.7963,-0.8119,-0.8289,-0.8554,-0.8771,-0.8933,-1.1109,-1.2421,-1.2442,-1.4862,-1.6215,-1.5986,-1.5913,-1.5746,-1.5237,0.0,0.0,0.0,0.0,0.0,0.0,0.0,0.0,0.0,0.0,0.0,0.0,0.0,0.0,0.0,-1.2302,0.0,-1.3073,-1.3121,0.0,0.0,0.0,-1.296,-1.1722,-1.0612,-0.9772,-0.9517,0.0,0.0,0.0,0.0,-0.8701,-0.9003,-1.1151,-1.2745,-1.2555,-1.5418,-1.7563,-1.7588,-1.8155,-1.877,-1.9279,-1.9435,-1.9408,-1.9252,-1.9105,-1.8931,-1.8865,-1.845,-1.809,-1.8063,-1.7796,-1.7595,-1.7595,-1.7609,-1.7756,-1.8263,-1.817,-1.7996,-1.7969,-1.7769,-1.7595,-0.837,-0.8248,-0.8024,-0.7936,-0.7936,-0.7936,-0.7936,-0.7936,-0.7936,-0.7957,-0.7977,-0.7862,-0.7733,-0.7604,-0.7672,-0.7746,-0.7814,-0.7929,-0.8004,-0.8038,-0.8038,-0.8038,-0.8038,-0.8038,-0.8038,-0.8038,-0.8038,-0.8038,-0.8038,-0.8004,-0.7929,-0.7807,-0.774,-0.7651,-0.7556,-0.7685,-0.7773,-0.7807,-0.7963,-0.8167,-0.8425,-0.8499,-0.8669,-0.8927,-1.1118,-1.2389,-1.245,-1.4927,-1.6273,-1.6241,-1.6783,-1.6717,-1.5725,-1.4243,0.0,0.0,0.0,0.0,0.0,0.0,0.0,0.0,0.0,-1.2946,-1.2345,0.0,-1.2293,0.0,-1.2912,-1.3225,-1.3361,-1.3373,0.0,0.0,-1.3513,-1.3053,-1.2769,-1.1053,-0.992,-0.9887,-0.9868,-0.9571,-0.8625,-0.9234,-0.9852,-1.0296,-1.1581,-1.2801,-1.363,-1.5619,-1.7139,-1.7576,-1.8433,-1.9193,-1.9305,-1.9372,-1.9292,-1.9065,-1.8971,-1.8851,-1.8624,-1.829,-1.805,-1.8023,-1.7796,-1.7609,-1.7582,-1.7582,-1.7622,-1.7769,-1.7742,-1.7689,-1.7689,-1.7635,-1.7582,-0.8806,-0.8357,-0.86,-0.8428,-0.8038,-0.8038,-0.8038,-0.8038,-0.8038,-0.8038,-0.8031,-0.795,-0.7868,-0.7801,-0.7875,-0.7909,-0.7923,-0.8004,-0.8038,-0.8038,-0.8038,-0.8038,-0.8038,-0.8038,-0.8038,-0.8038,-0.8038,-0.8038,-0.8038,-0.8038,-0.7997,-0.7916,-0.7909,-0.7875,-0.7801,-0.7807,-0.7841,-0.7916,-0.8065,-0.8255,-0.8472,-0.8547,-0.8876,-0.9581,-1.1315,-1.2452,-1.2886,-1.4897,-1.5994,-1.6138,-1.7045,-1.7175,-1.6265,-1.504,-1.4111,0.0,0.0,0.0,0.0,0.0,0.0,0.0,0.0,0.0,0.0,0.0,-1.2531,0.0,0.0,0.0,-1.3615,-1.364,-1.386,-1.4398,-1.4108,-1.3625,-1.3279,-1.2204,-1.1162,-1.0569,-1.0636,-1.0808,-1.0556,-1.0715,-1.1212,-1.2144,-1.2852,-1.3403,-1.418,-1.5681,-1.6942,-1.7439,-1.8572,-1.9462,-1.9461,-1.9372,-1.9265,-1.8985,-1.8811,-1.8637,-1.8343,-1.805,-1.7836,-1.7822,-1.7702,-1.7582,-1.7582,-1.7582,-1.7582,-1.7582,-1.7582,-1.7582,-1.7582,-1.7582,-1.7582,-0.9729,-0.8758,-0.949,-0.9213,-0.8237,-0.8237,-0.8137,-0.8038,-0.8038,-0.8038,-0.8038,-0.8038,-0.8038,-0.8038,-0.8038,-0.8038,-0.8038,-0.8038,-0.8038,-0.8038,-0.8038,-0.8038,-0.8038,-0.8038,-0.8038,-0.8038,-0.8038,-0.8038,-0.8038,-0.8038,-0.8038,-0.8038,-0.8038,-0.8038,-0.8031,-0.7909,-0.7909,-0.8038,-0.8187,-0.8343,-0.8479,-0.8628,-0.9133,-1.0091,-1.1372,-1.2326,-1.3151,-1.4671,-1.5594,-1.5897,-1.6837,-1.719,-1.6675,-1.6178,-1.5318,0.0,-1.417,0.0,0.0,0.0,0.0,0.0,0.0,0.0,0.0,-1.2801,-1.2789,-1.3489,-1.3399,-1.3501,-1.3963,-1.3966,-1.4291,-1.4654,-1.4751,-1.4448,-1.3835,-1.355,-1.2802,-1.141,-1.1475,-1.1958,-1.267,-1.2343,-1.2581,-1.3751,-1.4062,-1.4159,-1.4515,-1.5754,-1.677,-1.708,-1.8385,-1.93,-1.9359,-1.9386,-1.9265,-1.8971,-1.8744,-1.8437,-1.8116,-1.7849,-1.7662,-1.7662,-1.7675,-1.7781,-1.7901,-1.7928,-1.7795,-1.7993,-1.7874,-1.7649,-1.7595,-1.7582,-1.7582,-1.116,-1.0768,-1.0861,-1.0288,-0.932,-0.9312,-0.8825,-0.8038,-0.8038,-0.8038,-0.8038,-0.8038,-0.8038,-0.8038,-0.8038,-0.8038,-0.8038,-0.8038,-0.8038,-0.8038,-0.8038,-0.8038,-0.8038,-0.8038,-0.8038,-0.8038,-0.8038,-0.8038,-0.8038,-0.8038,-0.8038,-0.8038,-0.8038,-0.8038,0.0,0.0,0.0,0.0,-0.8194,-0.8343,-0.8479,-0.8635,-0.8817,-0.9026,-1.0946,0.0,-1.2226,-1.4061,-1.5303,-1.5594,-1.5978,0.0,0.0,0.0,0.0,0.0,0.0,0.0,0.0,0.0,0.0,0.0,-1.415,-1.3815,-1.3546,-1.3723,-1.378,-1.3536,-1.4,-1.4352,-1.4279,-1.4592,-1.4875,-1.4986,-1.4996,-1.4951,-1.4796,-1.3959,-1.3158,-1.2435,-1.2594,-1.2708,-1.2791,-1.2977,-1.3424,-1.4083,-1.4169,-1.46,-1.547,-1.5851,-1.638,-1.7166,-1.8249,-1.9074,-1.9386,-1.9386,-1.9265,-1.8998,-1.8891,-1.8637,-1.817,-1.8023,-1.7956,-1.7956,-1.7956,-1.836,-1.9434,-1.9069,-1.8523,-1.9241,-1.8573,-1.7876,-1.7635,-1.7595,-1.7582,-1.1922,0.0,-1.1805,-1.1365,0.0,-1.0395,-1.01,-0.9509,-0.8428,-0.8038,-0.8038,-0.8038,-0.8038,-0.8038,-0.8038,-0.8038,-0.8038,-0.8038,-0.8038,-0.8038,-0.8038,-0.8038,-0.8038,-0.8038,-0.8038,-0.8038,-0.8038,-0.8038,-0.8038,-0.8038,-0.8038,-0.8038,-0.8038,-0.8038,-0.8038,-0.8038,-0.8038,-0.8038,-0.8262,-0.8411,-0.8486,-0.871,-0.896,-0.9444,0.0,0.0,0.0,0.0,0.0,0.0,0.0,0.0,0.0,0.0,0.0,-1.58,-1.517,-1.4736,-1.4723,-1.4603,-1.4576,-1.4723,-1.4589,-1.4497,-1.4263,-1.4401,-1.4346,-1.4321,-1.4406,-1.4422,-1.4383,-1.4667,-1.49,-1.4912,-1.5044,-1.5113,-1.4999,-1.4476,-1.4048,-1.3933,-1.3899,-1.3802,-1.3857,-1.4196,-1.4607,-1.4961,-1.503,-1.529,-1.5947,-1.6079,-1.6381,-1.6903,-1.779,-1.8661,-1.9296,-1.9269,-1.915,-1.8884,-1.8918,-1.8744,-1.8343,-1.8263,-1.8263,-1.8263,-1.8263,-1.8536,-1.9085,-1.8919,-1.8658,-1.8946,-1.8687,-1.8223,-1.8036,-1.7796,-1.7582,-1.2657,-1.1853,-1.263,-1.2339,-1.1463,-1.1463,-1.1365,-1.1072,0.0,0.0,0.0,-0.8038,-0.8038,-0.8038,-0.8038,-0.8038,-0.8038,-0.8038,-0.8038,-0.8038,-0.8038,-0.8038,-0.8038,-0.8038,-0.8038,-0.8038,-0.8038,-0.8038,-0.8038,-0.8038,-0.8038,-0.8038,-0.8038,-0.8038,-0.8038,-0.8038,-0.8038,-0.8052,-0.833,-0.8479,-0.8492,-0.8784,-0.9233,-0.9886,-1.101,-1.1967,-1.2485,-1.3745,-1.4546,-1.474,-1.4497,-1.4787,-1.5608,-1.58,-1.6088,-1.647,-1.6142,-1.5899,-1.5899,-1.5773,-1.5454,-1.5271,-1.5206,-1.5206,-1.5177,-1.4851,-1.4773,-1.5045,-1.4659,-1.4358,-1.428,-1.4545,-1.4714,-1.4714,-1.4944,-1.5089,-1.504,-1.4908,-1.4799,-1.4949,-1.4775,-1.4883,-1.5161,-1.5263,-1.5596,-1.5825,-1.5779,-1.6018,-1.6284,-1.6404,-1.6585,-1.6744,-1.753,-1.8336,-1.8829,-1.9037,-1.8905,-1.8951,-1.8897,-1.8891,-1.8664,-1.8571,-1.8571,-1.8571,-1.8571,-1.8709,-1.8972,-1.8901,-1.8736,-1.8904,-1.8682,-1.8557,-1.8464,-1.805,-1.7702,-1.4252,-1.3908,-1.4004,-1.3511,-1.2533,-1.2533,-1.195,-1.1072,-0.9895,-0.8825,-0.8038,-0.8038,-0.8038,-0.8038,-0.8038,-0.8038,-0.8038,-0.8038,-0.8038,0.0,-0.8038,-0.8038,-0.8038,-0.8038,-0.8038,-0.8038,-0.8038,-0.8038,-0.8038,-0.8038,-0.8038,-0.8038,-0.8038,-0.8038,-0.8038,-0.8038,-0.8038,-0.8045,-0.833,-0.8479,-0.8486,-0.8784,-0.8859,-0.9012,-1.0903,-1.1954,-1.1923,-1.3847,-1.4992,-1.4992,-1.4843,-1.492,-1.522,-1.5969,-1.7244,-1.9109,-1.8468,-1.7989,-1.7974,-1.7945,-1.7428,-1.6275,-1.6117,-1.6032,-1.575,-1.5279,-1.5089,-1.5057,-1.4829,-1.4543,-1.4316,-1.4558,-1.4714,-1.4727,-1.4944,-1.5016,-1.4823,-1.4944,-1.4855,-1.4552,-1.4807,-1.5251,-1.5609,-1.5591,-1.5608,-1.5825,-1.5946,-1.6091,-1.6537,-1.6839,-1.6858,-1.6851,-1.7426,-1.7818,-1.7948,-1.8415,-1.8855,-1.8945,-1.9163,-1.9185,-1.8918,-1.8865,-1.8865,-1.8865,-1.8978,-1.9398,-2.0373,-1.9915,-1.9663,-1.9907,-1.9401,-1.8771,-1.8557,-1.821,-1.7969,-1.4413,-1.4304,-1.4304,-1.4004,-1.3607,-1.3607,-1.3028,-1.2047,-1.1463,-1.0681,-0.9706,-0.9114,-0.8825,-0.8825,-0.8237,-0.8038,-0.8038,-0.8038,-0.8038,-0.8038,-0.8038,-0.8038,-0.8038,-0.8038,-0.8038,-0.8038,-0.8038,-0.8038,-0.8038,-0.8038,-0.8038,-0.8038,-0.8038,-0.8038,-0.8038,-0.8038,-0.8038,-0.7945,-0.833,-0.8479,-0.8591,-0.8784,-0.8866,-0.871,-1.0839,-1.1906,-1.1803,-1.397,-1.5113,-1.5113,-1.5077,-1.5141,-1.5141,-1.67,-1.8408,-2.0277,-1.9677,-1.9259,-1.9259,-1.8769,-1.7711,-1.619,-1.5978,-1.5725,-1.5447,-1.5332,-1.5093,-1.468,-1.4678,-1.4592,-1.4304,-1.4545,-1.4654,-1.4497,-1.4847,-1.4992,-1.4799,-1.4944,-1.4951,-1.4867,-1.5047,-1.5482,-1.5823,-1.5737,-1.5741,-1.5897,-1.6103,-1.6477,-1.6851,-1.7129,-1.7298,-1.7181,-1.7523,-1.7584,-1.7572,-1.8169,-1.8648,-1.8881,-1.9127,-1.9305,-1.9172,-1.9158,-1.9158,-1.9273,-1.9603,-2.0116,-2.0371,-2.0385,-2.0315,-1.9773,-1.9453,-1.8865,-1.8718,-1.826,-1.7793,-1.4328,-1.4389,-1.4316,-1.4328,-1.4401,-1.4352,-1.3854,-1.3116,-1.3008,-1.2489,-1.1668,-1.0485,-0.9805,-0.9509,-0.8726,-0.8237,-0.8038,-0.8038,-0.8038,-0.8038,-0.8038,-0.8038,-0.8038,-0.8038,-0.8038,-0.8038,-0.8038,-0.8038,-0.8038,-0.8038,-0.8038,-0.8038,-0.8038,-0.8038,-0.8038,-0.8038,-0.7959,-0.8006,-0.835,-0.8591,-0.8598,-0.8777,-0.8879,-0.8879,-1.0898,-1.2,-1.2049,-1.4126,-1.5282,-1.5282,-1.5475,-1.5462,-1.5336,-1.7305,-1.946,-2.1296,-2.0851,-2.0475,-2.0377,-1.9391,-1.8095,-1.658,-1.6169,-1.5793,-1.5404,-1.5394,-1.5171,-1.4484,-1.4546,-1.4606,-1.4437,-1.4654,-1.4714,-1.4533,-1.4847,-1.5028,-1.4859,-1.504,-1.5185,-1.5107,-1.5427,-1.57,-1.5854,-1.5883,-1.591,-1.6042,-1.6453,-1.6851,-1.7068,-1.731,-1.7467,-1.7479,-1.7479,-1.7479,-1.7584,-1.7948,-1.8415,-1.8765,-1.8997,-1.9229,-1.9345,-1.9359,-1.9359,-1.9461,-2.0026,-2.0357,-2.004,-2.05,-2.0673,-2.0016,-1.9608,-1.9203,-1.8664,-1.8123,-1.7659,-1.4449,-1.4618,-1.4401,-1.4449,-1.4592,-1.4607,-1.4471,-1.4086,-1.3876,-1.3641,-1.3072,-1.1765,-1.0493,-0.9706,-0.9509,-0.8924,-0.8038,-0.8038,-0.8038,-0.8045,-0.8038,-0.8038,-0.8045,-0.8045,-0.8038,-0.8038,-0.8038,-0.8038,-0.8038,-0.8038,-0.8038,-0.8038,-0.8038,-0.8038,-0.8038,-0.8038,-0.8006,-0.8037,-0.83,-0.8479,-0.8604,-0.8784,-0.8933,-0.892,-1.1084,-1.238,-1.2332,-1.4618,-1.5813,-1.5813,-1.5801,-1.5801,-1.5988,-1.7265,-1.9806,-2.3373,-2.2638,-2.1812,-2.1476,-2.0594,-1.942,-1.8296,-1.7603,-1.6938,-1.6026,-1.5579,-1.5089,-1.4582,-1.4558,-1.4666,-1.469,-1.4908,-1.5028,-1.498,-1.5065,-1.5101,-1.5113,-1.5306,-1.5347,-1.5127,-1.5563,-1.5849,-1.5943,-1.5885,-1.6018,-1.6284,-1.6694,-1.7044,-1.7141,-1.7322,-1.7479,-1.7479,-1.7479,-1.7479,-1.7596,-1.7843,-1.8194,-1.8415,-1.8765,-1.901,-1.9243,-1.9359,-1.9372,-1.9359,-1.9591,-2.004,-2.0587,-2.1159,-2.1057,-2.0837,-2.0453,-1.9946,-1.8619,-1.7738,-1.7525,-1.3975,-1.4185,-1.3928,-1.3975,-1.4231,-1.4375,-1.423,-1.4049,-1.3937,-1.3591,-1.3204,-1.2704,-1.1924,-1.0699,-0.9805,-0.9015,-0.8428,-0.8137,-0.8092,-0.816,-0.8085,-0.8085,-0.816,-0.8079,-0.8038,-0.8038,-0.8627,-0.8627,-0.8137,-0.8038,-0.8038,-0.8038,-0.8038,-0.8038,-0.7945,-0.8133,-0.8208,-0.8166,-0.8499,-0.8621,-0.8749,-0.8825,-0.894,-0.9154,-1.1109,-1.2417,-1.2635,-1.4696,-1.5885,-1.5885,-1.5885,-1.5885,-1.5873,-1.7252,-1.9568,-2.2911,-2.3045,-2.2636,-2.2013,-2.12,-2.0082,-1.8274,-1.7639,-1.6937,-1.6047,-1.5409,-1.5101,-1.5208,-1.4983,-1.4831,-1.4956,-1.5052,-1.5113,-1.5125,-1.5246,-1.5342,-1.5342,-1.5572,-1.5728,-1.5623,-1.5813,-1.5885,-1.591,-1.6042,-1.6308,-1.667,-1.6996,-1.7129,-1.7298,-1.7418,-1.7467,-1.7479,-1.7479,-1.7479,-1.7491,-1.7843,-1.7972,-1.8206,-1.8428,-1.8648,-1.8777,-1.8777,-1.8894,-1.8997,-1.9577,-1.9842,-1.9932,-2.1347,-2.1927,-2.1711,-2.0689,-1.9542,-1.7849,-1.7248,-1.7021,-1.3487,-1.3678,-1.3577,-1.3644,-1.3847,-1.4048,-1.3931,-1.367,-1.3566,-1.3324,-1.3031,-1.3088,-1.2638,-1.1608,-1.0177,-0.926,-0.8634,-0.8031,-0.7892,-0.7985,-0.7885,-0.7918,-0.8139,-0.8012,-0.7985,-0.824,-0.8822,-0.8822,-0.8153,-0.816,-0.816,-0.816,-0.816,-0.816,-0.8174,-0.8282,-0.835,-0.8411,-0.8608,-0.873,-0.8893,-0.8886,-0.9044,-0.9478,-1.1328,-1.2526,-1.296,-1.4804,-1.5885,-1.5885,-1.5885,-1.5885,-1.5992,-1.7147,-1.9226,-2.1903,-2.2875,-2.2937,-2.2114,-2.1709,-2.068,-1.8833,-1.7984,-1.7181,-1.6279,-1.5511,-1.533,-1.5778,-1.5433,-1.5191,-1.5221,-1.5282,-1.5318,-1.533,-1.5499,-1.5608,-1.562,-1.5789,-1.5873,-1.5885,-1.5873,-1.5934,-1.603,-1.6308,-1.6682,-1.6996,-1.7141,-1.7249,-1.743,-1.7479,-1.7479,-1.7479,-1.7479,-1.7479,-1.7479,-1.7726,-1.7855,-1.7972,-1.8194,-1.8311,-1.8415,-1.8415,-1.8415,-1.8881,-1.9666,-2.02,-2.033,-2.1429,-2.1869,-2.1976,-2.0972,-1.9078,-1.7781,-1.708,-1.6643,-1.2997,-1.3236,-1.3442,-1.3539,-1.3502,-1.3625,-1.3581,-1.3383,-1.3172,-1.283,-1.2648,-1.2658,-1.2322,-1.1711,-1.0584,-0.957,-0.8443,-0.7653,-0.7378,-0.7397,-0.7366,-0.7516,-0.7833,-0.7717,-0.789,-0.8397,-0.8515,-0.8522,-0.8536,-0.8452,-0.8465,-0.8452,-0.8438,-0.8452,-0.8445,-0.8459,-0.8547,-0.8541,-0.871,-0.8777,-0.8906,-0.8933,-0.9493,-1.0578,-1.1764,-1.297,-1.4062,-1.5256,-1.5897,-1.5897,-1.5922,-1.591,-1.6016,-1.6974,-1.8764,-2.1027,-2.235,-2.2636,-2.2232,-2.2013,-2.1387,-2.004,-1.8887,-1.783,-1.6663,-1.6057,-1.5777,-1.5943,-1.5789,-1.5704,-1.5547,-1.5644,-1.5777,-1.5801,-1.5837,-1.5849,-1.5849,-1.5861,-1.5885,-1.591,-1.5946,-1.6079,-1.6272,-1.673,-1.6972,-1.7141,-1.731,-1.7467,-1.7467,-1.7479,-1.7479,-1.7479,-1.7479,-1.7479,-1.7479,-1.7608,-1.7726,-1.7843,-1.7972,-1.8089,-1.8311,-1.8415,-1.8415,-1.8415,-1.8648,-1.9319,-2.043,-2.0739,-2.0633,-2.0416,-1.9997,-1.871,-1.7623,-1.6893,-1.6443,-1.2625,-1.2863,-1.3236,-1.3309,-1.3205,-1.3398,-1.3264,-1.3086,-1.2979,-1.2636,-1.2384,-1.2472,-1.1925,-1.099,-1.0176,-0.9856,-0.971,-0.8173,-0.7748,-0.8229,-0.7748,-0.7571,-0.7781,-0.7669,-0.7755,-0.8249,-0.8841,-0.925,-0.9406,-0.8898,-0.8479,-0.8479,-0.8479,-0.8479,-0.8499,-0.8581,-0.8655,-0.871,-0.8804,-0.8886,-0.894,-0.9028,-0.9965,-1.1943,-1.2265,-1.3029,-1.4385,-1.5596,-1.6223,-1.6392,-1.6404,-1.6282,-1.6026,-1.6636,-1.7943,-1.9956,-2.1107,-2.1751,-2.1962,-2.1725,-2.1216,-2.0174,-1.9049,-1.7752,-1.6529,-1.605,-1.5885,-1.5885,-1.5885,-1.5825,-1.5801,-1.5837,-1.5885,-1.5885,-1.5885,-1.5897,-1.5885,-1.5885,-1.5946,-1.5994,-1.6162,-1.6513,-1.6718,-1.6972,-1.7153,-1.731,-1.743,-1.7467,-1.7479,-1.7479,-1.7479,-1.7479,-1.7479,-1.7479,-1.7479,-1.7479,-1.7596,-1.7608,-1.7726,-1.7726,-1.783,-1.783,-1.783,-1.8064,-1.8077,-1.8339,-1.9401,-1.9163,-1.9112,-1.959,-1.9048,-1.8493,-1.7378,-1.6908,-1.6497,-1.22,-1.2378,-1.2733,-1.2802,-1.2694,-1.2891,-1.2881,-1.2772,-1.2772,-1.2586,-1.2285,-1.238,-1.1926,-1.1045,-1.0321,-1.0241,-1.0484,-0.8459,-0.7693,-0.8301,-0.7687,-0.7505,-0.7588,-0.7493,-0.7693,-0.8081,-0.8835,-0.9466,-0.9572,-0.8948,-0.8628,-0.8635,-0.8628,-0.8628,-0.8648,-0.8737,-0.8784,-0.8804,-0.8893,-0.896,-0.9008,-0.9103,-1.0416,-1.2459,-1.2691,-1.3457,-1.5188,-1.5975,-1.6501,-1.667,-1.6694,-1.657,-1.6198,-1.6697,-1.7592,-1.9118,-2.03,-2.1164,-2.1707,-2.1674,-2.1258,-2.0286,-1.9252,-1.8007,-1.68,-1.623,-1.5885,-1.5885,-1.5885,-1.5885,-1.591,-1.597,-1.5982,-1.5934,-1.597,-1.6018,-1.6018,-1.6103,-1.6223,-1.6282,-1.6646,-1.7001,-1.7056,-1.7165,-1.7298,-1.7467,-1.7479,-1.7479,-1.7479,-1.7479,-1.7479,-1.7479,-1.7479,-1.7479,-1.7479,-1.7479,-1.7479,-1.7479,-1.7596,-1.7479,-1.7479,-1.7479,-1.7596,-1.7726,-1.791,-1.7915,-1.7932,-1.7728,-1.8059,-1.8823,-1.892,-1.8551,-1.765,-1.6979,-1.6563,-1.1831,-1.1888,-1.2058,-1.2172,-1.2191,-1.2361,-1.2436,-1.2436,-1.2436,-1.2427,-1.2408,-1.2436,-1.2215,-1.1889,-1.1133,-1.0891,-1.0182,-0.8149,-0.7163,-0.7174,-0.6945,-0.7102,-0.7419,-0.7315,-0.7475,-0.7999,-0.8355,-0.8692,-0.8893,-0.8886,-0.8783,-0.8913,-0.8893,-0.8879,-0.892,-0.8913,-0.8927,-0.894,-0.896,-0.9022,-0.9137,-0.9178,-1.0501,-1.268,-1.3032,-1.4189,-1.6494,-1.6706,-1.6718,-1.6742,-1.6754,-1.6718,-1.6754,-1.7167,-1.7785,-1.8561,-1.999,-2.0846,-2.1156,-2.1679,-2.1417,-2.0632,-1.9456,-1.8562,-1.7928,-1.6763,-1.597,-1.5994,-1.597,-1.5946,-1.5994,-1.6163,-1.6187,-1.597,-1.6139,-1.6284,-1.6332,-1.6525,-1.6694,-1.673,-1.7061,-1.7334,-1.7268,-1.7298,-1.7443,-1.7467,-1.7479,-1.7479,-1.7479,-1.7479,-1.7479,-1.7479,-1.7479,-1.7479,-1.7479,-1.7479,-1.7479,-1.7479,-1.7479,-1.7479,-1.7479,-1.7479,-1.7479,-1.7608,-1.7608,-1.7744,-1.7762,-1.759,-1.773,-1.8242,-1.8361,-1.8419,-1.7712,-1.7018,-1.6881,-1.2115,-1.2247,-1.2313,-1.2351,-1.2351,-1.2417,-1.2436,-1.2436,-1.2436,-1.2436,-1.2436,-1.2436,-1.2073,-1.1502,-1.1219,-1.0437,-0.9173,-0.8259,-0.7919,-0.7804,-0.7368,-0.7166,-0.7194,-0.7166,-0.7413,-0.7703,-0.8048,-0.8263,-0.8602,-0.8595,-0.8712,-0.8823,-0.894,-0.894,-0.8947,-0.894,-0.8974,-0.9076,-0.9083,-0.9157,-0.9306,-0.9415,-1.0763,-1.3017,-1.3391,-1.4652,-1.6994,-1.7068,-1.7068,-1.7213,-1.7237,-1.7237,-1.7225,-1.7341,-1.7817,-1.8333,-1.8744,-1.9639,-2.0565,-2.0441,-2.0456,-2.0208,-1.9125,-1.833,-1.8026,-1.6796,-1.6184,-1.6551,-1.6563,-1.6453,-1.6465,-1.6513,-1.6453,-1.6187,-1.6404,-1.6573,-1.6598,-1.6678,-1.6822,-1.6996,-1.7329,-1.7462,-1.7358,-1.7455,-1.7455,-1.7467,-1.7467,-1.7479,-1.7479,-1.7479,-1.7479,-1.7479,-1.7479,-1.7479,-1.7479,-1.7479,-1.7479,-1.7479,-1.7479,-1.7479,-1.7479,-1.7479,-1.7479,-1.7479,-1.7479,-1.7443,-1.7462,-1.7505,-1.7753,-1.765,-1.788,-1.769,-1.7452,-1.7175,-1.7037,-1.2323,-1.2436,-1.2436,-1.2436,-1.2436,-1.2436,-1.2436,-1.2436,-1.2436,-1.2436,-1.2436,-1.2436,-1.1891,-1.1236,-1.1126,-1.0139,-0.8595,-0.8484,-0.8374,-0.8042,-0.7487,-0.7265,-0.7154,-0.7154,-0.7382,-0.7604,-0.7826,-0.8048,-0.8263,-0.8374,-0.8484,-0.8712,-0.8712,-0.8856,-0.9008,-0.891,-0.8864,-0.899,-0.901,-0.9083,-0.9215,-0.9314,-1.0688,-1.3113,-1.3589,-1.4966,-1.7232,-1.7322,-1.731,-1.7455,-1.7479,-1.7479,-1.7479,-1.7467,-1.7628,-1.7955,-1.8352,-1.8971,-1.9808,-1.9822,-1.9682,-1.9668,-1.8789,-1.8078,-1.7728,-1.6754,-1.6458,-1.683,-1.7055,-1.6943,-1.6706,-1.6803,-1.6718,-1.6465,-1.6682,-1.6827,-1.6875,-1.6954,-1.6954,-1.7056,-1.7026,-1.7134,-1.7225,-1.7298,-1.7334,-1.7346,-1.7418,-1.7479,-1.7479,-1.7479,-1.7479,-1.7479,-1.7479,-1.7479,-1.7479,-1.7479,-1.7479,-1.7479,-1.7479,-1.7479,-1.7479,-1.7479,-1.7479,-1.7479,-1.7479,-1.7479,-1.7523,-1.7535,-1.7615,-1.7479,-1.7479,-1.7499,-1.7353,-1.7353,-1.7213,-1.2436,-1.2436,-1.2436,-1.2436,-1.2436,-1.2436,-1.2436,-1.2436,-1.2436,-1.2436,-1.2436,-1.2436,-1.1891,-1.1236,-1.1126,-1.0139,-0.8706,-0.8484,-0.8042,-0.7487,-0.7154,-0.7154,-0.7154,-0.7154,-0.7271,-0.7493,-0.7604,-0.7715,-0.7937,-0.8066,-0.8171,-0.8517,-0.8542,-0.8693,-0.8917,-0.883,-0.8781,-0.891,-0.858,-0.8648,-0.9004,-0.9142,-1.0621,-1.3398,-1.3655,-1.4857,-1.7114,-1.7491,-1.7491,-1.7491,-1.7479,-1.7479,-1.7479,-1.7479,-1.7467,-1.756,-1.8402,-1.8726,-1.9087,-1.9354,-1.9598,-1.911,-1.8555,-1.8236,-1.7501,-1.7114,-1.6779,-1.7016,-1.7291,-1.7278,-1.6928,-1.6923,-1.6923,-1.6803,-1.6863,-1.6984,-1.7068,-1.7261,-1.7189,-1.6798,-1.6696,-1.6791,-1.6923,-1.708,-1.7153,-1.7213,-1.737,-1.7455,-1.7479,-1.7479,-1.7479,-1.7479,-1.7479,-1.7479,-1.7479,-1.7479,-1.7503,-1.7624,-1.7599,-1.7563,-1.7515,-1.7503,-1.7479,-1.7479,-1.7527,-1.7515,-1.7491,-1.7491,-1.7491,-1.7479,-1.7479,-1.7479,-1.7455,-1.7418,-1.7382,-1.2436,-1.2436,-1.2436,-1.2436,-1.2436,-1.2436,-1.2436,-1.2436,-1.2436,-1.2327,-1.2327,-1.2436,-1.1891,-1.1126,-1.1017,-1.0139,-0.8816,-0.8484,-0.8042,-0.7265,-0.7154,-0.7154,-0.7154,-0.7154,-0.7271,-0.7271,-0.7393,-0.7493,-0.7721,-0.7809,-0.7963,-0.8314,-0.8394,-0.8468,-0.8634,-0.8518,-0.8592,-0.8816,-0.8716,-0.854,-0.8642,-0.9029,-1.0612,-1.3048,-1.3545,-1.4976,-1.7268,-1.7672,-1.7672,-1.7491,-1.7479,-1.7479,-1.7515,-1.7503,-1.7515,-1.7645,-1.7726,-1.8181,-1.8648,-1.8532,-1.8415,-1.8739,-1.8071,-1.7449,-1.7207,-1.7285,-1.7236,-1.7159,-1.728,-1.7304,-1.7044,-1.7044,-1.7044,-1.6996,-1.6899,-1.6839,-1.6875,-1.6894,-1.6875,-1.6918,-1.6819,-1.6866,-1.7098,-1.7261,-1.7334,-1.7346,-1.7406,-1.7479,-1.7479,-1.7479,-1.7479,-1.7479,-1.7479,-1.7479,-1.7479,-1.7479,-1.7563,-1.7744,-1.7768,-1.7708,-1.7636,-1.7551,-1.7515,-1.7479,-1.7624,-1.7648,-1.7551,-1.7503,-1.7491,-1.7575,-1.7527,-1.7551,-1.7503,-1.7455,-1.7455,-1.1555,-1.1891,-1.1891,-1.211,-1.2327,-1.2436,-1.2436,-1.2436,-1.2436,-1.211,-1.1891,-1.1891,-1.1118,-1.0029,-1.0029,-0.9258,-0.8042,-0.7931,-0.7709,-0.7265,-0.7154,-0.7154,-0.7154,-0.7154,-0.7182,-0.723,-0.723,-0.7381,-0.7545,-0.7612,-0.787,-0.8111,-0.8183,-0.8365,-0.8537,-0.8307,-0.8367,-0.8594,-0.8497,-0.8291,-0.8233,-0.8726,-1.0587,-1.2535,-1.312,-1.3923,-1.6436,-1.7553,-1.7793,-1.7696,-1.7613,-1.7565,-1.7805,-1.7577,-1.7577,-1.7781,-1.7624,-1.7867,-1.8189,-1.7787,-1.7713,-1.804,-1.7554,-1.7329,-1.7129,-1.7219,-1.7068,-1.6948,-1.7092,-1.7117,-1.7117,-1.7092,-1.7092,-1.7056,-1.6851,-1.6754,-1.6851,-1.6748,-1.6736,-1.6942,-1.7014,-1.7006,-1.7201,-1.7261,-1.731,-1.7334,-1.7394,-1.7455,-1.7479,-1.7479,-1.7503,-1.7515,-1.7612,-1.7672,-1.7744,-1.7768,-1.7841,-1.7998,-1.8082,-1.7998,-1.7913,-1.7793,-1.7793,-1.7805,-1.7805,-1.7673,-1.7756,-1.7732,-1.7781,-1.7805,-1.7696,-1.7612,-1.7575,-1.7599,-1.7587,-1.0241,-1.0907,-1.0907,-1.1337,-1.1882,-1.211,-1.1882,-1.211,-1.1991,-1.1555,-1.1126,-1.0907,-1.0139,-0.8484,-0.8816,-0.8042,-0.7265,-0.7376,-0.7282,-0.7187,-0.7209,-0.7225,-0.723,-0.7203,-0.7258,-0.7339,-0.7355,-0.7404,-0.747,-0.7513,-0.7652,-0.7897,-0.8026,-0.8201,-0.8289,-0.8193,-0.8257,-0.8332,-0.8099,-0.7978,-0.8,-0.8389,-1.0033,-1.2306,-1.2882,-1.3733,-1.5803,-1.7236,-1.7986,-1.7974,-1.7753,-1.7887,-1.8155,-1.7817,-1.7781,-1.7986,-1.7708,-1.7693,-1.7851,-1.7693,-1.7479,-1.7584,-1.756,-1.7358,-1.7141,-1.6839,-1.6641,-1.6851,-1.6779,-1.6846,-1.7044,-1.7068,-1.7056,-1.7044,-1.6875,-1.6887,-1.6966,-1.6925,-1.6738,-1.6726,-1.7236,-1.7236,-1.7061,-1.6972,-1.7153,-1.7346,-1.7406,-1.7455,-1.7527,-1.7575,-1.7587,-1.7599,-1.7732,-1.7913,-1.801,-1.8106,-1.8203,-1.8312,-1.842,-1.842,-1.8372,-1.8287,-1.8251,-1.8215,-1.8082,-1.8082,-1.8131,-1.8131,-1.824,-1.8167,-1.7937,-1.7805,-1.7696,-1.7781,-1.7805,-0.9567,-0.9442,-0.9904,-0.9896,-0.9771,-1.0116,-1.0343,-1.046,-1.0351,-1.0351,-1.0131,-1.0131,-0.9471,-0.8484,-0.8374,-0.8042,-0.7271,-0.7165,-0.7203,-0.7307,-0.7404,-0.7437,-0.7415,-0.735,-0.7372,-0.7453,-0.7481,-0.7497,-0.754,-0.7622,-0.766,-0.779,-0.7851,-0.7922,-0.806,-0.806,-0.7961,-0.7994,-0.7994,-0.7877,-0.8027,-0.8335,-0.9379,-1.1279,-1.3331,-1.5022,-1.6102,-1.7642,-1.8505,-1.8432,-1.8325,-1.8082,-1.8155,-1.8056,-1.797,-1.7851,-1.7624,-1.7515,-1.7551,-1.7539,-1.7479,-1.7467,-1.7334,-1.7153,-1.7117,-1.6586,-1.6436,-1.6791,-1.6807,-1.6898,-1.7092,-1.6899,-1.696,-1.7056,-1.7068,-1.7105,-1.7298,-1.7018,-1.6898,-1.699,-1.7225,-1.7499,-1.731,-1.7298,-1.7382,-1.7406,-1.7443,-1.7479,-1.7587,-1.7708,-1.7744,-1.7793,-1.7998,-1.8069,-1.8251,-1.836,-1.8493,-1.8577,-1.8686,-1.8746,-1.871,-1.8625,-1.8517,-1.8408,-1.841,-1.8459,-1.8456,-1.8507,-1.8459,-1.8386,-1.8191,-1.8094,-1.8034,-1.8058,-1.801,-0.8582,-0.8796,-0.903,-0.9244,-0.934,-0.9677,-0.9794,-0.9794,-0.9794,-0.9581,-0.9251,-0.914,-0.8699,-0.7931,-0.782,-0.7598,-0.7282,-0.722,-0.7307,-0.741,-0.7491,-0.7546,-0.7595,-0.7551,-0.7546,-0.76,-0.7606,-0.7627,-0.7693,-0.7736,-0.778,-0.778,-0.7845,-0.7856,-0.7872,-0.7872,-0.7867,-0.7872,-0.7872,-0.7894,-0.8088,-0.8262,-0.8591,-1.0273,-1.3295,-1.5554,-1.5322,-1.7314,-1.847,-1.8734,-1.8753,-1.8594,-1.8336,-1.8082,-1.7937,-1.7998,-1.7624,-1.7587,-1.7612,-1.7551,-1.7479,-1.7491,-1.7346,-1.7225,-1.7141,-1.6724,-1.6756,-1.6846,-1.7008,-1.7068,-1.7092,-1.7153,-1.7153,-1.7213,-1.7274,-1.7334,-1.7418,-1.7229,-1.7146,-1.7286,-1.7382,-1.7455,-1.7479,-1.7515,-1.7612,-1.7624,-1.7672,-1.7732,-1.7937,-1.8046,-1.8046,-1.8131,-1.8189,-1.8333,-1.8505,-1.8613,-1.877,-1.8843,-1.8915,-1.8951,-1.8939,-1.8831,-1.871,-1.8638,-1.8714,-1.8799,-1.8758,-1.8787,-1.869,-1.8505,-1.8456,-1.8408,-1.8336,-1.8251,-1.8203,-0.7598,-0.8263,-0.8263,-0.8699,-0.9354,-0.9361,-0.9244,-0.9354,-0.9471,-0.8809,-0.8374,-0.8263,-0.7931,-0.7376,-0.7265,-0.7271,-0.7214,-0.7312,-0.7432,-0.754,-0.7595,-0.7655,-0.7709,-0.7714,-0.7714,-0.7725,-0.7725,-0.7774,-0.7828,-0.7872,-0.785,-0.7867,-0.7867,-0.7872,-0.7872,-0.7872,-0.7888,-0.791,-0.7921,-0.797,-0.8073,-0.8117,-0.8447,-0.9575,-1.2226,-1.4373,-1.4629,-1.6329,-1.807,-1.892,-1.9145,-1.9169,-1.8879,-1.8351,-1.7954,-1.8565,-1.7974,-1.7817,-1.7877,-1.7768,-1.7636,-1.7563,-1.7539,-1.7418,-1.7249,-1.7304,-1.7231,-1.711,-1.7212,-1.7412,-1.7268,-1.7286,-1.7443,-1.7527,-1.7539,-1.7563,-1.7599,-1.7599,-1.7469,-1.7455,-1.7467,-1.7491,-1.7563,-1.7612,-1.7744,-1.7865,-1.7913,-1.801,-1.8215,-1.8348,-1.8348,-1.842,-1.8464,-1.8584,-1.8758,-1.877,-1.8939,-1.8988,-1.906,-1.9072,-1.9084,-1.8988,-1.8891,-1.8963,-1.8976,-1.9,-1.8988,-1.8915,-1.8831,-1.877,-1.8734,-1.8698,-1.8577,-1.8432,-1.8432,-0.7265,-0.7376,-0.7376,-0.7487,-0.7598,-0.7593,-0.7709,-0.7598,-0.7814,-0.7598,-0.7487,-0.7487,-0.7376,-0.7265,-0.716,-0.7209,-0.7328,-0.7442,-0.7551,-0.7671,-0.7741,-0.7812,-0.7812,-0.7823,-0.7828,-0.7839,-0.7834,-0.7845,-0.7861,-0.7872,-0.7872,-0.7872,-0.7872,-0.7872,-0.7872,-0.7877,-0.7932,-0.7992,-0.8019,-0.8084,-0.8193,-0.8296,-0.8513,-0.9001,-1.1264,-1.2588,-1.3917,-1.5355,-1.7076,-1.8431,-1.8944,-1.9072,-1.8988,-1.875,-1.868,-1.836,-1.8239,-1.8106,-1.8143,-1.8155,-1.801,-1.7877,-1.7817,-1.7696,-1.7515,-1.7443,-1.7406,-1.737,-1.7438,-1.7487,-1.7406,-1.7527,-1.7612,-1.7732,-1.7829,-1.7889,-1.8046,-1.7804,-1.7528,-1.766,-1.7587,-1.7587,-1.772,-1.7841,-1.7974,-1.8118,-1.8203,-1.8275,-1.8408,-1.8553,-1.8613,-1.871,-1.8843,-1.8939,-1.9012,-1.9,-1.9036,-1.9048,-1.9084,-1.9096,-1.9096,-1.9084,-1.9072,-1.9072,-1.9072,-1.9048,-1.906,-1.9072,-1.9036,-1.8927,-1.8951,-1.8976,-1.8855,-1.8734,-1.8807,-0.7154,-0.7154,-0.7154,-0.7154,-0.7154,-0.7154,-0.7154,-0.7154,-0.7154,-0.7154,-0.7154,-0.7154,-0.7154,-0.7171,-0.7225,-0.7345,-0.7502,-0.7578,-0.7682,-0.779,-0.7845,-0.7872,-0.7872,-0.7872,-0.7872,-0.7872,-0.7872,-0.7872,-0.7872,-0.7872,-0.7872,-0.7872,-0.7872,-0.7872,-0.7888,-0.7943,-0.7992,-0.8062,-0.8122,-0.8204,-0.8329,-0.8443,-0.8668,-0.9094,-1.0174,-1.1483,-1.2397,-1.3849,-1.5414,-1.7012,-1.8383,-1.877,-1.8792,-1.8903,-1.8924,-1.8529,-1.8396,-1.8312,-1.83,-1.83,-1.8215,-1.8118,-1.8094,-1.8046,-1.7817,-1.7649,-1.7553,-1.7589,-1.7684,-1.7684,-1.7684,-1.7793,-1.795,-1.8046,-1.8094,-1.8155,-1.8251,-1.803,-1.8009,-1.7937,-1.7974,-1.8022,-1.8034,-1.8143,-1.8239,-1.836,-1.8481,-1.8553,-1.8638,-1.8722,-1.8831,-1.8903,-1.9,-1.9072,-1.9157,-1.9193,-1.9205,-1.9205,-1.9217,-1.9229,-1.9217,-1.9241,-1.9157,-1.9084,-1.9084,-1.912,-1.9072,-1.9072,-1.9072,-1.9072,-1.9048,-1.9024,-1.9048,-1.906,-1.9072,-0.7154,-0.7154,-0.7154,-0.7154,-0.7154,-0.7154,-0.7154,-0.7154,-0.7154,-0.7171,-0.7192,-0.7198,-0.7214,-0.7247,-0.7345,-0.7491,-0.7693,-0.7698,-0.7758,-0.7839,-0.7867,-0.7872,-0.7872,-0.7872,-0.7872,-0.7872,-0.7872,-0.7872,-0.7872,-0.7872,-0.7872,-0.7883,-0.7883,-0.791,-0.7937,-0.8035,-0.8079,-0.8155,-0.8214,-0.8334,-0.8448,-0.8535,-0.859,-0.8595,-0.9673,-1.0485,-1.1416,-1.2265,-1.3733,-1.5488,-1.7249,-1.8342,-1.8075,-1.87,-1.8968,-1.8728,-1.8589,-1.8481,-1.8469,-1.8481,-1.8493,-1.8384,-1.8372,-1.8348,-1.8263,-1.7923,-1.7753,-1.7732,-1.7829,-1.7962,-1.7986,-1.8155,-1.8287,-1.836,-1.8372,-1.8408,-1.8493,-1.8541,-1.8553,-1.8456,-1.8456,-1.8408,-1.8384,-1.8396,-1.8481,-1.865,-1.877,-1.8794,-1.8867,-1.8915,-1.9,-1.9048,-1.912,-1.9309,-1.9395,-1.9362,-1.9398,-1.9446,-1.9483,-1.9519,-1.9483,-1.9458,-1.935,-1.9253,-1.9217,-1.9229,-1.9157,-1.9072,-1.9072,-1.9072,-1.9072,-1.9072,-1.9072,-1.9072,-1.9072,-0.7154,-0.7154,-0.7154,-0.7154,-0.7154,-0.7154,-0.716,-0.716,-0.7165,-0.722,-0.7317,-0.7317,-0.7372,-0.7453,-0.7475,-0.7578,-0.7676,-0.7725,-0.7774,-0.7861,-0.7872,-0.7872,-0.7872,-0.7872,-0.7872,-0.7877,-0.7883,-0.7872,-0.7888,-0.7888,-0.7883,-0.7899,-0.7986,-0.803,-0.8046,-0.8155,-0.8269,-0.8356,-0.8383,-0.8454,-0.8552,-0.859,-0.86,-0.8767,-0.8963,-0.9691,-1.0644,-1.1254,-1.2127,-1.3908,-1.5885,-1.6705,-1.6624,-1.8105,-1.8827,-1.9078,-1.904,-1.8976,-1.8939,-1.8891,-1.8819,-1.8674,-1.8638,-1.8517,-1.8432,-1.8348,-1.8177,-1.8263,-1.8239,-1.8239,-1.8239,-1.83,-1.842,-1.8553,-1.8638,-1.8758,-1.8855,-1.877,-1.8794,-1.8819,-1.877,-1.871,-1.8674,-1.8686,-1.8722,-1.8903,-1.9036,-1.9048,-1.9084,-1.912,-1.9145,-1.9052,-1.935,-1.9553,-1.9601,-1.9686,-1.9591,-1.9664,-1.9748,-1.9796,-1.9724,-1.9664,-1.9603,-1.9519,-1.9434,-1.9277,-1.9132,-1.9072,-1.9072,-1.9072,-1.9072,-1.9072,-1.9072,-1.9072,-1.9072,-0.7154,-0.7154,-0.7154,-0.7154,-0.7154,-0.7154,-0.7192,-0.7247,-0.7258,-0.7323,-0.7421,-0.7437,-0.7508,-0.7606,-0.7622,-0.7687,-0.778,-0.7796,-0.7818,-0.7861,-0.7872,-0.7872,-0.7872,-0.7872,-0.7872,-0.7894,-0.7937,-0.7986,-0.7975,-0.7975,-0.7975,-0.7997,-0.8089,-0.8155,-0.8166,-0.8274,-0.835,-0.8416,-0.8481,-0.8573,-0.866,-0.8693,-0.872,-0.8791,-0.8845,-0.9274,-0.971,-0.9871,-1.0593,-1.1819,-1.2764,-1.3857,-1.5914,-1.7792,-1.8684,-1.8928,-1.9076,-1.9114,-1.912,-1.9096,-1.9036,-1.8963,-1.8903,-1.8855,-1.8722,-1.8589,-1.8641,-1.8778,-1.8653,-1.8517,-1.8553,-1.8662,-1.877,-1.8867,-1.8867,-1.8927,-1.9024,-1.9048,-1.9024,-1.906,-1.9084,-1.9024,-1.8976,-1.9,-1.8963,-1.8963,-1.906,-1.9072,-1.9157,-1.9241,-1.9148,-1.9054,-1.9507,-1.9844,-2.0013,-2.0062,-1.9905,-1.9845,-2.0014,-2.0026,-1.9929,-1.9857,-1.976,-1.9627,-1.947,-1.9301,-1.912,-1.9072,-1.9072,-1.9072,-1.9072,-1.9072,-1.9072,-1.9072,-1.9072,-0.7134,-0.7129,-0.7214,-0.7198,-0.7203,-0.723,-0.7296,-0.7377,-0.7383,-0.7448,-0.7551,-0.7595,-0.7665,-0.7725,-0.7747,-0.7785,-0.7861,-0.7872,-0.7872,-0.7872,-0.7872,-0.7872,-0.7883,-0.7888,-0.7926,-0.7921,-0.8051,-0.8095,-0.8111,-0.8127,-0.8144,-0.8111,-0.822,-0.8274,-0.8312,-0.8388,-0.847,-0.8481,-0.8584,-0.8677,-0.8753,-0.8802,-0.8861,-0.8927,-0.8976,-0.8997,-0.8997,-0.9041,-0.9742,-1.015,-0.998,-1.1664,-1.476,-1.6666,-1.7852,-1.8215,-1.8664,-1.887,-1.8923,-1.909,-1.9289,-1.9253,-1.9169,-1.912,-1.9012,-1.8879,-1.8908,-1.9047,-1.8921,-1.8782,-1.8819,-1.8951,-1.8988,-1.9012,-1.9036,-1.906,-1.9084,-1.912,-1.9181,-1.9241,-1.9277,-1.9314,-1.9289,-1.9301,-1.9241,-1.9096,-1.9084,-1.912,-1.9253,-1.941,-1.9507,-1.9436,-1.9639,-2.0124,-2.0294,-2.0307,-2.0148,-2.0014,-2.0183,-2.0158,-2.0014,-1.9929,-1.9845,-1.9688,-1.9543,-1.9314,-1.9132,-1.9096,-1.9072,-1.9072,-1.9072,-1.9072,-1.9072,-1.9072,-1.9072,-0.7031,-0.7021,-0.7257,-0.7328,-0.7328,-0.7448,-0.7491,-0.7508,-0.7508,-0.7573,-0.7693,-0.7785,-0.7823,-0.7845,-0.7839,-0.785,-0.7872,-0.7872,-0.7883,-0.7883,-0.7872,-0.7899,-0.7937,-0.7997,-0.804,-0.8062,-0.816,-0.822,-0.8247,-0.8323,-0.8296,-0.8258,-0.8356,-0.8394,-0.8437,-0.8513,-0.8573,-0.86,-0.8698,-0.8769,-0.8829,-0.8883,-0.8954,-0.8986,-0.9063,-0.9122,-0.9128,-0.9193,-0.9231,-0.9655,-0.933,-0.9883,-1.2856,-1.5496,-1.6847,-1.7496,-1.8064,-1.8328,-1.8496,-1.9072,-1.9651,-1.9736,-1.9591,-1.922,-1.9169,-1.9096,-1.9048,-1.9012,-1.8976,-1.9024,-1.9036,-1.9072,-1.9145,-1.9241,-1.9289,-1.9277,-1.9277,-1.91,-1.9301,-1.9398,-1.947,-1.9519,-1.9567,-1.9579,-1.9507,-1.9374,-1.9326,-1.935,-1.9507,-1.9664,-1.9784,-1.9893,-2.0098,-2.0379,-2.0576,-2.0576,-2.0427,-2.0243,-2.0291,-2.0183,-2.0002,-1.9953,-2.005,-1.982,-1.9676,-1.9398,-1.9217,-1.9277,-1.9277,-1.9132,-1.9084,-1.9132,-1.9108,-1.9072,-1.9072,-0.7168,-0.7057,-0.7434,-0.7519,-0.7453,-0.7497,-0.7562,-0.7622,-0.7633,-0.7698,-0.7807,-0.785,-0.7872,-0.7872,-0.7872,-0.7872,-0.7872,-0.7872,-0.7915,-0.7964,-0.7986,-0.8024,-0.8084,-0.8122,-0.8166,-0.8193,-0.8285,-0.8345,-0.8361,-0.8454,-0.8486,-0.8481,-0.8497,-0.8513,-0.8562,-0.8622,-0.8682,-0.8731,-0.8823,-0.8905,-0.8997,-0.903,-0.9095,-0.9177,-0.9193,-0.9237,-0.9242,-0.9275,-0.9296,-0.9296,-0.928,-0.9988,-1.1136,-1.409,-1.5934,-1.6607,-1.7323,-1.7834,-1.8046,-1.8857,-1.948,-1.9456,-1.9217,-1.9076,-1.8971,-1.8806,-1.8829,-1.8887,-1.8852,-1.8923,-1.9301,-1.9326,-1.9386,-1.9507,-1.9543,-1.9519,-1.9364,-1.9185,-1.9256,-1.9411,-1.9447,-1.9483,-1.9663,-1.9978,-1.9748,-1.9639,-1.9615,-1.9615,-1.976,-1.9917,-2.005,-2.0146,-2.0327,-2.0436,-2.0622,-2.0671,-2.0569,-2.0472,-2.0376,-2.0219,-2.0086,-2.0352,-2.0376,-2.011,-1.9869,-1.9724,-1.9627,-1.9591,-1.9483,-1.9301,-1.9241,-1.9253,-1.9193,-1.9084,-1.9072,-0.7153,-0.7045,-0.748,-0.7562,-0.7584,-0.7611,-0.7671,-0.7741,-0.7752,-0.779,-0.7872,-0.7872,-0.7872,-0.7872,-0.7872,-0.7872,-0.7888,-0.7915,-0.7981,-0.8035,-0.8095,-0.8155,-0.822,-0.8269,-0.8291,-0.8318,-0.8399,-0.847,-0.847,-0.8552,-0.8562,-0.8579,-0.8622,-0.8622,-0.8606,-0.8704,-0.8785,-0.8845,-0.8943,-0.9035,-0.9122,-0.9171,-0.9204,-0.928,-0.9291,-0.9291,-0.9291,-0.9302,-0.9302,-0.9302,-0.9285,-0.9275,-1.0568,-1.2309,-1.4491,-1.547,-1.6131,-1.6947,-1.7317,-1.844,-1.9117,-1.9082,-1.8924,-1.8921,-1.8893,-1.8547,-1.8588,-1.858,-1.8557,-1.8876,-1.9316,-1.9208,-1.9232,-1.9193,-1.9217,-1.9205,-1.9217,-1.9061,-1.9311,-1.9428,-1.9452,-1.9487,-1.9764,-1.9935,-1.9867,-1.9795,-1.9917,-1.9917,-2.0014,-2.0171,-2.034,-2.0424,-2.0509,-2.0593,-2.0653,-2.0629,-2.0581,-2.04,-2.0315,-2.0267,-2.0255,-2.0472,-2.046,-2.0086,-1.9941,-2.0014,-1.9977,-1.9869,-1.9664,-1.9446,-1.941,-1.9386,-1.9181,-1.9072,-1.9072,-0.6634,-0.6893,-0.7255,-0.7438,-0.7714,-0.7818,-0.7856,-0.785,-0.785,-0.7861,-0.7872,-0.7872,-0.7872,-0.7872,-0.7872,-0.7883,-0.7921,-0.7992,-0.8062,-0.8117,-0.8198,-0.8236,-0.8296,-0.8356,-0.841,-0.8443,-0.8503,-0.8552,-0.8568,-0.8579,-0.8584,-0.8644,-0.8704,-0.8725,-0.8617,-0.8715,-0.8834,-0.8809,-0.9068,-0.9128,-0.9166,-0.9237,-0.928,-0.9296,-0.9302,-0.9302,-0.9302,-0.9302,-0.9302,-0.9302,-0.9323,-0.9318,-0.974,-1.1221,-1.2532,-1.2768,-1.4206,-1.4912,-1.5283,-1.7549,-1.8389,-1.8512,-1.8479,-1.8516,-1.8631,-1.8407,-1.8061,-1.8039,-1.8239,-1.8585,-1.8787,-1.8799,-1.8821,-1.8901,-1.8936,-1.8947,-1.897,-1.8834,-1.8948,-1.9289,-1.9324,-1.9381,-1.9692,-1.9877,-1.9906,-1.9935,-2.0207,-2.0231,-2.0291,-2.0376,-2.0533,-2.0569,-2.0617,-2.0629,-2.0665,-2.0665,-2.0593,-2.04,-2.0303,-2.0303,-2.0231,-2.0279,-2.0183,-1.9989,-2.0074,-2.0219,-2.0171,-2.0098,-1.9941,-1.9796,-1.9579,-1.947,-1.9241,-1.9145,-1.9241,-0.6158,-0.6285,-0.6648,-0.7001,-0.7459,-0.7856,-0.7872,-0.7872,-0.7872,-0.7872,-0.7872,-0.7872,-0.7872,-0.7872,-0.7888,-0.7915,-0.7992,-0.8019,-0.8095,-0.8291,-0.8339,-0.841,-0.8459,-0.8486,-0.8524,-0.8541,-0.8579,-0.859,-0.8584,-0.86,-0.8649,-0.8715,-0.8823,-0.8861,-0.8872,-0.8943,-0.9041,-0.909,-0.9177,-0.9247,-0.9247,-0.9285,-0.9307,-0.9313,-0.9318,-0.9329,-0.9329,-0.9334,-0.9334,-0.9345,-0.9378,-0.9416,-0.9573,-1.0785,-1.139,-1.1351,-1.228,-1.3672,-1.4203,-1.5542,-1.6987,-1.7477,-1.7854,-1.776,-1.7728,-1.757,-1.7454,-1.7485,-1.763,-1.7966,-1.8178,-1.8211,-1.8276,-1.8589,-1.8644,-1.8644,-1.8506,-1.8367,-1.8272,-1.8871,-1.9055,-1.901,-1.91,-1.8982,-1.8955,-1.9324,-1.945,-2.0173,-2.0496,-2.0533,-2.0629,-2.0629,-2.0653,-2.0653,-2.0665,-2.0237,-2.0166,-2.0,-2.0263,-2.046,-2.0364,-2.0267,-2.0315,-2.0352,-2.0388,-2.0412,-2.0376,-2.0352,-2.0315,-2.0183,-1.9953,-1.9748,-1.9579,-1.9567,-1.9664,-0.5667,-0.5794,-0.5912,-0.6403,-0.7016,-0.7505,-0.775,-0.7872,-0.7872,-0.7872,-0.7872,-0.7872,-0.7872,-0.7883,-0.7926,-0.7959,-0.8062,-0.816,-0.8214,-0.8421,-0.8465,-0.8508,-0.8557,-0.859,-0.8573,-0.859,-0.8595,-0.86,-0.866,-0.8655,-0.8753,-0.8889,-0.8976,-0.9035,-0.9068,-0.9117,-0.9144,-0.9188,-0.9264,-0.9291,-0.9307,-0.934,-0.9372,-0.9389,-0.941,-0.9443,-0.9432,-0.9427,-0.9427,-0.9449,-0.9492,-0.9546,-0.9876,-1.0191,-1.0637,-1.0423,-1.1135,-1.2604,-1.3328,-1.3762,-1.5096,-1.6291,-1.6744,-1.7087,-1.6967,-1.6947,-1.6867,-1.6914,-1.6981,-1.7337,-1.759,-1.776,-1.7812,-1.7981,-1.784,-1.783,-1.7689,-1.7539,-1.7679,-1.8163,-1.8455,-1.8444,-1.8282,-1.7991,-1.7798,-1.8229,-1.867,-1.939,-2.0261,-2.0412,-2.0435,-2.0308,-1.9843,-1.939,-1.939,-1.9379,-1.9299,-1.9588,-1.9922,-2.0281,-2.0557,-2.0472,-2.0593,-2.0665,-2.0593,-2.0557,-2.0617,-2.0605,-2.0509,-2.0436,-2.0327,-2.0122,-1.9941,-1.9917,-1.9965,-0.5056,-0.5298,-0.5421,-0.579,-0.6403,-0.7016,-0.7505,-0.7872,-0.7872,-0.7877,-0.7883,-0.7894,-0.7915,-0.7926,-0.8008,-0.8073,-0.8127,-0.8307,-0.8388,-0.8454,-0.8519,-0.8568,-0.8584,-0.859,-0.859,-0.859,-0.86,-0.8638,-0.8753,-0.8812,-0.8932,-0.9063,-0.9117,-0.9171,-0.9209,-0.9209,-0.9215,-0.9264,-0.9285,-0.9318,-0.9351,-0.9416,-0.9465,-0.9497,-0.9557,-0.9595,-0.9606,-0.9612,-0.9622,-0.9639,-0.9661,-0.9671,-0.9677,-0.9677,-0.9755,-1.0002,-1.0724,-1.1504,-1.217,-1.2518,-1.329,-1.434,-1.5593,-1.5999,-1.6394,-1.6496,-1.6588,-1.6578,-1.6688,-1.7047,-1.7278,-1.7127,-1.7117,-1.7157,-1.7017,-1.6875,-1.6734,-1.6734,-1.6885,-1.7188,-1.7329,-1.7319,-1.7157,-1.7007,-1.6433,-1.6564,-1.6997,-1.7611,-1.8476,-1.9784,-1.9807,-1.9724,-1.9093,-1.7851,-1.783,-1.784,-1.8078,-1.8133,-1.9438,-2.0063,-2.0352,-2.0503,-2.0653,-2.0665,-2.0665,-2.0665,-2.0665,-2.0665,-2.0653,-2.0581,-2.0521,-2.0412,-2.0195,-2.011,-2.011,-0.4441,-0.4684,-0.4684,-0.5053,-0.579,-0.6403,-0.7016,-0.7505,-0.775,-0.791,-0.8002,-0.8002,-0.804,-0.8133,-0.8171,-0.8231,-0.8307,-0.8388,-0.8465,-0.8524,-0.8562,-0.8579,-0.859,-0.859,-0.859,-0.859,-0.8611,-0.8677,-0.8802,-0.891,-0.903,-0.9122,-0.9209,-0.9269,-0.928,-0.9269,-0.9285,-0.9302,-0.9318,-0.9362,-0.9416,-0.9487,-0.9546,-0.9617,-0.9666,-0.9699,-0.9688,-0.9682,-0.9682,-0.9682,-0.9748,-0.978,-0.9634,-0.9862,-0.9883,-0.9856,-1.0196,-1.0339,-1.0595,-1.1276,-1.1901,-1.2352,-1.3317,-1.4797,-1.5615,-1.6065,-1.6103,-1.5953,-1.5981,-1.6169,-1.6178,-1.6028,-1.5886,-1.5603,-1.5461,-1.5319,-1.5035,-1.4893,-1.5186,-1.5932,-1.6074,-1.5904,-1.5886,-1.5452,-1.5017,-1.5008,-1.5159,-1.5639,-1.6661,-1.7965,-1.9052,-1.8965,-1.8007,-1.6613,-1.6188,-1.6197,-1.6442,-1.6977,-1.8121,-1.9122,-1.9435,-1.9715,-2.04,-2.0726,-2.0822,-2.0762,-2.0665,-2.0714,-2.0847,-2.0714,-2.0641,-2.0569,-2.0484,-2.0388,-2.034,-0.3453,-0.3699,-0.4071,-0.4561,-0.506,-0.5702,-0.6337,-0.6708,-0.7449,-0.7867,-0.7932,-0.8106,-0.8166,-0.8225,-0.828,-0.8345,-0.8405,-0.847,-0.853,-0.8557,-0.859,-0.859,-0.859,-0.8595,-0.8622,-0.8633,-0.8687,-0.8769,-0.891,-0.9073,-0.9204,-0.9209,-0.9285,-0.9296,-0.9302,-0.9302,-0.9334,-0.9362,-0.9389,-0.9427,-0.9487,-0.9574,-0.9671,-0.9715,-0.9758,-0.9769,-0.9731,-0.9726,-0.9731,-0.9737,-0.9818,-0.9862,-0.9873,-0.9943,-0.9987,-0.9932,-0.9786,-0.9827,-1.007,-1.0275,-1.0596,-1.107,-1.1599,-1.294,-1.4057,-1.4788,-1.4806,-1.4673,-1.5008,-1.5195,-1.4901,-1.475,-1.4324,-1.3888,-1.3745,-1.346,-1.3182,-1.2896,-1.3491,-1.4382,-1.4659,-1.4483,-1.4181,-1.3745,-1.3317,-1.2873,-1.276,-1.2949,-1.4247,-1.5818,-1.7225,-1.7919,-1.6644,-1.5373,-1.4811,-1.4382,-1.4919,-1.5452,-1.6564,-1.757,-1.8195,-1.9138,-1.9769,-2.0403,-2.104,-2.085,-2.0674,-2.1003,-2.1076,-2.0955,-2.0895,-2.0895,-2.0798,-2.0629,-2.0605,-0.2342,-0.2467,-0.3332,-0.3704,-0.4209,-0.4758,-0.5164,-0.543,-0.6575,-0.7335,-0.7491,-0.7949,-0.8135,-0.8199,-0.8264,-0.8426,-0.8475,-0.853,-0.8557,-0.859,-0.859,-0.859,-0.859,-0.8595,-0.8644,-0.8725,-0.8796,-0.8845,-0.9084,-0.922,-0.9275,-0.9302,-0.9302,-0.9302,-0.9302,-0.934,-0.9383,-0.9443,-0.9503,-0.9563,-0.959,-0.9704,-0.9829,-0.984,-0.9883,-0.9911,-0.9835,-0.9813,-0.9824,-0.9818,-0.9845,-0.9889,-0.9938,-0.9943,-0.996,-0.9916,-0.9796,-0.9693,-0.9622,-0.9831,-1.0012,-1.0504,-1.0881,-1.1395,-1.2237,-1.3547,-1.3705,-1.2843,-1.2881,-1.3586,-1.3617,-1.357,-1.3403,-1.2949,-1.2503,-1.2194,-1.1743,-1.1606,-1.2043,-1.2632,-1.2617,-1.2452,-1.2753,-1.2459,-1.2029,-1.1168,-1.075,-1.0945,-1.1859,-1.357,-1.4966,-1.6267,-1.5425,-1.4018,-1.282,-1.2676,-1.3379,-1.4063,-1.507,-1.6007,-1.6874,-1.795,-1.9151,-1.9482,-1.9659,-2.0612,-2.0779,-2.0923,-2.1186,-2.1162,-2.1114,-2.1126,-2.1006,-2.065,-2.075,-0.1356,-0.1356,-0.1603,-0.1737,-0.1755,-0.2138,-0.2917,-0.3719,-0.4538,-0.5725,-0.69,-0.7577,-0.8024,-0.8086,-0.8376,-0.8535,-0.8552,-0.8557,-0.8584,-0.859,-0.859,-0.86,-0.8595,-0.8617,-0.8677,-0.8736,-0.8807,-0.8927,-0.9122,-0.9247,-0.9302,-0.9302,-0.9302,-0.9307,-0.9329,-0.9378,-0.9459,-0.9536,-0.9628,-0.9699,-0.9742,-0.9704,-0.9737,-0.978,-0.9824,-0.9775,-0.972,-0.9715,-0.9709,-0.9715,-0.9802,-0.9894,-1.0003,-0.9981,-0.9943,-0.9883,-0.9818,-0.9699,-0.9574,-0.9497,-0.9703,-0.9635,-0.9873,-0.9862,-1.0575,-1.2029,-1.2323,-1.1168,-1.0925,-1.1769,-1.2262,-1.2358,-1.246,-1.1846,-1.1378,-1.0919,-1.0311,-1.0455,-1.0743,-1.0587,-1.0575,-1.0868,-1.1168,-1.1038,-1.0593,-1.0167,-0.9735,-0.9775,-1.0023,-1.1218,-1.2443,-1.3544,-1.3897,-1.2801,-1.1458,-1.1166,-1.2053,-1.2532,-1.3429,-1.4383,-1.5354,-1.6736,-1.7819,-1.7789,-1.8091,-1.8937,-2.0016,-2.1002,-2.1124,-2.0554,-2.0386,-1.9927,-2.015,-1.9836,-2.0285,-0.037,-0.037,-0.0745,-0.0876,-0.101,-0.115,-0.155,-0.2216,-0.2771,-0.3585,-0.4778,-0.6506,-0.7464,-0.7655,-0.8189,-0.8323,-0.8323,-0.8584,-0.8584,-0.859,-0.86,-0.8633,-0.8644,-0.8671,-0.8818,-0.8889,-0.8986,-0.9106,-0.9198,-0.9253,-0.9302,-0.9302,-0.9307,-0.9334,-0.9372,-0.9459,-0.9552,-0.965,-0.9748,-0.9791,-0.984,-0.9818,-0.9758,-0.9786,-0.9742,-0.9682,-0.9622,-0.9628,-0.9666,-0.9726,-0.9835,-0.9878,-0.996,-0.9976,-0.9949,-0.9862,-0.9775,-0.9682,-0.9536,-0.9432,-0.9383,-0.9329,-0.9302,-0.9579,-0.9579,-1.0887,-1.0887,-0.9885,-1.0268,-1.0957,-1.0754,-1.0856,-1.0686,-1.0372,-1.0348,-1.0035,-0.9735,-0.9879,-0.9879,-0.9879,-0.9867,-0.9867,-1.0191,-1.0256,-0.9826,-0.986,-0.9405,-0.9449,-0.9525,-0.9563,-1.0649,-1.1269,-1.1965,-1.1932,-1.0884,-1.0743,-1.1045,-1.1528,-1.2013,-1.2947,-1.4199,-1.5483,-1.6441,-1.6414,-1.6731,-1.7703,-1.8777,-1.9149,-1.9033,-1.8319,-1.8279,-1.8367,-1.8591,-1.8812,-1.8612,0.0741,0.0496,-0.0126,-0.0507,-0.0509,-0.0521,-0.0659,-0.0926,-0.1203,-0.1478,-0.2147,-0.4961,-0.6176,-0.6715,-0.7116,-0.7517,-0.765,-0.7646,-0.7917,-0.8462,-0.8617,-0.8677,-0.8736,-0.8796,-0.8927,-0.9068,-0.9188,-0.9231,-0.928,-0.9302,-0.9302,-0.9307,-0.934,-0.9378,-0.9459,-0.9546,-0.9633,-0.9731,-0.9791,-0.9775,-0.984,-0.99,-0.978,-0.9731,-0.9699,-0.965,-0.9563,-0.9541,-0.9612,-0.9677,-0.9764,-0.984,-0.9889,-0.9927,-0.9883,-0.9813,-0.9731,-0.9612,-0.9476,-0.9367,-0.9329,-0.9302,-0.9302,-0.9302,-0.9302,-0.9302,-0.9446,-0.9496,-0.9731,-0.9798,-0.9753,-0.9568,-0.9551,-0.9507,-0.9485,-0.9457,-0.9313,-0.9313,-0.9313,-0.9463,-0.9474,-0.9329,-0.9378,-0.9443,-0.9497,-0.953,-0.9574,-0.9628,-0.9666,-0.9677,-1.0156,-1.0492,-1.08,-1.0474,-1.0127,-1.0289,-1.0589,-1.092,-1.1403,-1.2052,-1.2705,-1.368,-1.4509,-1.5015,-1.5497,-1.5776,-1.592,-1.6188,-1.5928,-1.608,-1.6802,-1.703,-1.6701,-1.6628,-1.6265,0.174,0.1635,0.1532,0.1551,0.1437,0.1447,0.1061,0.0268,0.0134,-0.0403,-0.1209,-0.1881,-0.2956,-0.349,-0.389,-0.4693,-0.59,-0.6305,-0.725,-0.7932,-0.7863,-0.8335,-0.8549,-0.8223,-0.8868,-0.9133,-0.9247,-0.9291,-0.9302,-0.9302,-0.9307,-0.9318,-0.9421,-0.947,-0.9514,-0.9622,-0.9769,-0.9835,-0.9829,-0.9813,-0.9753,-0.9731,-0.9584,-0.9508,-0.9438,-0.9394,-0.9356,-0.9362,-0.9372,-0.9416,-0.9546,-0.9553,-0.9786,-0.9845,-0.9807,-0.9753,-0.9671,-0.9541,-0.9416,-0.934,-0.9302,-0.9302,-0.9302,-0.9302,-0.9302,-0.9302,-0.9318,-0.9362,-0.9612,-0.9766,-0.9606,-0.9722,-0.9546,-0.9449,-0.9394,-0.9362,-0.9345,-0.9351,-0.9351,-0.9383,-0.9568,-0.9432,-0.9465,-0.9541,-0.9622,-0.9655,-0.9666,-0.972,-0.9742,-0.9769,-0.9802,-0.9835,-1.002,-0.9791,-0.9866,-0.9943,-1.0117,-1.0445,-1.0627,-1.1268,-1.1619,-1.167,-1.2333,-1.2944,-1.2944,-1.2923,-1.3084,-1.3531,-1.3823,-1.4275,-1.5362,-1.565,-1.5176,-1.4686,-1.4158]}]]